GFSSGP_prec_cthk_000.txt.gz
RH
6 6 9 11 12 18 25 26 30 38 37 38 35 36 38 38 40 55 49 40 41 51 58 59 56 53 57 58 56 52 46 49 52 53 54 52 48 48 50 49 43 42 44 45 43 37 32 35 39
6 9 10 10 14 20 26 27 34 36 37 36 34 36 38 41 44 45 42 39 42 45 48 49 41 38 40 39 39 43 47 47 47 46 46 41 36 33 34 34 33 33 33 31 29 25 24 26 29
9 10 11 12 16 24 27 29 36 37 36 39 37 38 38 41 39 37 35 32 35 35 35 31 29 30 31 34 37 39 40 38 36 34 32 29 26 27 27 26 28 25 20 18 19 21 25 28 31
11 11 13 19 21 26 29 34 34 36 38 39 37 36 32 33 31 32 29 25 25 27 30 24 24 26 27 29 29 30 33 34 33 29 27 27 27 26 25 23 21 21 21 20 21 24 28 32 32
12 15 19 23 25 24 30 34 38 37 36 37 31 28 26 32 29 28 28 24 25 24 22 24 26 28 30 31 30 30 30 27 26 22 20 20 22 18 18 18 18 16 14 14 16 22 28 31 35
15 19 24 26 27 28 30 31 30 26 27 25 27 25 27 29 27 28 24 23 23 21 21 26 26 25 24 24 25 24 21 20 16 16 17 18 15 16 18 19 15 9 9 10 11 15 19 19 21
18 22 25 24 25 25 21 20 24 23 23 24 22 25 25 29 28 25 24 23 20 23 23 27 25 22 22 20 18 13 13 14 13 15 18 16 14 15 17 17 15 11 12 13 14 14 15 13 12
17 19 20 20 18 16 14 13 14 17 19 17 19 22 22 27 25 25 24 23 24 25 30 30 26 19 15 13 11 10 10 11 13 17 19 18 18 20 22 21 18 18 18 17 17 16 16 16 15
18 19 16 15 15 14 12 12 9 10 15 14 16 23 22 23 23 26 26 26 29 32 33 29 23 18 17 16 14 11 12 15 18 21 24 24 27 26 27 26 24 24 25 26 26 26 23 20 17
16 17 15 13 13 10 9 8 8 10 11 12 14 13 17 18 21 23 28 27 28 34 34 27 24 20 20 21 23 23 23 28 27 29 27 30 30 31 31 30 29 29 32 31 31 31 31 31 32
17 16 14 12 8 7 7 7 7 9 10 11 14 16 21 23 24 27 34 31 33 36 31 29 30 24 26 28 33 35 35 34 37 35 38 41 39 43 44 45 45 44 41 42 39 38 42 38 37
15 12 11 7 7 9 11 10 11 10 11 13 17 23 27 32 34 32 32 39 37 36 34 34 34 28 30 34 38 41 43 44 46 49 44 48 48 49 49 49 50 49 49 45 48 49 42 41 41
11 11 11 11 13 13 13 14 17 15 14 15 18 22 25 32 33 34 33 38 41 37 40 41 41 32 34 36 44 44 46 48 46 49 50 46 47 46 45 44 44 44 45 46 48 47 46 42 42
12 14 15 17 18 16 16 17 17 17 17 17 17 21 26 28 29 30 33 37 45 44 50 49 48 38 37 41 42 47 47 48 49 49 48 42 42 45 44 44 44 44 48 46 47 48 46 46 44
15 17 17 18 19 20 18 19 18 18 19 19 19 19 25 27 28 29 32 39 46 49 51 52 49 42 42 44 46 47 51 51 53 52 46 44 45 46 44 47 46 47 46 46 47 45 44 44 47
16 16 19 19 20 20 20 25 20 21 21 20 21 21 23 26 31 33 38 43 47 48 49 52 47 45 45 48 50 53 55 56 59 55 51 49 49 48 47 50 48 47 46 47 47 47 46 45 44
14 16 15 18 19 20 20 23 22 20 20 20 21 21 23 26 34 40 39 39 42 44 47 51 48 49 49 50 54 55 58 62 61 59 55 53 52 51 50 49 48 48 46 44 45 45 45 45 44
16 16 16 16 17 17 21 21 19 20 20 22 23 23 24 28 37 36 36 39 40 40 46 54 49 49 52 57 57 58 62 60 61 59 57 55 55 53 52 51 50 50 51 49 50 47 46 47 46
17 18 19 19 20 22 23 21 21 22 24 24 25 23 26 31 34 37 38 36 38 42 48 55 54 52 57 61 62 66 64 64 64 64 61 59 57 56 55 55 55 52 50 49 46 45 46 45 49
18 19 20 21 22 24 23 24 23 24 24 26 29 29 30 32 35 36 38 39 42 47 53 57 56 58 63 67 67 68 69 68 67 67 67 67 66 64 57 54 50 47 44 42 41 40 40 43 47
21 21 23 24 23 24 25 27 26 25 28 29 30 31 33 35 37 39 42 43 46 51 57 61 63 65 66 68 69 70 70 71 70 69 67 66 64 59 54 48 42 39 38 37 37 39 40 40 42
24 24 26 24 24 26 25 31 30 29 30 32 34 35 37 39 41 44 48 51 55 58 61 65 66 67 66 66 68 69 69 69 68 67 68 68 61 55 48 41 39 36 37 39 38 40 40 42 40
31 29 28 27 27 28 29 29 36 32 33 35 36 38 40 42 46 51 54 58 62 63 63 64 64 65 65 66 69 71 70 69 72 76 71 61 54 46 44 44 41 38 36 36 33 32 35 35 37
30 29 30 32 34 39 35 31 38 35 37 38 40 42 45 48 50 55 58 60 59 62 64 65 67 69 71 72 73 74 74 79 74 67 60 52 49 52 50 44 40 38 35 34 32 31 30 31 35
31 30 35 43 43 42 35 33 39 37 39 42 44 48 51 54 57 57 60 64 65 66 66 68 75 77 78 85 84 84 81 73 63 54 50 51 53 49 45 37 37 36 35 37 39 42 46 44 42
35 36 41 44 43 40 35 36 42 39 42 44 47 52 57 60 61 65 67 67 67 67 69 70 75 82 84 78 72 68 64 58 57 57 56 53 49 47 39 39 41 45 46 50 55 58 59 63 63
37 40 38 44 52 48 36 39 40 43 46 48 52 55 57 59 61 61 61 62 64 64 69 73 70 67 65 64 63 61 60 57 56 53 53 54 50 46 43 46 51 53 57 61 60 66 71 77 82
36 38 42 39 54 40 31 38 43 48 53 53 55 58 59 59 60 61 65 67 69 70 65 63 63 66 65 64 64 63 60 61 59 57 52 49 49 53 55 55 63 66 66 67 71 77 83 89 91
42 43 41 40 45 47 47 37 45 53 51 52 54 57 60 61 63 65 64 64 63 63 65 66 68 69 71 68 68 67 66 58 50 49 51 53 62 61 65 68 66 69 72 83 88 94 97 96 95
44 46 44 45 50 56 58 49 48 52 55 58 60 60 61 64 66 67 68 66 68 71 72 75 75 73 70 72 72 63 54 56 53 61 67 68 67 67 62 65 70 78 84 91 95 97 96 94 91

GFSSGP_prec_cthk_003.txt.gz
RH
12 8 9 11 12 17 38 44 44 44 39 41 34 41 46 50 53 66 63 44 45 54 54 55 53 52 50 54 56 52 52 45 47 51 51 51 53 51 46 45 42 45 43 42 39 38 35 30 28
9 9 10 13 16 27 38 35 43 47 35 28 28 31 38 38 39 43 44 41 49 56 60 49 43 42 46 48 43 40 43 44 46 45 43 42 37 35 31 31 32 32 33 30 22 19 18 21 25
8 10 12 12 21 24 40 37 45 33 29 35 30 36 39 41 42 44 33 34 39 47 48 36 33 31 32 32 34 39 39 36 36 35 33 28 27 26 26 25 21 20 22 22 20 19 22 26 29
10 9 10 15 29 33 34 42 36 30 33 35 36 39 38 39 37 32 27 30 36 39 32 24 23 25 26 29 32 32 33 34 32 30 24 22 21 21 20 18 18 17 15 14 15 19 23 27 30
10 13 21 28 36 34 40 40 34 45 45 40 33 41 38 37 34 29 27 27 28 29 25 21 21 22 25 27 28 29 28 26 24 21 19 18 19 17 16 17 19 16 12 11 12 12 15 21 24
12 23 30 35 41 37 39 39 39 40 42 32 34 37 44 34 32 27 26 25 24 24 26 23 23 22 21 21 23 24 21 19 17 15 16 18 18 16 17 18 18 14 12 13 13 13 13 14 13
21 35 31 39 38 33 35 30 29 25 29 29 31 38 35 30 27 27 26 22 21 24 33 30 22 17 17 18 16 14 14 13 12 14 18 20 19 18 21 23 20 18 18 19 18 17 16 15 16
24 31 32 34 29 28 21 20 25 25 35 28 28 31 30 35 26 25 23 22 24 28 34 30 28 25 20 13 9 9 10 11 14 18 23 23 23 25 24 26 24 23 24 24 24 24 25 25 21
17 25 25 23 22 16 13 13 12 14 22 21 20 35 30 29 25 24 22 22 26 31 32 34 31 27 25 28 16 14 15 17 20 23 25 27 42 40 42 36 30 28 27 29 30 29 29 29 31
20 20 21 16 15 14 12 12 8 12 17 14 16 20 30 25 22 24 24 26 31 35 34 35 31 23 23 27 29 30 30 40 39 41 43 52 51 49 45 45 43 41 41 41 42 40 38 40 43
22 24 14 12 11 9 8 9 7 11 11 13 16 16 27 24 25 27 34 35 38 41 42 39 28 27 29 33 42 48 49 46 49 50 51 53 53 58 57 58 56 56 50 52 48 50 50 44 40
22 17 14 11 6 9 9 10 9 12 13 12 17 25 29 29 31 37 39 42 45 50 46 40 34 29 29 40 48 51 54 53 53 54 52 54 55 55 54 53 52 51 54 51 52 52 50 46 43
14 13 11 7 8 11 11 11 16 12 13 13 19 28 31 38 41 38 41 43 47 50 54 57 48 36 39 42 52 53 53 57 52 57 55 53 51 51 51 52 51 49 50 53 51 49 48 44 43
14 14 13 13 14 13 15 16 16 19 16 16 18 25 36 38 41 39 38 45 48 50 58 60 63 51 48 47 51 55 57 60 62 60 57 54 54 53 51 50 52 51 49 48 46 45 42 40 39
13 15 15 16 19 20 15 20 19 19 17 18 18 23 35 40 36 39 40 48 55 58 61 70 67 57 50 52 55 57 57 55 59 62 60 55 51 53 51 54 55 56 52 50 51 49 48 45 42
17 23 26 21 19 20 19 35 24 20 19 21 22 21 23 35 34 40 42 45 47 58 65 67 69 58 52 53 54 58 60 61 63 65 61 60 56 57 57 57 56 55 53 52 53 52 52 50 48
19 29 23 24 18 20 21 33 29 23 20 20 22 24 22 30 42 47 44 47 51 56 60 65 67 56 54 55 60 62 64 64 68 67 68 68 63 64 64 63 62 60 61 58 55 54 52 53 51
27 22 18 23 23 17 21 24 23 20 18 19 23 25 27 28 42 51 51 45 49 52 55 62 73 58 58 62 63 65 67 68 71 73 71 70 68 68 65 65 64 63 60 60 59 54 51 49 48
17 19 22 24 21 18 23 21 23 22 23 25 25 26 26 30 45 50 44 42 45 49 53 67 74 60 61 66 67 68 68 72 75 76 74 74 72 69 67 66 67 62 59 55 49 46 43 43 42
19 21 22 20 19 18 26 28 26 25 26 28 28 29 32 35 41 43 41 41 46 55 63 64 66 63 63 66 70 69 70 74 75 77 75 74 71 71 71 72 61 59 52 48 48 46 46 44 43
22 22 25 24 22 20 22 32 27 26 27 28 30 32 35 38 40 43 43 46 50 54 58 61 65 68 68 71 70 71 71 72 75 75 74 75 75 76 71 66 61 54 54 53 51 50 48 47 44
28 24 24 23 23 34 26 34 42 36 30 32 34 35 36 39 42 44 48 51 58 60 63 67 69 69 66 68 69 71 75 76 77 79 79 79 80 71 65 62 57 56 53 50 46 45 40 37 35
31 26 26 25 25 27 29 23 49 43 39 36 38 39 41 43 47 50 53 58 63 65 67 68 68 67 66 66 71 75 77 83 92 91 83 73 69 63 61 57 56 50 44 44 42 42 43 42 42
27 28 27 28 33 37 41 30 48 52 44 38 41 43 46 47 49 54 59 62 65 68 67 67 68 66 68 72 75 80 79 75 70 66 64 63 61 55 53 51 51 49 50 50 46 51 50 46 44
30 34 43 48 45 50 40 27 43 38 37 40 45 46 50 52 56 61 67 72 71 68 65 64 67 70 72 77 69 62 61 64 66 65 61 56 52 51 52 54 54 51 52 55 58 59 60 60 57
34 35 43 43 44 42 37 34 49 40 37 41 44 49 54 58 62 65 66 66 68 64 64 66 69 70 70 64 63 65 65 65 64 62 60 58 58 53 51 51 50 54 57 57 60 64 60 59 63
36 37 30 39 45 43 34 41 48 49 48 48 51 53 58 60 61 62 65 64 63 64 65 63 63 62 64 66 67 70 73 71 68 67 65 62 59 54 57 61 59 55 58 62 65 68 68 67 75
36 33 45 41 52 38 36 33 50 58 54 54 56 60 62 64 66 66 66 67 66 65 65 63 64 68 74 79 77 76 78 80 74 68 69 71 68 64 52 54 62 67 64 63 69 70 74 80 86
44 47 41 36 42 50 47 45 53 55 53 55 58 63 65 67 69 68 67 65 66 67 68 69 73 75 75 77 81 79 77 75 77 76 75 65 57 53 52 47 50 57 62 68 75 80 87 92 94
35 42 40 44 48 51 55 51 55 59 60 63 64 64 63 64 66 66 67 69 71 70 72 73 73 76 79 83 83 81 79 76 69 71 60 54 47 45 46 50 58 67 78 84 92 92 90 93 95

GFSSGP_prec_cthk_006.txt.gz
RH
9 7 10 18 19 16 25 43 51 53 59 50 38 38 46 53 55 67 70 67 59 47 50 53 50 47 45 45 47 49 48 42 44 45 47 46 44 38 34 33 32 33 34 36 33 28 24 19 16
13 10 21 17 17 23 35 49 46 45 38 32 29 39 45 43 50 48 48 50 47 47 45 45 46 44 43 45 43 39 37 41 41 39 36 32 27 24 23 22 21 19 18 18 19 18 17 16 18
20 11 15 17 21 27 41 44 48 49 37 35 32 44 42 44 43 40 41 49 44 42 45 41 41 42 39 35 32 35 37 33 31 30 27 22 19 19 19 18 15 15 14 12 12 12 14 17 19
10 16 11 17 24 34 42 53 48 41 27 37 43 43 41 44 38 34 32 37 42 38 33 30 27 24 24 24 26 29 30 30 28 25 21 17 17 17 16 15 16 17 14 12 12 11 10 12 17
25 15 18 27 41 39 46 48 34 37 48 36 39 61 51 42 31 27 30 35 35 25 20 19 18 18 19 21 23 25 24 24 21 17 16 16 18 18 15 16 18 17 13 12 12 12 11 11 11
16 22 30 33 39 42 45 39 47 55 59 41 44 49 49 33 30 26 25 28 27 21 18 17 18 18 18 17 19 20 19 17 15 14 15 17 19 17 17 21 22 20 19 19 19 18 16 15 14
31 30 37 39 43 42 40 36 34 38 41 36 40 52 44 36 28 23 23 23 21 24 19 20 19 16 14 15 14 12 12 12 11 13 17 20 20 21 20 22 23 22 22 23 23 23 22 22 22
31 33 37 44 44 44 28 28 32 34 40 31 31 48 40 28 23 22 20 19 22 27 28 26 21 16 17 13 8 8 10 11 13 17 21 24 31 33 34 34 32 30 29 29 29 30 30 29 29
26 31 37 34 34 30 19 16 19 21 30 30 30 31 29 24 21 21 19 20 22 30 29 29 27 25 25 23 16 16 18 23 26 32 31 42 45 48 47 46 47 45 44 42 40 40 40 39 38
25 23 24 23 22 22 13 16 10 11 17 17 23 35 31 27 21 21 21 22 27 33 34 33 30 24 24 30 30 32 32 32 36 40 44 57 49 51 50 49 48 48 45 44 41 40 41 41 39
24 25 21 17 16 16 12 13 8 15 14 14 16 19 29 23 23 23 23 30 36 39 43 43 28 24 37 35 41 44 42 43 45 48 44 46 46 52 50 49 48 46 46 47 44 43 44 42 38
27 25 23 17 9 10 9 9 7 12 14 13 16 20 33 29 27 31 35 41 41 50 52 43 29 25 30 40 44 46 48 47 52 51 52 51 51 50 46 48 46 47 47 46 46 44 42 39 38
26 21 15 8 5 9 10 10 14 11 12 12 19 25 33 36 38 40 41 55 45 55 43 45 40 30 31 32 43 44 48 55 50 56 54 48 50 48 46 46 46 47 48 46 45 43 43 42 39
15 11 8 9 10 9 10 13 12 16 13 13 18 27 34 41 44 46 43 42 56 48 47 58 56 41 41 40 44 49 51 52 54 56 55 53 53 49 48 48 47 48 50 50 47 45 44 43 42
14 16 14 13 15 15 12 19 19 20 18 16 17 21 34 42 45 49 42 44 46 43 57 69 70 61 56 41 45 50 52 51 56 59 60 59 58 53 53 52 53 54 53 50 47 47 46 45 44
15 21 28 23 19 18 16 32 29 25 20 18 21 22 25 39 50 51 45 45 45 53 72 86 87 62 55 46 48 51 53 55 60 66 66 63 62 60 58 57 58 57 55 52 50 47 46 46 44
20 30 32 31 23 21 22 39 37 29 23 20 24 30 27 31 46 51 46 46 46 44 60 78 70 64 76 62 54 55 58 61 67 70 69 68 71 66 64 63 60 57 58 58 54 52 50 50 48
34 26 27 21 23 15 18 27 33 27 24 21 22 27 34 35 40 52 54 53 60 53 48 53 59 55 67 79 62 64 65 66 73 73 73 67 74 71 68 66 63 67 67 61 56 55 52 42 38
30 24 23 32 24 19 18 23 26 25 26 26 26 29 32 38 40 51 57 61 56 56 55 50 55 71 79 75 61 65 67 76 75 74 71 73 75 71 73 71 71 67 65 61 56 50 45 42 41
27 24 27 25 21 16 28 29 28 27 29 29 28 28 32 37 42 47 50 53 57 54 55 58 63 64 65 66 68 70 73 70 70 70 73 74 73 81 87 86 75 68 68 62 54 54 49 44 40
26 21 29 28 24 19 24 38 33 34 32 32 30 31 35 37 40 46 51 55 56 55 57 59 60 65 69 70 72 71 69 66 65 71 82 77 78 81 76 72 67 60 53 52 47 44 43 42 40
28 26 24 21 22 35 30 35 45 44 43 43 38 33 36 39 41 43 46 49 49 53 59 64 65 67 70 72 69 66 65 69 75 74 66 62 61 60 61 59 56 54 51 48 45 46 46 45 42
28 26 22 23 25 26 32 35 46 47 50 48 44 41 39 44 47 51 53 54 57 59 62 66 68 71 66 64 64 67 69 70 67 60 56 58 57 59 59 55 56 55 50 48 50 50 49 47 51
24 27 27 28 30 42 35 42 56 53 54 57 50 48 43 46 50 53 57 58 60 64 69 73 70 64 62 64 65 64 61 56 59 61 62 60 63 63 61 61 59 56 56 57 59 59 58 56 53
29 35 46 60 56 55 48 42 50 46 51 55 53 50 47 51 56 59 64 67 67 67 67 65 62 63 65 66 63 62 63 63 66 68 68 69 65 68 65 65 64 63 61 62 61 57 55 51 47
34 34 50 51 61 54 40 34 54 47 49 48 44 48 53 56 57 60 62 63 64 63 59 59 59 59 60 62 64 66 67 69 71 74 76 73 67 68 69 61 54 54 51 50 46 46 49 51 52
35 38 27 38 47 45 30 53 58 55 56 53 53 51 57 61 63 60 67 67 66 63 61 57 57 58 63 66 66 65 65 69 75 75 72 72 74 70 63 54 46 47 40 40 44 51 57 57 63
31 29 41 51 56 46 41 47 67 63 68 65 56 57 58 66 71 74 74 66 65 65 61 63 64 62 67 66 64 66 70 71 70 73 68 66 56 46 38 39 36 38 41 46 54 57 65 71 77
38 43 36 35 43 50 52 46 51 58 58 56 58 61 64 61 67 73 71 65 64 64 63 65 63 64 66 66 67 72 73 70 69 65 51 42 36 27 27 32 36 42 49 55 62 74 79 82 84
30 36 34 47 44 50 51 43 50 56 60 68 69 70 69 65 64 62 64 66 65 68 67 66 64 65 66 67 68 69 68 65 58 48 42 35 31 33 40 46 45 48 54 58 66 69 71 71 75

GFSSGP_prec_cthk_009.txt.gz
RH
16 12 12 11 15 18 34 48 57 62 57 56 56 55 55 58 64 72 84 77 68 53 51 51 47 43 41 40 42 42 40 37 39 39 37 34 28 23 21 20 18 16 14 14 15 15 15 14 13
15 15 14 18 22 28 42 51 61 56 59 59 58 57 42 53 56 61 66 68 53 48 49 45 44 43 43 42 41 37 33 35 34 31 27 23 18 17 18 16 14 12 11 11 10 9 9 11 14
20 19 14 26 27 39 37 51 55 53 52 44 45 42 40 38 46 52 62 53 46 46 42 46 47 43 41 37 31 29 29 29 25 24 22 17 14 15 15 13 12 13 12 11 10 8 8 8 10
24 30 17 31 35 43 46 53 53 55 54 44 27 37 41 43 48 47 50 46 39 39 40 38 36 31 26 21 22 23 22 22 22 21 15 13 14 15 14 13 15 15 14 12 12 10 10 10 9
25 16 23 37 47 59 50 52 51 51 46 41 36 46 51 51 42 39 34 32 28 28 23 20 18 16 16 17 18 19 20 19 17 13 12 13 15 15 14 18 20 19 18 18 17 17 16 16 15
30 25 34 37 47 54 50 47 48 50 49 56 52 44 48 31 28 33 28 28 17 16 16 16 15 16 15 14 14 16 15 12 11 10 12 16 18 18 18 20 20 20 20 21 21 21 22 22 21
25 38 39 40 50 53 48 44 42 43 47 56 52 43 43 37 24 25 24 22 16 15 15 17 16 15 13 12 11 10 9 9 9 12 16 21 25 28 30 30 30 31 30 31 31 30 31 30 30
38 34 42 49 50 51 46 34 31 36 44 42 37 40 42 34 19 22 21 18 18 18 18 17 16 16 12 8 7 7 8 11 15 18 27 31 33 37 39 42 41 40 40 37 36 34 32 32 32
40 39 40 48 43 44 37 26 20 24 28 30 30 31 34 25 20 20 20 19 23 22 23 21 18 17 19 18 14 13 18 23 27 31 36 38 39 39 41 43 40 38 37 38 35 34 33 31 32
31 29 34 32 35 36 27 17 12 21 23 28 30 31 29 25 18 18 18 19 27 30 29 27 23 20 20 24 28 29 31 34 37 37 39 41 41 43 43 43 43 43 41 41 39 37 35 34 33
26 26 26 28 26 21 20 11 11 13 14 14 20 27 28 27 21 18 19 23 24 28 30 29 24 24 27 31 35 37 39 38 44 47 46 46 49 49 47 44 42 40 41 42 41 40 38 36 35
26 25 23 22 20 14 10 9 9 11 14 15 17 20 23 24 20 20 25 30 34 37 42 42 33 22 29 36 40 41 43 45 47 50 47 47 49 49 47 46 44 45 44 43 43 43 41 39 37
26 21 21 22 17 8 8 8 10 12 14 15 17 23 26 27 29 31 33 36 40 45 47 47 45 36 33 43 48 49 50 48 48 48 50 47 49 49 48 47 46 46 48 48 47 46 43 40 38
18 15 11 6 4 7 9 11 13 13 14 16 19 25 26 29 33 37 39 41 46 49 63 62 72 64 49 48 47 47 49 48 46 51 53 50 51 51 52 52 52 52 53 53 50 48 44 42 42
16 10 11 11 13 13 14 20 21 19 20 19 20 24 29 33 36 40 42 43 41 61 58 73 84 76 74 65 55 53 58 54 53 53 56 58 59 61 59 61 57 54 54 53 51 50 50 47 45
15 21 25 29 29 20 25 29 27 29 26 20 18 21 26 31 40 44 45 47 46 44 69 68 77 75 79 73 71 66 63 60 58 60 64 64 63 61 61 63 62 59 59 60 59 57 56 49 49
31 36 36 36 27 22 25 29 32 30 27 26 22 23 25 31 37 45 49 48 51 56 59 64 61 63 72 68 73 72 70 64 64 68 70 71 67 66 67 65 63 64 66 66 65 62 58 56 51
37 36 36 35 26 21 22 31 35 30 30 27 24 25 30 33 42 53 57 53 51 56 65 67 65 73 72 73 76 70 70 69 70 71 68 65 64 64 69 72 67 65 66 68 64 58 54 51 47
37 30 34 33 26 25 22 30 33 31 30 27 29 30 34 40 39 45 49 51 55 67 63 64 62 65 73 76 71 71 76 78 74 74 70 67 67 69 66 62 59 56 50 52 52 50 47 42 43
34 31 35 26 24 22 21 30 29 30 31 32 31 35 36 39 41 46 49 56 61 66 69 70 69 64 66 68 73 74 78 77 73 70 66 68 67 68 62 60 56 50 48 48 45 43 41 39 39
28 31 32 26 23 18 24 33 32 32 37 42 40 44 40 39 41 44 48 54 63 66 66 65 63 61 64 69 73 78 76 66 62 65 70 67 63 58 56 55 53 53 52 49 49 50 48 44 46
27 26 24 22 22 28 29 43 39 38 38 40 46 45 44 44 43 43 47 51 52 52 53 55 61 65 67 71 74 71 63 64 66 66 62 59 57 58 58 59 60 59 54 55 52 49 48 51 50
26 23 22 21 25 29 31 43 52 52 54 50 50 49 54 54 47 42 42 44 47 52 55 58 61 64 69 68 64 60 63 59 55 54 56 60 61 63 64 64 63 61 58 55 53 48 47 46 47
25 28 30 33 32 43 42 49 58 58 57 53 55 56 61 50 48 48 48 50 52 56 60 62 64 64 59 57 57 54 52 51 52 55 56 57 60 65 66 67 66 63 58 57 54 51 47 51 52
28 34 51 54 61 59 45 53 68 62 58 57 58 59 55 55 53 53 57 58 57 58 59 59 59 56 56 55 56 58 60 60 60 60 59 59 64 65 63 58 54 51 47 42 39 42 47 47 46
31 33 51 56 69 58 40 56 59 57 60 64 64 61 62 62 59 59 63 66 69 69 65 60 60 59 56 59 59 56 57 63 67 58 72 68 66 63 56 48 45 42 36 34 36 40 46 48 52
36 31 29 44 45 51 48 55 59 63 64 66 68 68 69 63 56 61 62 66 70 71 70 64 61 61 62 61 61 63 68 70 68 74 75 63 61 58 50 44 30 29 29 31 34 40 43 50 56
29 28 39 44 49 44 47 60 67 64 64 65 63 65 62 65 68 69 67 68 68 66 63 62 61 59 61 60 63 65 66 71 64 64 61 55 51 45 37 29 29 30 34 40 46 50 51 55 65
34 37 32 33 45 53 59 54 54 60 61 62 61 68 69 71 72 72 70 65 62 63 60 57 58 56 54 54 53 50 49 48 52 50 43 39 34 32 31 32 34 39 44 43 42 42 42 43 45
27 32 33 47 47 57 59 48 47 55 64 67 74 76 72 72 74 69 65 64 63 61 59 55 51 49 44 39 38 42 47 56 54 51 45 39 42 40 43 37 40 40 46 47 46 46 49 47 46

GFSSGP_prec_cthk_012.txt.gz
RH
26 20 14 13 27 38 40 49 58 58 61 62 64 64 66 67 64 76 80 73 70 66 57 51 49 42 40 37 36 37 35 32 31 29 25 20 17 14 14 15 13 9 9 9 10 10 10 11 14
28 24 24 18 19 33 46 55 62 61 68 66 64 61 64 71 65 64 69 66 63 60 53 50 45 42 41 38 36 34 29 25 25 21 18 16 13 10 10 9 8 9 10 10 10 9 8 9 10
31 22 23 29 26 27 48 57 58 60 58 66 60 65 63 71 64 55 61 61 56 58 52 46 44 42 40 37 30 26 22 22 20 18 17 12 9 10 9 9 12 13 12 13 13 12 11 11 10
33 31 30 36 36 34 43 50 56 51 61 63 57 53 52 47 40 41 48 50 51 48 45 45 43 40 33 24 20 19 19 19 18 16 11 10 11 11 11 14 16 17 17 17 18 18 17 16 15
42 30 24 39 48 50 53 57 48 51 61 59 53 50 49 49 42 43 46 44 40 39 40 38 31 21 17 17 17 17 17 17 13 10 9 11 12 13 15 17 18 19 21 23 24 25 26 26 25
32 33 38 44 50 55 54 59 53 53 55 53 50 50 43 43 27 34 35 29 30 25 21 18 16 16 16 16 14 15 14 11 9 9 11 14 16 18 20 24 27 29 31 32 33 33 32 31 31
33 29 38 48 51 63 57 55 53 50 50 51 51 47 43 39 31 29 29 18 16 16 16 17 17 17 15 13 11 10 9 8 9 14 18 21 27 30 31 34 33 33 33 34 34 32 32 31 31
37 37 43 46 50 59 55 52 48 46 51 45 48 34 33 26 25 26 25 18 17 16 17 18 17 13 8 7 7 7 9 12 17 22 30 33 33 36 37 35 36 35 35 35 35 34 33 33 32
39 40 41 44 47 54 55 46 37 39 38 34 31 29 28 21 20 21 21 19 19 20 21 19 17 17 16 14 12 15 20 23 26 31 33 37 39 42 40 38 39 38 36 38 38 39 38 37 35
38 35 37 41 51 48 45 39 30 25 28 31 30 29 29 18 18 20 20 20 21 23 24 23 19 21 21 23 26 28 28 33 32 35 37 38 41 43 41 41 40 39 38 39 39 39 40 40 39
31 30 28 35 40 36 32 21 19 13 19 17 18 24 27 24 23 20 20 20 23 31 36 34 27 19 23 28 31 35 37 38 41 41 39 41 43 43 42 43 40 38 39 39 39 40 41 41 41
28 24 23 27 28 26 22 12 9 11 13 14 16 18 23 24 23 21 20 25 38 38 42 41 33 28 27 30 35 43 42 44 45 46 47 43 44 44 43 45 46 46 45 44 43 42 41 41 39
27 26 25 23 21 20 14 8 8 9 13 15 18 22 25 28 28 27 29 32 35 41 45 52 49 46 37 37 48 53 51 53 53 54 53 46 44 45 48 53 52 52 53 50 48 47 45 42 40
27 20 19 23 22 12 8 8 10 13 18 21 21 23 24 29 32 34 33 37 40 41 43 54 51 58 57 55 55 59 57 59 57 57 56 54 51 52 54 55 55 54 55 54 52 50 49 48 48
23 11 7 10 13 8 10 16 19 20 22 23 21 24 27 30 33 34 36 38 40 43 46 50 69 62 57 53 66 65 65 67 66 59 60 58 58 62 61 60 57 57 55 56 55 54 54 54 52
15 17 25 25 22 17 21 24 29 26 23 25 26 27 27 31 34 41 48 49 46 48 52 52 64 63 64 60 66 73 70 70 67 63 64 64 66 65 62 58 60 61 60 58 57 50 49 52 55
28 23 28 28 29 26 24 27 31 26 24 28 28 27 31 35 41 48 57 53 50 51 58 72 85 71 71 69 72 66 72 76 68 68 69 73 72 69 66 65 65 61 61 53 51 48 43 43 40
35 32 28 32 31 29 33 27 27 28 29 25 27 30 30 32 39 48 57 52 54 59 72 75 73 79 82 80 68 69 75 72 72 74 76 76 70 72 74 72 68 64 56 53 51 44 40 37 33
38 35 34 37 34 33 37 37 34 33 34 37 36 35 36 38 43 51 53 55 64 71 77 77 83 89 80 69 70 73 73 77 78 83 83 78 79 72 71 71 61 55 53 50 48 46 44 41 40
41 37 38 35 32 32 35 37 38 38 39 38 40 43 44 51 52 57 63 71 81 79 78 80 80 76 73 71 74 77 78 78 80 86 84 72 70 70 65 59 59 55 54 55 55 53 48 48 45
37 40 37 35 32 28 31 36 39 41 42 42 47 53 56 59 60 63 64 65 63 64 63 64 64 66 70 74 77 79 79 82 78 75 71 70 64 61 57 55 54 55 56 55 54 53 51 46 45
29 37 38 35 26 28 31 46 45 45 45 46 48 51 57 61 59 60 58 55 52 52 54 56 58 63 66 69 72 72 72 67 62 59 56 55 55 51 51 53 54 55 58 57 52 46 46 45 45
24 22 23 22 24 27 36 45 50 51 49 50 55 59 61 59 60 59 52 51 50 52 53 56 60 64 67 65 63 61 58 55 54 54 54 54 59 62 58 60 63 63 52 44 42 45 45 46 46
24 25 31 32 32 41 42 48 55 53 53 59 64 63 61 61 55 51 52 52 54 56 57 61 62 59 58 58 57 57 55 53 53 54 58 62 63 66 62 78 75 61 50 46 45 39 42 42 40
26 32 47 51 55 55 44 56 59 58 61 65 66 64 61 56 57 61 58 56 55 55 59 63 65 64 63 62 58 56 55 55 57 59 62 67 77 78 53 56 58 52 43 30 28 28 29 34 40
28 33 50 53 60 57 47 58 60 60 63 66 62 60 62 68 70 68 65 64 62 62 63 66 66 63 59 57 57 57 60 64 62 63 57 67 59 55 46 53 43 30 26 26 25 26 30 35 42
31 31 30 41 46 52 52 51 52 54 59 63 70 73 73 70 64 65 71 71 71 69 65 63 63 62 59 60 60 60 57 52 51 41 40 39 45 47 55 48 31 28 28 31 37 39 37 33 40
23 25 34 37 41 43 46 52 57 56 58 59 62 62 62 65 66 73 74 74 68 66 65 64 64 62 62 59 50 42 35 33 37 37 44 50 52 54 58 49 44 46 50 54 52 51 41 36 39
29 29 30 33 41 48 57 51 47 52 53 56 55 55 64 78 80 80 77 73 68 68 65 62 62 58 55 48 40 34 36 39 40 40 47 59 57 59 64 71 70 66 68 61 50 48 39 41 44
26 28 29 40 38 50 52 46 46 50 53 59 62 70 71 83 85 81 77 72 70 66 63 64 60 53 47 40 36 39 44 45 44 48 49 55 72 82 78 87 80 72 66 64 56 43 47 43 43

GFSSGP_prec_cthk_015.txt.gz
RH
30 32 30 31 33 38 39 40 60 63 65 68 71 71 78 81 79 83 80 76 70 73 61 59 54 48 43 41 39 37 36 32 27 25 21 17 15 10 10 8 8 8 8 9 9 9 9 9 10
37 28 33 25 32 39 50 59 64 68 70 65 69 76 79 82 80 84 81 71 70 63 59 58 54 44 42 41 40 36 31 26 23 20 18 16 9 9 7 9 11 11 12 13 14 13 12 12 11
36 32 31 26 24 37 53 62 66 68 70 72 70 72 78 78 75 75 67 65 63 62 59 55 49 42 41 42 38 30 23 21 20 17 15 9 8 8 10 14 16 16 16 16 17 17 18 18 16
42 36 33 30 26 28 42 52 58 65 66 65 68 73 66 62 57 57 56 51 51 56 54 50 45 42 42 37 26 20 18 17 16 13 8 9 10 11 15 17 17 19 20 22 23 25 27 27 26
41 30 32 36 43 44 44 57 61 63 65 67 62 64 63 62 62 58 52 45 49 49 48 45 44 40 30 21 17 17 16 15 11 7 9 11 15 18 21 25 27 28 29 30 29 29 30 29 29
38 37 31 47 50 54 57 59 62 63 65 62 61 61 59 55 60 50 44 46 46 44 42 37 28 19 17 18 16 14 14 10 7 9 14 19 24 27 30 31 32 32 32 31 30 30 30 29 29
38 36 34 49 57 61 61 64 64 63 61 61 58 61 58 56 52 45 33 35 35 28 19 17 17 17 17 14 13 11 8 7 11 17 23 26 30 33 34 35 33 32 32 31 33 31 30 29 30
29 33 41 50 57 65 60 58 61 54 52 50 46 48 50 41 33 30 22 19 18 17 17 17 16 13 9 7 8 7 9 14 19 26 29 33 35 37 37 37 36 36 37 37 37 35 34 34 34
36 39 42 48 57 54 62 55 57 51 44 40 34 33 34 27 25 24 19 16 16 16 15 14 12 11 10 10 10 14 18 22 27 30 35 37 37 38 40 39 40 39 38 40 38 38 38 38 38
40 38 43 51 55 56 52 47 46 43 36 31 29 34 32 25 20 19 17 14 15 15 17 17 16 17 16 17 19 22 26 29 32 35 34 35 36 37 38 38 41 42 44 44 42 41 43 43 41
34 35 38 39 50 52 45 41 29 24 22 23 21 27 27 23 18 19 17 14 18 24 30 29 23 20 22 23 25 28 33 40 45 42 41 41 41 40 39 39 41 44 48 48 48 48 47 45 43
37 31 32 35 47 40 28 25 22 12 15 14 15 18 21 20 21 21 19 18 30 34 35 35 28 31 33 33 34 38 43 50 50 48 49 46 45 45 43 43 43 48 51 52 51 51 51 50 47
28 27 28 25 28 27 22 19 11 9 16 18 20 23 24 27 28 27 26 29 31 32 38 45 42 48 48 47 43 47 55 56 57 54 55 54 49 48 47 48 49 52 52 51 52 52 52 53 52
28 24 24 23 23 21 13 9 8 13 20 22 22 24 25 28 31 33 34 34 34 38 42 51 53 50 54 54 50 52 56 62 61 56 57 55 54 53 55 57 57 55 51 55 56 55 53 51 50
25 23 15 21 21 14 9 10 16 20 25 24 25 27 29 35 36 38 41 39 41 43 51 62 63 60 59 63 59 61 63 63 56 58 60 59 60 62 66 65 61 55 54 57 57 54 49 48 46
26 15 25 20 16 12 12 18 22 27 25 26 29 30 33 37 41 43 45 47 49 52 62 79 82 78 75 81 87 84 81 66 66 65 65 69 70 72 72 69 64 60 59 58 56 50 45 44 41
25 28 28 29 26 24 21 29 29 29 27 28 35 35 35 35 38 44 54 64 57 59 68 83 87 85 90 91 93 89 77 70 72 70 73 75 76 76 76 74 66 64 56 53 49 42 41 39 38
23 32 27 30 28 27 27 28 28 24 28 33 36 36 35 33 39 42 50 59 63 66 81 88 90 93 92 87 84 83 76 77 78 77 77 79 77 75 77 71 62 56 51 46 42 40 39 39 39
26 31 30 32 29 32 33 33 35 31 33 37 37 39 40 42 47 50 51 54 62 71 80 89 82 83 77 70 76 82 80 83 81 76 78 87 83 79 68 60 56 54 52 48 46 43 41 41 41
39 33 31 33 35 33 36 37 39 38 40 40 41 48 54 55 58 59 64 71 77 83 82 71 75 76 78 78 81 82 82 77 74 78 79 76 70 64 57 58 56 51 48 48 47 48 46 45 44
40 39 38 38 38 39 34 40 45 47 48 50 51 52 58 60 62 68 71 72 67 67 67 65 63 67 69 71 71 70 70 71 71 69 64 58 53 53 56 55 54 54 56 57 51 51 55 48 44
39 38 38 39 40 44 35 48 48 51 56 59 57 57 63 66 66 69 62 60 58 58 56 57 57 56 59 61 63 65 65 66 64 62 59 57 56 56 54 54 56 68 67 64 57 53 43 39 39
30 30 34 36 41 39 39 45 47 52 56 58 60 62 65 67 64 62 62 60 58 57 58 59 62 64 67 66 66 65 64 62 59 57 58 56 58 60 58 54 69 61 55 55 51 36 32 33 33
27 30 33 36 36 46 44 45 50 51 54 62 65 65 65 71 68 61 57 59 61 61 57 56 60 65 69 68 65 62 59 58 59 59 56 56 62 53 55 47 51 49 43 45 35 28 27 24 24
28 32 46 48 50 52 42 49 50 49 54 60 64 66 70 69 64 65 70 75 65 62 64 63 63 66 63 61 58 59 59 58 59 54 50 45 40 43 39 41 44 49 43 35 34 35 36 33 35
29 34 49 46 54 48 43 51 51 52 56 57 57 58 62 65 76 78 68 67 68 67 70 65 63 58 55 56 58 57 53 49 44 39 33 34 35 37 44 50 57 54 53 50 49 49 47 48 49
28 32 34 45 51 54 49 45 47 50 53 54 56 60 65 72 69 60 65 71 72 71 70 63 59 57 56 56 56 50 45 41 38 36 35 35 37 42 59 68 66 66 66 68 63 59 56 61 51
26 27 34 38 38 40 43 45 47 46 48 51 56 58 58 55 55 63 70 79 80 78 71 65 65 64 62 55 48 44 41 37 36 39 37 39 41 49 51 53 64 75 77 74 72 69 64 62 52
28 26 29 33 39 44 51 45 38 40 43 46 48 49 51 56 64 70 73 78 81 77 74 70 66 63 56 51 43 37 33 36 34 34 35 42 52 62 65 65 67 74 79 78 78 69 68 52 44
24 25 25 36 36 46 46 38 34 39 42 46 49 51 56 64 68 70 76 78 80 79 70 72 66 60 55 46 42 39 36 34 32 30 32 42 44 43 47 56 61 67 74 73 75 75 62 48 46

GFSSGP_prec_cthk_018.txt.gz
RH
29 30 27 30 37 43 40 38 57 64 71 74 74 75 82 86 85 84 79 84 83 78 74 62 57 57 48 43 39 38 38 34 27 24 22 17 12 8 8 9 10 10 12 13 14 14 13 12 10
33 31 32 32 36 38 43 46 65 71 75 80 82 85 86 91 92 88 83 83 87 78 65 60 62 54 46 41 40 39 33 26 23 22 18 12 9 7 10 13 14 15 15 15 16 17 18 18 18
32 35 35 33 30 36 44 62 65 69 77 74 72 81 79 80 92 87 78 77 73 72 65 63 60 50 42 41 39 32 24 21 21 18 11 10 8 10 14 16 17 18 19 20 22 22 23 24 24
32 34 36 31 25 32 44 62 68 72 74 71 74 67 66 76 83 83 70 65 65 66 66 62 55 48 40 36 28 20 18 18 16 10 9 9 12 16 19 21 23 25 26 27 28 28 28 27 26
32 35 38 37 30 33 42 55 62 72 75 72 68 62 65 65 67 67 61 61 60 59 58 54 49 43 35 25 17 16 16 14 9 9 11 16 21 23 25 26 27 28 28 28 28 28 27 26 26
32 37 34 35 48 44 47 53 64 69 71 71 67 67 70 64 63 65 61 58 58 58 54 49 44 32 18 15 16 15 14 9 8 13 21 24 27 28 29 29 29 29 29 30 29 29 29 27 26
33 40 37 42 57 58 61 68 67 70 65 65 66 63 58 53 53 53 47 46 49 48 47 35 21 18 18 16 14 12 9 7 15 23 26 30 33 32 31 30 31 32 33 32 32 33 31 31 30
38 38 37 42 58 64 65 64 59 67 59 55 54 53 49 40 44 37 36 40 39 32 20 18 17 16 14 10 10 8 9 16 23 28 35 36 35 34 34 34 36 37 37 37 36 37 35 35 34
40 38 36 47 70 66 61 65 65 61 57 52 44 37 36 30 33 26 27 25 21 18 17 15 12 10 9 9 9 12 17 22 31 37 37 37 38 37 37 37 37 38 40 40 42 42 41 40 40
38 38 42 43 53 62 61 51 53 58 46 41 37 34 35 26 24 18 17 15 15 15 15 15 15 14 12 12 15 19 24 31 37 44 46 48 45 43 42 41 43 45 45 45 45 45 43 43 44
39 37 41 53 53 54 55 48 52 43 31 25 23 29 27 23 21 18 15 14 15 19 23 22 19 18 18 20 24 26 33 39 49 52 54 54 52 48 47 46 48 50 49 48 47 46 47 46 47
36 39 39 38 47 44 43 39 40 29 20 16 18 18 19 21 20 19 17 18 23 29 31 30 33 29 31 36 38 40 45 50 55 60 59 54 54 53 51 51 53 53 53 51 49 47 48 49 48
36 37 31 35 38 44 36 29 24 19 20 20 22 22 25 27 27 29 28 25 33 37 43 44 42 44 45 46 45 50 56 60 59 60 57 57 58 58 55 55 58 58 57 54 50 48 50 50 48
32 31 29 33 36 34 26 16 13 17 24 21 24 27 30 33 35 35 36 37 44 48 50 57 55 50 53 58 61 62 65 68 72 68 62 62 61 63 63 61 63 64 64 60 57 54 52 52 48
30 24 19 20 26 27 15 11 16 25 26 24 28 31 35 38 40 42 45 45 49 52 56 62 68 62 64 70 76 80 85 85 78 75 69 67 67 69 70 70 72 70 70 66 61 58 52 47 41
29 18 17 19 21 16 11 17 23 35 30 29 33 35 36 37 40 42 44 53 53 55 55 67 79 81 80 85 92 96 89 85 84 78 79 77 76 76 76 74 74 75 70 62 55 49 47 43 38
31 27 22 19 16 17 18 28 31 35 35 32 36 38 38 37 42 46 48 57 62 64 63 71 83 90 95 89 91 91 85 82 81 81 85 86 84 77 75 75 78 73 66 52 49 47 44 41 39
26 27 27 26 26 28 28 37 39 38 38 37 39 42 42 44 47 51 55 59 61 64 69 78 83 89 91 93 84 83 78 78 83 89 87 78 76 82 80 72 64 58 52 49 47 46 44 42 38
25 28 33 30 26 32 38 39 39 37 37 40 43 44 46 48 52 54 57 62 65 71 81 94 93 88 87 81 82 74 75 80 78 72 71 74 73 70 62 59 55 51 50 48 44 46 47 47 45
29 33 34 33 33 34 41 42 40 38 38 38 40 43 47 55 58 58 59 66 75 86 86 78 78 79 77 76 74 73 71 69 68 65 63 62 59 56 51 47 46 46 47 46 51 53 51 47 42
37 34 38 37 39 41 42 43 42 41 41 41 45 48 51 58 61 69 71 73 73 71 70 65 61 62 66 65 61 61 62 62 63 61 62 60 56 53 51 51 52 52 51 49 48 45 43 40 35
41 41 37 38 43 48 42 54 48 48 50 50 52 55 57 59 59 61 65 63 62 59 55 55 58 61 60 61 63 69 68 66 63 61 58 56 57 58 58 55 49 46 41 38 38 31 31 30 27
39 38 40 41 43 44 44 48 45 51 53 53 55 58 58 57 59 61 64 64 60 59 61 64 67 60 62 66 66 66 63 60 60 59 58 57 56 53 47 41 37 34 37 39 39 35 30 29 29
28 32 35 39 40 45 37 39 43 47 47 55 57 59 58 59 57 63 64 65 64 69 68 64 64 66 65 62 62 59 57 59 60 56 53 48 43 38 32 30 35 37 41 44 37 38 37 36 35
28 32 45 48 52 51 40 42 37 41 47 53 56 58 59 59 59 59 64 77 70 63 65 67 70 71 67 62 60 59 57 53 47 42 37 34 32 31 30 30 29 41 46 47 46 48 53 52 54
29 32 46 44 55 48 42 45 41 41 45 51 54 55 55 57 58 63 66 63 61 63 70 74 75 72 64 60 56 51 47 46 44 41 39 38 35 33 35 36 39 46 48 53 60 60 59 53 58
30 36 36 49 52 56 49 41 41 42 44 46 47 49 52 56 58 60 56 59 62 64 70 75 73 70 65 57 56 52 50 44 41 40 37 34 31 31 34 39 53 50 55 58 60 64 64 64 65
33 33 35 41 38 37 42 42 43 38 40 42 45 49 52 52 53 53 55 59 60 63 66 68 77 78 66 63 60 53 47 43 38 36 33 27 26 29 35 46 43 48 55 56 56 56 59 64 66
32 29 31 33 39 42 48 40 32 34 37 41 44 45 48 52 52 55 60 60 63 65 70 80 85 74 68 65 56 50 47 42 38 32 26 23 23 24 31 36 45 49 51 57 54 62 72 69 62
27 26 26 34 31 44 43 33 28 32 36 39 42 47 51 54 57 61 64 66 69 74 77 73 71 71 67 60 56 52 45 39 32 28 27 26 24 24 31 37 43 49 54 62 66 72 69 65 45

GFSSGP_prec_cthk_021.txt.gz
RH
23 23 24 25 28 34 36 38 51 66 74 79 71 72 72 71 71 79 87 85 84 85 83 76 72 62 59 54 47 40 37 30 23 22 19 13 8 8 10 12 13 14 14 15 16 16 16 17 17
21 24 29 29 29 31 41 45 59 75 77 85 80 80 76 78 86 90 84 83 86 84 79 69 70 68 58 52 44 41 32 23 21 19 13 9 8 10 12 14 16 18 19 20 20 21 21 21 21
22 29 32 33 36 32 40 56 61 70 77 79 81 83 81 88 90 84 84 82 88 85 79 69 72 66 56 49 44 36 24 20 18 13 10 8 11 14 17 19 21 22 24 24 25 24 24 23 24
25 33 33 36 31 26 38 61 64 63 70 77 76 75 82 82 80 75 84 92 91 82 74 70 70 61 52 46 39 25 20 18 12 10 9 13 17 19 22 25 26 26 26 25 24 23 23 22 23
23 31 34 37 31 27 36 56 64 61 64 76 72 68 73 79 74 75 93 88 87 75 70 68 61 54 46 39 27 19 18 13 9 10 15 19 22 27 28 27 27 26 26 25 26 25 25 25 24
20 29 35 37 46 42 40 53 66 68 69 69 69 71 70 66 72 76 84 83 77 71 65 62 53 47 37 24 19 19 15 9 10 18 23 27 30 29 30 31 30 29 29 29 30 29 28 28 27
21 27 37 41 49 48 46 57 72 71 63 69 73 63 62 60 63 65 69 65 63 60 57 53 47 34 21 21 20 17 11 9 18 25 29 31 32 32 32 32 32 33 33 33 33 32 30 29 30
24 30 43 45 55 57 60 69 70 71 70 63 64 58 55 49 49 48 53 49 50 50 48 38 23 23 21 19 16 12 9 19 27 31 35 34 35 35 36 41 41 42 38 36 37 37 36 35 35
23 34 43 48 60 63 63 60 67 67 63 64 57 49 39 40 37 36 40 40 39 34 25 21 21 19 15 13 12 12 19 26 33 38 41 42 44 47 46 46 47 46 47 47 45 42 41 41 40
27 43 40 43 56 63 70 62 56 65 63 52 44 40 35 31 28 27 28 26 23 20 19 20 17 16 16 15 16 20 26 35 41 44 48 51 55 53 52 51 51 52 52 53 51 44 42 42 41
37 39 39 45 54 57 62 50 53 52 50 29 29 37 30 28 23 19 19 19 18 20 22 21 20 18 17 19 24 29 37 44 48 50 53 56 59 56 55 55 55 55 56 55 55 49 45 43 44
39 37 39 46 50 50 43 45 44 35 29 23 21 24 20 20 18 16 17 20 25 31 30 31 28 24 25 31 38 43 48 54 58 59 59 59 57 56 54 56 57 56 56 56 56 55 51 49 44
40 40 39 39 43 49 44 34 32 29 25 23 23 29 26 26 27 27 24 28 35 39 43 42 42 42 42 45 49 52 57 64 69 68 71 66 62 63 59 60 61 62 63 62 64 62 56 53 49
37 38 34 37 41 48 45 27 21 27 27 27 30 34 32 34 37 39 35 37 42 48 53 54 49 52 56 60 61 61 67 78 80 81 80 82 78 76 72 71 71 69 67 66 68 67 59 53 50
35 31 29 32 34 42 29 19 19 27 33 34 40 40 39 41 43 46 44 43 49 56 57 62 72 72 71 76 81 88 88 84 84 85 88 88 86 83 81 82 76 73 71 73 63 60 57 51 43
29 22 23 23 30 34 17 17 28 37 36 37 39 40 41 41 44 48 51 53 58 62 65 69 77 80 84 83 90 89 86 80 78 82 87 86 90 88 86 82 74 74 67 65 62 60 53 45 41
26 24 21 23 27 21 14 26 32 38 38 35 39 40 39 43 48 52 54 58 63 69 71 76 83 89 91 89 86 85 90 86 81 78 80 89 86 80 78 73 81 74 62 56 51 48 46 43 41
29 31 27 21 22 20 25 39 45 45 44 43 42 44 45 47 48 49 52 58 61 64 67 73 86 93 89 91 88 82 84 79 81 81 82 76 73 70 65 61 59 56 52 48 46 46 45 42 38
27 29 32 29 31 36 40 42 43 45 47 43 46 46 48 49 50 54 56 56 57 64 71 81 88 83 83 83 73 74 74 78 71 69 66 62 60 60 61 59 55 50 48 47 46 45 44 40 35
29 33 36 36 36 33 40 43 44 37 40 43 44 47 47 51 54 53 54 60 69 74 81 81 79 72 64 63 67 70 67 62 58 58 60 60 60 59 56 54 54 54 54 52 47 40 31 27 24
35 40 41 41 42 39 38 41 43 41 38 39 40 43 46 50 53 55 59 64 67 70 69 66 65 60 62 68 65 64 59 56 58 59 59 59 58 57 55 53 52 48 43 38 34 30 28 26 25
40 39 41 43 44 45 39 34 46 47 46 45 46 50 54 57 56 56 56 57 63 65 62 60 60 61 67 62 66 62 58 58 59 60 60 60 59 56 50 45 40 34 29 27 27 29 30 29 30
45 43 40 36 36 37 38 39 41 48 48 49 51 53 56 58 56 55 57 60 62 59 59 63 61 59 62 62 61 63 61 61 60 61 60 57 51 42 35 31 27 25 24 27 33 33 32 35 37
39 37 40 40 37 37 37 37 35 45 42 48 51 54 56 55 56 57 58 57 58 58 54 58 58 59 66 69 71 71 64 60 54 51 47 41 37 34 32 32 31 29 30 37 43 43 46 48 44
33 31 38 40 41 38 38 37 27 32 39 47 50 52 53 55 55 55 56 59 59 55 56 57 60 64 70 73 69 64 57 52 48 44 41 42 39 35 30 27 29 33 41 50 49 48 49 41 41
30 30 38 40 44 39 38 38 31 35 38 48 49 49 49 49 51 54 57 58 55 53 57 61 64 65 65 63 61 61 60 55 53 51 46 40 35 29 24 24 29 36 45 43 48 44 40 42 42
31 31 33 42 48 45 37 35 33 36 38 43 43 44 46 48 52 56 55 53 54 58 59 60 61 63 63 77 73 70 64 52 51 47 41 35 28 25 22 24 31 36 34 38 42 43 47 48 50
32 31 36 39 40 36 32 35 28 31 32 36 39 40 44 47 52 50 51 53 56 57 59 63 67 72 72 66 62 62 52 53 52 46 38 30 26 23 22 22 30 35 39 46 50 51 50 51 58
35 34 32 32 34 30 32 22 24 25 27 30 33 38 43 46 49 51 54 56 59 61 67 71 66 75 68 68 65 54 56 56 49 39 31 30 28 26 24 25 30 37 41 48 50 53 54 60 66
32 29 27 30 29 36 33 22 21 24 26 30 33 37 40 45 48 52 56 61 65 69 74 70 73 70 72 66 59 58 56 51 42 33 34 33 30 27 25 26 31 37 42 50 51 53 65 73 70

GFSSGP_prec_cthk_024.txt.gz
RH
19 22 21 25 29 28 32 35 58 65 71 72 69 69 72 70 68 72 76 82 82 84 86 80 79 69 58 54 51 45 39 31 23 21 15 10 7 9 11 13 14 16 17 18 18 18 19 19 19
17 19 23 29 30 31 36 34 44 66 71 69 70 72 71 72 75 78 85 87 88 86 81 82 76 66 63 58 53 47 35 25 22 17 13 8 10 12 15 17 18 20 21 22 22 23 22 22 22
17 20 28 30 31 34 39 60 61 61 66 71 75 74 76 79 84 84 86 88 87 84 88 82 75 69 69 61 55 42 28 23 19 14 9 10 14 17 18 21 23 23 23 23 22 22 22 22 22
20 24 28 32 33 33 40 67 65 63 62 68 76 77 81 78 84 77 82 90 92 91 93 82 76 75 69 61 50 34 24 20 14 11 10 17 19 21 25 24 23 24 24 23 23 24 23 24 23
22 27 32 35 35 35 32 55 60 65 64 61 65 72 75 78 75 70 77 83 94 94 95 86 81 79 71 60 37 26 21 15 12 11 18 21 25 28 27 25 26 26 26 28 28 27 27 26 25
23 24 29 33 42 44 36 57 57 67 63 66 69 73 76 74 74 77 77 92 92 85 88 88 82 76 71 42 27 22 19 13 11 19 24 29 30 29 28 29 30 30 31 33 33 30 29 30 28
26 20 27 38 54 50 49 53 61 66 67 67 68 74 74 75 76 76 76 79 81 81 81 84 74 70 57 27 25 23 15 12 18 27 34 34 33 33 33 36 37 39 39 39 39 37 35 36 36
28 21 26 43 58 53 55 62 62 69 68 76 78 68 72 61 59 68 78 76 73 70 74 73 66 50 31 28 25 19 11 17 30 36 40 38 37 38 40 46 47 47 45 47 45 45 43 40 39
26 23 29 50 56 53 57 62 74 73 72 75 73 65 51 59 53 55 67 67 65 66 62 48 34 32 34 28 20 15 14 28 36 42 45 46 50 47 51 51 50 50 51 51 49 48 46 43 41
28 26 31 47 58 58 62 63 68 70 75 71 65 52 44 47 46 49 51 54 53 47 34 29 30 29 24 21 17 15 26 41 48 52 53 54 54 55 53 54 54 52 54 55 54 50 48 48 47
26 33 32 41 58 58 53 55 58 53 65 52 40 44 40 42 41 45 42 42 40 33 30 27 25 21 20 24 24 29 38 48 52 56 58 59 62 60 60 59 53 53 55 58 57 57 57 52 49
35 32 41 48 56 52 53 45 45 46 49 31 34 37 29 33 32 35 36 36 31 34 34 31 24 21 20 25 29 35 50 55 62 61 62 67 72 68 67 64 61 61 61 60 60 59 56 55 51
33 38 39 43 50 50 47 44 42 42 36 26 24 28 29 33 34 33 36 39 40 39 38 37 30 28 28 32 39 46 54 61 64 69 78 79 77 72 75 73 73 72 73 68 65 63 60 54 51
39 41 39 42 46 57 46 34 33 35 34 32 30 34 37 38 39 35 36 42 42 46 50 46 49 48 50 52 58 64 70 70 71 75 84 94 87 87 86 83 79 81 77 74 72 65 59 54 54
40 37 38 40 45 51 46 26 23 28 35 42 43 42 45 45 47 43 39 44 47 55 60 60 65 66 73 78 75 77 76 76 76 78 85 94 91 93 93 90 84 80 73 72 68 64 60 54 51
36 32 31 30 37 40 37 23 24 28 36 40 47 48 49 49 49 49 48 47 53 63 73 74 82 86 86 90 94 90 89 82 87 81 80 86 88 91 90 84 74 70 63 60 62 58 52 50 46
31 27 28 27 30 32 25 23 30 34 38 42 48 50 52 52 51 53 53 58 62 67 69 76 82 83 88 93 92 81 84 85 83 83 82 82 82 84 72 67 62 58 56 53 53 52 48 42 42
29 29 23 24 30 24 20 35 38 40 39 44 47 47 47 50 51 49 53 59 65 69 68 73 78 86 96 86 81 73 71 77 79 79 74 68 64 62 58 57 55 53 52 51 50 47 45 45 43
31 34 30 24 25 25 25 40 44 47 47 48 46 44 46 48 49 49 52 55 60 64 68 74 84 91 87 75 71 70 74 73 69 64 58 58 58 56 55 56 57 55 55 52 51 50 44 40 35
29 31 37 38 36 32 33 38 39 41 47 48 44 44 45 49 51 53 55 58 60 68 74 80 83 79 74 71 67 69 68 63 58 56 59 60 59 63 64 64 62 56 52 48 42 34 29 31 33
33 35 40 40 37 36 34 37 37 37 36 37 41 40 44 46 48 51 56 62 68 71 71 73 73 73 67 63 62 57 57 58 60 64 65 65 66 65 62 57 52 43 37 32 30 31 30 32 28
37 37 38 41 41 42 39 37 37 39 40 37 37 39 40 46 53 57 59 59 62 65 72 68 62 59 56 54 56 57 62 66 65 68 72 69 62 58 51 43 36 35 32 31 34 32 34 36 34
40 38 36 32 39 39 36 32 44 40 39 43 41 43 49 54 55 58 58 60 62 61 58 54 51 50 51 54 60 64 70 73 71 69 65 63 54 50 46 41 37 35 35 37 34 35 41 43 42
38 39 44 41 41 40 35 31 31 35 33 39 45 45 51 54 54 55 56 57 57 58 54 50 51 51 56 60 64 68 66 66 64 65 66 60 59 54 52 49 43 34 31 33 36 43 47 48 43
38 41 38 41 38 33 31 27 22 26 29 34 41 46 50 52 54 55 53 53 55 54 54 54 54 59 61 64 63 59 65 72 64 62 58 59 53 48 44 35 33 37 36 37 46 47 46 46 45
37 41 36 30 32 31 32 28 29 28 31 37 43 46 48 49 50 49 51 56 56 56 57 57 59 60 60 58 62 67 74 67 62 54 50 48 44 38 33 31 31 36 40 43 47 47 47 53 53
33 32 32 34 39 37 28 28 27 29 30 36 41 43 45 46 48 50 54 56 55 53 56 59 61 62 62 65 68 70 68 60 59 54 51 44 40 37 38 33 35 40 47 48 47 47 47 60 57
30 29 31 32 40 32 24 24 23 26 26 31 36 38 40 42 46 50 54 53 52 54 58 61 63 67 64 67 66 65 63 61 57 53 45 40 40 37 34 32 32 35 40 46 47 46 53 61 56
32 30 30 31 31 25 21 16 17 19 22 26 31 35 38 41 45 49 52 51 53 57 60 63 64 66 66 76 73 62 62 58 55 49 43 42 40 39 35 32 29 35 42 44 43 47 57 56 58
29 31 29 26 26 30 28 17 16 18 20 24 29 33 37 41 44 48 52 52 55 59 62 63 63 68 79 79 60 63 59 59 52 48 45 48 46 42 35 33 37 37 39 41 52 55 53 60 67

GFSSGP_prec_cthk_027.txt.gz
RH
16 20 24 25 26 24 27 33 39 59 61 62 66 63 69 76 78 81 81 80 80 81 77 70 70 71 64 61 55 49 38 30 22 19 14 8 9 11 13 15 16 16 18 18 19 20 20 19 19
20 19 22 28 26 32 27 30 34 57 71 63 67 68 69 72 75 79 83 88 85 89 84 79 78 76 68 59 60 51 37 24 21 16 11 9 12 15 17 18 20 21 21 22 22 21 20 20 20
19 18 24 26 28 30 31 53 59 62 70 59 66 69 70 76 76 79 83 83 90 90 89 85 81 80 68 69 66 50 30 23 18 13 10 12 17 19 21 23 23 22 23 23 22 23 22 21 21
23 23 25 27 33 31 35 51 51 68 57 56 62 64 73 72 74 73 83 86 91 87 90 94 87 82 74 76 65 43 25 21 16 11 12 19 20 25 25 24 24 25 25 25 25 28 27 23 23
24 26 28 30 33 34 32 49 72 58 68 63 61 68 64 64 74 79 83 85 86 93 88 94 94 88 84 83 63 31 23 18 14 12 18 22 26 27 26 26 27 28 29 30 31 31 32 29 30
24 25 30 30 30 36 37 54 54 64 68 69 65 71 73 70 66 79 85 91 94 92 88 89 95 89 86 74 44 26 20 15 12 16 23 30 30 29 29 29 31 33 35 39 39 38 38 37 32
27 26 25 27 36 49 45 53 69 52 56 74 63 72 70 70 67 78 83 89 88 88 93 89 89 90 82 59 29 23 17 14 13 23 33 33 32 33 33 33 36 39 43 44 44 45 43 41 38
26 31 24 29 45 59 57 59 54 59 75 65 55 77 59 57 70 84 86 95 86 98 96 92 93 83 63 36 26 22 15 13 21 32 38 36 35 34 39 40 41 45 49 49 48 46 46 44 44
29 29 25 30 47 64 49 61 56 55 55 57 60 71 60 53 69 78 92 99 98 97 86 91 87 73 44 32 27 20 14 18 30 37 41 41 51 50 52 47 46 50 52 51 52 52 52 53 51
29 27 26 35 52 50 61 57 55 57 60 67 66 64 51 52 60 66 76 91 94 84 75 72 60 56 52 35 23 17 15 29 42 49 49 58 56 63 60 53 52 53 52 51 53 57 58 57 58
26 35 38 37 49 60 55 50 52 62 69 80 67 53 49 50 53 64 63 71 71 67 37 32 40 37 31 27 24 24 33 45 50 56 57 61 65 70 72 76 69 70 64 70 68 67 63 57 55
31 39 38 34 58 51 44 53 54 64 72 75 51 49 44 45 46 49 51 49 39 29 30 36 34 28 30 27 33 38 51 54 53 58 59 67 73 77 85 86 77 77 77 72 72 72 65 64 58
32 39 38 42 53 47 59 54 53 66 39 45 40 38 35 36 42 43 43 42 36 40 42 40 31 28 27 34 38 48 54 61 63 66 70 73 76 79 79 83 84 87 82 80 78 73 68 66 60
38 39 37 38 52 51 47 53 57 32 39 36 35 38 40 41 47 43 43 46 47 46 42 41 41 40 41 51 55 62 66 62 65 68 71 74 80 83 82 86 90 95 89 84 74 63 57 57 59
40 39 41 43 51 43 61 34 36 30 47 42 39 40 47 47 41 38 43 47 48 53 54 55 53 62 70 69 70 70 68 67 67 72 75 75 78 83 86 86 89 89 83 69 57 52 53 51 51
40 39 41 43 46 49 51 38 21 32 42 47 46 44 49 49 47 42 48 52 57 63 66 67 71 74 78 77 79 79 74 73 71 74 72 76 81 81 85 84 79 70 62 55 54 53 50 49 46
40 37 36 33 35 35 46 42 23 29 41 51 48 50 49 47 48 50 52 59 63 68 73 72 71 73 77 82 88 75 76 76 73 79 74 78 80 74 69 62 57 55 54 52 51 51 48 48 45
38 33 31 33 31 39 31 36 24 32 40 51 55 52 53 52 55 54 56 59 60 66 68 66 69 73 78 85 80 73 71 75 78 70 69 65 60 58 58 53 51 54 56 56 54 50 46 43 39
36 39 26 29 29 31 28 34 30 37 41 50 53 54 52 54 57 58 57 63 66 65 66 69 72 77 83 86 78 76 75 75 67 61 57 54 53 53 54 58 61 62 63 58 53 46 39 37 34
34 33 34 30 21 24 25 33 42 45 48 49 47 47 50 55 56 58 59 60 63 62 67 72 76 80 86 76 72 71 71 61 59 56 54 57 59 63 66 67 69 66 59 49 41 42 38 37 33
36 35 38 36 32 29 38 45 36 34 40 41 43 48 49 53 56 54 56 59 63 65 70 76 76 75 69 68 64 59 58 54 54 58 62 65 66 66 68 66 61 54 47 45 42 41 40 35 35
42 33 39 37 34 37 33 34 46 37 31 37 41 44 47 48 51 55 58 61 63 65 64 66 70 67 61 56 54 56 60 65 67 69 69 66 64 65 58 55 52 48 46 46 45 42 40 38 43
58 37 37 38 33 53 43 32 47 58 44 34 36 38 42 44 47 53 58 60 60 63 64 67 62 58 54 53 56 60 63 66 69 69 71 70 66 57 54 53 52 51 48 47 44 42 41 44 44
38 38 37 36 37 40 30 41 36 49 46 42 36 36 41 44 46 51 57 57 60 60 59 57 55 53 53 53 56 60 62 62 59 69 77 70 59 56 53 50 43 41 44 46 46 49 48 48 46
37 41 46 50 46 42 39 37 31 30 37 41 38 38 44 41 43 47 48 51 55 56 54 54 52 53 53 54 55 57 57 64 70 78 66 59 56 54 50 42 40 39 41 40 49 44 54 46 54
38 44 51 44 39 34 39 28 28 28 24 31 38 41 44 42 43 44 46 48 52 55 54 52 52 53 54 55 58 60 63 66 69 63 57 54 53 49 44 43 43 43 43 43 48 50 53 53 57
43 35 37 43 43 33 19 24 31 21 23 30 37 41 43 42 44 47 48 49 51 52 54 52 53 53 53 57 62 62 65 68 73 63 53 55 51 46 43 45 45 43 41 44 51 55 51 53 49
30 36 33 31 40 36 29 29 30 29 21 25 33 35 40 42 41 42 43 46 48 50 52 52 54 53 57 59 60 63 71 81 75 59 54 52 46 47 48 50 48 46 44 47 45 46 40 56 60
38 28 26 33 40 41 28 26 26 16 19 22 28 34 35 38 41 41 43 48 49 52 53 53 55 57 59 60 62 69 76 74 58 53 55 52 50 51 53 52 50 51 50 47 42 37 38 48 69
29 35 35 34 35 31 33 24 19 14 17 21 24 29 33 35 38 41 43 48 51 53 54 55 58 60 62 63 67 79 75 52 54 57 55 51 54 57 57 54 50 51 48 49 45 40 35 56 68

GFSSGP_prec_cthk_030.txt.gz
RH
17 18 20 24 23 24 21 19 44 68 63 55 55 57 62 65 73 82 87 97 88 81 70 68 68 67 63 60 61 56 44 29 22 16 10 8 9 12 14 15 17 18 19 19 19 18 18 18 18
18 22 24 25 25 26 24 46 61 48 54 53 49 51 54 62 70 80 84 82 79 77 76 72 73 73 69 72 65 57 40 25 20 13 9 10 13 16 17 19 20 20 20 20 20 20 22 21 19
20 21 20 25 26 23 30 47 60 55 51 45 45 54 56 59 69 75 77 77 81 81 80 75 78 80 83 76 68 57 38 24 16 11 10 13 18 20 22 22 21 21 21 22 22 24 26 25 24
23 21 22 27 28 28 37 57 49 56 54 58 52 48 47 50 65 70 78 86 90 85 84 84 89 90 89 78 73 61 34 20 13 10 12 18 21 23 23 24 23 24 25 26 28 30 31 31 29
27 25 25 26 26 32 35 42 43 53 57 64 67 68 54 51 58 74 76 84 90 89 92 92 93 95 90 84 74 53 27 17 12 11 16 22 25 25 26 26 27 28 29 32 34 37 38 38 34
30 25 31 31 28 30 34 34 45 55 65 66 78 68 58 56 56 74 87 90 96 95 93 94 94 93 91 83 68 46 25 17 12 14 21 27 27 28 28 28 31 33 35 37 39 40 41 41 41
33 28 27 28 30 37 44 48 55 63 85 64 55 64 72 68 62 67 81 97 97 96 92 96 93 93 84 71 55 38 22 15 12 18 28 28 29 30 31 32 34 38 40 43 43 44 44 45 45
30 31 31 28 25 44 54 63 57 55 59 62 60 59 70 70 66 69 80 93 98 98 96 91 97 84 73 62 49 36 27 19 19 27 29 30 32 33 33 34 39 42 48 47 46 48 49 53 52
30 29 30 26 24 52 53 64 76 60 56 54 52 54 66 65 59 83 96 96 95 97 91 98 95 84 71 49 27 23 17 16 23 28 34 39 41 42 46 43 44 47 50 49 52 51 55 57 54
30 30 27 37 45 60 52 64 80 61 61 62 65 72 68 58 68 81 91 92 92 95 97 82 78 65 51 31 26 20 19 23 29 35 45 53 55 55 52 54 55 54 56 60 62 63 63 63 61
31 30 35 45 51 53 53 57 57 60 70 66 74 70 54 67 65 79 95 95 94 83 58 58 46 41 44 32 22 22 26 34 46 53 49 63 53 61 65 82 81 68 71 70 69 70 68 64 61
32 31 37 41 51 51 53 62 52 55 54 68 68 70 55 52 54 71 72 78 68 52 38 35 37 38 31 24 27 31 41 43 45 53 56 60 65 69 74 75 82 77 81 77 79 79 72 64 57
31 38 37 41 48 51 48 57 58 58 63 69 62 62 42 42 48 50 49 50 34 31 38 33 29 30 27 33 36 48 44 54 55 63 64 66 69 73 70 71 73 71 78 82 83 79 68 59 52
28 40 41 33 50 47 55 64 56 64 54 52 48 35 36 37 41 43 43 32 35 38 40 38 36 35 41 46 53 60 61 59 63 65 67 71 69 68 70 75 77 74 74 71 70 63 61 52 46
44 37 37 33 46 51 54 58 41 55 49 53 46 38 37 46 44 39 43 41 46 47 48 48 50 57 66 65 64 65 67 64 65 68 65 63 61 59 66 68 70 72 68 64 66 57 48 46 43
43 40 39 39 46 42 51 58 32 44 40 42 42 40 41 39 40 42 43 49 52 51 53 56 61 66 67 70 73 68 70 66 61 63 59 56 59 61 65 65 72 59 54 49 46 48 47 44 43
40 44 47 41 39 52 49 43 29 33 46 46 46 42 40 40 37 38 47 51 55 57 60 64 69 68 70 72 74 72 70 65 62 61 57 58 61 63 60 52 48 45 45 46 49 50 51 48 37
45 45 43 37 32 40 45 48 34 30 49 45 48 46 46 41 44 44 44 48 53 58 62 65 69 69 74 73 78 80 70 61 59 57 58 58 53 48 46 46 45 47 52 55 56 55 51 43 35
41 40 39 33 30 34 40 38 33 25 37 51 52 52 48 46 46 46 47 48 49 53 56 60 65 72 72 76 81 72 57 54 54 55 54 47 45 45 47 50 53 57 60 57 50 42 38 36 36
45 42 37 31 19 29 32 34 30 25 35 44 49 49 50 48 48 48 49 54 56 57 58 64 68 72 71 79 69 58 55 52 51 48 46 47 50 53 57 59 61 59 49 45 42 37 35 36 36
39 39 41 36 24 14 34 24 33 29 34 41 43 46 49 53 50 51 51 54 55 60 63 65 69 69 71 68 57 56 52 49 46 47 48 53 60 63 61 63 59 49 48 45 38 35 38 38 36
43 44 42 41 41 26 36 42 54 54 36 33 38 38 43 49 49 51 51 54 57 59 64 66 68 63 62 61 58 53 50 50 52 55 56 60 62 64 65 58 52 53 47 38 35 37 41 40 38
45 40 42 37 39 46 49 53 49 54 44 43 45 43 44 47 47 49 47 50 53 58 61 59 63 60 62 57 54 51 54 56 58 60 65 63 67 67 61 55 54 47 42 35 36 44 46 44 42
37 35 35 36 40 58 48 59 55 52 52 62 51 50 44 40 42 46 50 48 53 53 53 58 61 59 54 53 52 53 53 55 56 59 63 64 67 65 58 52 44 40 35 35 37 43 48 47 44
30 39 48 70 68 51 38 39 40 43 60 53 45 44 44 37 43 48 52 48 49 51 53 56 53 51 51 51 49 50 52 54 56 59 61 70 71 63 57 44 41 39 37 39 39 47 48 47 46
37 36 54 79 81 55 44 39 35 30 33 41 45 44 42 43 43 44 47 51 53 51 51 51 49 49 50 48 46 49 53 57 59 62 66 73 67 66 52 42 47 41 41 41 45 50 50 49 52
46 39 42 47 52 44 24 19 23 29 25 22 31 35 40 41 40 41 43 46 47 47 47 47 48 49 48 46 47 52 56 57 60 66 73 66 66 50 45 47 43 47 47 47 46 47 50 47 47
27 32 35 33 37 35 32 33 44 42 37 20 30 34 38 40 38 37 39 41 43 44 46 48 49 51 48 47 52 56 59 61 64 68 75 74 52 44 46 46 52 53 51 54 56 50 43 43 40
36 34 27 26 42 52 45 40 36 31 25 19 28 34 34 36 35 34 36 39 42 45 47 50 52 54 49 51 55 59 63 71 67 68 68 64 53 48 48 55 58 55 56 56 53 50 40 38 40
32 42 37 46 31 39 41 31 31 24 17 19 21 31 33 33 35 36 36 39 41 45 49 50 55 55 53 53 59 63 67 77 67 63 76 75 63 57 57 64 63 57 56 57 55 46 49 46 48

GFSSGP_prec_cthk_033.txt.gz
RH
22 19 21 25 26 24 27 26 36 47 47 48 53 57 59 61 68 65 65 73 78 81 82 79 76 72 66 64 64 59 49 39 29 18 10 8 10 12 14 16 17 17 17 17 17 17 17 21 22
23 24 27 25 23 26 27 44 55 50 56 58 54 53 58 63 59 64 66 72 75 76 83 79 79 71 72 71 67 61 50 40 28 17 11 9 12 15 17 18 17 18 18 19 19 20 20 22 26
23 26 25 21 22 27 33 58 49 52 52 50 50 48 49 61 64 68 69 75 78 75 79 80 81 76 78 78 71 62 47 37 27 17 11 13 15 18 18 19 19 20 22 22 23 25 26 29 28
24 24 21 21 25 26 34 45 53 58 57 59 56 53 55 59 60 64 68 76 80 80 81 85 84 84 88 82 74 59 45 33 22 15 12 17 19 19 20 21 23 24 25 26 28 31 33 34 33
29 27 23 22 24 33 36 49 47 58 55 65 61 58 62 57 59 63 74 78 85 84 83 87 87 91 88 82 74 58 45 29 20 15 16 20 21 22 23 26 26 26 28 30 34 36 37 37 38
31 26 26 26 32 36 47 59 52 51 51 54 54 62 66 58 58 71 88 91 96 90 87 89 93 89 87 85 70 58 40 26 17 16 20 22 24 27 28 26 28 30 33 35 37 41 43 45 44
32 31 30 27 28 33 55 57 65 64 56 57 54 58 62 69 61 67 85 98 99 95 92 95 96 93 88 81 64 53 31 24 24 24 25 26 29 27 26 28 29 33 36 40 43 46 49 49 47
33 35 31 27 33 45 65 63 64 77 69 65 58 65 68 78 73 69 79 98 98 98 95 91 92 84 77 66 51 39 28 20 20 24 26 26 27 28 28 30 33 39 43 46 46 51 54 54 54
33 35 28 31 42 58 62 67 67 70 78 68 58 54 64 81 86 72 89 95 100 99 97 94 91 89 75 58 43 31 25 21 23 23 27 29 33 37 36 38 42 45 48 52 59 62 58 58 56
34 33 30 37 55 53 59 63 63 59 68 71 64 68 77 78 77 81 86 92 96 94 89 89 84 73 57 42 28 20 14 17 21 26 31 36 43 47 48 52 56 59 63 67 66 66 66 65 61
31 30 35 41 56 48 46 50 52 55 65 69 80 82 87 71 83 81 79 81 70 68 62 75 72 55 37 28 22 17 19 22 24 31 42 49 54 56 58 69 69 72 68 71 70 73 73 69 65
30 35 39 45 52 59 47 49 44 51 52 54 71 71 79 75 78 88 77 66 56 57 53 50 47 38 31 21 19 20 23 28 39 43 52 61 58 60 62 67 69 68 72 73 71 74 71 71 63
34 36 37 45 48 73 58 51 46 53 53 61 72 64 69 77 68 75 72 52 43 40 44 45 40 34 25 26 30 36 40 41 47 50 57 68 60 62 67 66 68 68 69 71 73 63 60 57 49
33 38 41 43 53 63 59 54 50 55 44 43 51 53 53 58 48 51 43 32 33 38 41 45 43 40 43 45 50 59 55 60 55 61 59 61 57 56 57 61 62 64 64 66 59 56 49 45 45
40 40 45 38 45 56 54 59 55 42 44 32 36 33 41 52 45 47 39 36 38 43 46 44 48 51 53 53 59 65 70 62 66 62 55 51 53 54 55 57 59 61 63 60 51 45 42 41 39
41 38 39 36 43 51 45 56 55 51 41 40 42 41 52 52 45 46 42 42 43 46 47 44 50 52 53 55 60 62 63 58 57 55 49 53 51 53 55 60 57 50 45 41 40 41 41 43 40
45 42 38 41 44 45 48 47 39 45 45 42 40 39 43 44 44 44 43 47 52 52 53 50 52 55 60 56 60 64 62 58 56 50 50 50 50 54 57 53 47 44 41 41 45 46 44 36 33
44 44 44 45 43 41 46 43 38 45 41 39 38 38 39 39 40 41 41 42 44 48 52 54 54 55 61 60 63 68 64 51 51 48 48 53 53 50 49 45 44 46 50 52 51 44 41 36 31
50 46 45 42 36 39 45 43 36 40 38 37 37 39 42 40 41 42 42 39 42 45 47 45 55 55 64 59 65 70 58 57 53 52 49 52 48 44 45 47 51 55 56 54 47 41 39 33 30
54 48 47 40 35 34 39 39 36 33 34 44 47 46 44 44 40 43 42 39 41 42 49 55 61 62 64 65 71 68 64 61 52 49 48 46 45 48 52 56 56 58 54 48 43 40 36 32 32
54 53 44 39 29 23 35 36 42 32 31 41 44 40 40 42 42 43 43 40 43 48 55 58 71 63 65 65 68 66 60 53 49 49 45 46 47 51 54 54 57 58 56 48 42 37 35 35 36
48 52 45 40 39 25 33 47 44 43 39 44 48 46 46 47 47 47 47 45 43 53 56 58 59 60 62 64 64 58 53 48 46 44 47 51 54 56 54 58 64 57 53 51 44 37 36 36 36
48 47 44 44 50 50 38 43 43 50 48 47 52 46 47 46 47 47 51 49 53 51 55 56 56 59 59 58 59 53 51 46 45 47 49 52 51 50 56 62 64 57 52 52 39 34 37 40 42
42 39 41 47 48 55 41 46 53 54 47 48 47 43 49 49 53 58 53 51 51 50 50 52 56 56 59 57 54 53 51 46 46 51 56 57 59 59 62 65 62 56 53 39 33 35 38 42 46
38 40 52 55 64 61 53 57 52 45 40 39 34 36 41 48 54 53 48 48 50 48 48 53 53 54 55 51 50 50 46 48 53 59 60 63 63 64 64 66 63 55 36 33 37 41 44 44 47
40 46 63 72 76 59 55 59 44 41 39 35 35 34 33 39 44 41 41 43 43 45 45 47 49 49 47 48 49 50 49 52 55 56 60 65 66 66 63 67 60 45 42 43 42 44 48 51 53
47 47 46 59 63 64 42 29 42 34 36 42 36 27 34 37 35 35 38 41 43 42 44 48 48 46 46 47 49 51 55 58 59 61 62 74 76 65 61 56 64 63 54 47 48 53 54 52 54
34 46 49 48 43 40 28 39 51 46 53 48 34 33 32 32 36 39 40 40 41 43 45 47 47 48 47 48 51 55 61 62 64 65 73 69 71 76 67 53 57 56 52 48 57 59 57 55 54
36 36 36 32 40 50 56 48 42 43 38 42 41 33 34 34 34 33 34 35 37 40 41 44 47 49 50 51 54 57 65 66 69 73 72 78 80 86 64 56 59 63 58 55 60 58 56 54 50
32 34 45 50 35 45 49 38 37 34 32 30 30 32 33 35 34 34 34 34 34 36 38 41 47 51 53 55 56 61 69 71 72 78 76 80 85 81 70 64 62 63 65 61 62 59 62 61 58

GFSSGP_prec_cthk_036.txt.gz
RH
22 19 20 22 27 27 31 30 27 35 41 44 49 64 67 70 65 59 63 66 69 66 69 76 74 75 70 64 62 58 52 44 38 27 20 17 10 11 14 15 16 16 16 16 16 18 22 27 27
18 21 24 25 26 31 31 32 43 51 54 54 53 56 60 69 67 65 65 70 68 70 69 70 73 73 64 66 64 58 47 43 37 31 23 18 12 14 17 16 16 17 17 18 18 21 25 26 27
17 23 27 24 24 29 28 48 56 56 51 51 49 48 58 65 65 67 66 67 71 75 78 81 77 65 67 70 67 55 46 42 40 33 26 24 20 18 16 19 19 20 20 20 22 24 26 30 32
20 27 24 22 23 26 32 37 45 52 53 52 52 54 59 63 61 58 63 67 76 77 80 79 78 76 77 72 62 54 51 46 36 32 27 25 19 19 20 20 22 22 23 24 26 28 30 31 35
23 27 23 23 24 34 41 43 40 54 58 54 50 57 62 66 62 63 66 69 74 76 82 81 83 81 83 76 64 60 53 42 33 27 26 21 19 21 23 23 24 24 26 28 30 33 36 37 36
29 29 28 27 30 34 50 51 58 65 71 66 61 58 66 65 64 70 76 88 86 90 88 91 91 88 87 75 69 59 46 37 29 30 27 23 27 26 24 25 26 27 30 33 37 40 41 40 42
34 32 33 28 37 37 46 55 64 75 70 67 62 61 70 73 72 69 80 98 96 99 98 98 96 93 88 80 70 60 49 37 29 20 19 20 21 24 27 27 29 32 34 38 41 44 50 49 48
35 33 29 32 36 41 56 63 66 72 70 71 65 71 77 77 74 76 86 96 95 95 98 98 96 90 89 82 66 50 36 34 35 30 26 22 28 28 29 31 32 38 41 43 47 54 57 57 55
37 36 33 37 40 55 58 61 62 65 70 65 66 69 72 78 73 82 85 92 94 96 95 92 90 86 77 67 55 44 34 32 30 28 28 31 29 29 32 35 39 44 50 56 58 62 63 62 60
36 37 35 35 46 58 60 57 55 56 58 62 65 71 76 86 84 81 85 88 87 92 94 84 72 70 67 51 40 32 27 23 22 23 24 31 37 43 46 46 50 51 58 66 62 63 64 65 67
36 34 38 38 45 55 58 56 55 54 55 64 67 69 78 89 89 77 69 74 87 83 70 63 66 64 46 32 26 21 19 22 26 27 32 43 49 52 56 55 59 61 62 61 65 67 68 66 61
32 35 40 43 48 57 57 61 59 57 55 68 68 61 71 80 80 70 54 50 51 55 57 65 61 50 37 27 24 23 20 23 30 44 51 51 54 54 57 60 63 61 60 60 63 63 66 65 50
34 38 42 43 47 49 61 64 59 56 52 69 68 62 61 73 72 61 46 48 46 47 52 47 45 41 32 27 27 31 35 39 39 50 55 55 59 63 57 53 52 56 56 58 59 61 54 49 43
38 39 45 42 49 51 61 60 54 52 47 59 70 65 56 61 59 53 38 33 31 38 44 45 50 44 41 45 45 49 51 48 53 58 58 55 54 54 55 52 53 54 57 58 58 54 44 39 36
42 43 47 52 52 52 57 58 58 47 38 40 46 41 47 61 45 39 32 29 34 39 44 45 48 47 47 51 54 59 58 66 60 63 61 52 49 48 51 52 53 54 56 53 46 38 36 38 37
37 41 49 51 49 50 49 53 58 46 39 36 41 42 57 48 44 41 36 34 38 44 48 51 52 48 53 54 53 59 62 65 62 58 48 46 42 48 50 51 53 53 49 40 37 37 40 40 40
41 42 43 48 48 47 47 46 45 44 42 39 43 48 44 46 48 49 47 43 44 46 52 52 50 48 48 53 55 64 67 63 49 42 42 44 47 50 50 51 49 43 40 38 41 44 45 41 36
48 42 36 44 51 47 43 41 41 43 43 44 41 44 48 44 41 44 46 48 49 54 47 45 49 50 50 58 56 63 64 49 40 40 46 43 46 46 47 45 41 41 40 45 47 48 46 43 42
48 48 46 46 47 48 45 41 39 43 45 44 47 46 44 47 44 43 45 47 51 54 49 42 44 51 56 54 59 60 54 48 43 46 46 45 44 43 43 42 42 46 49 51 51 54 50 47 44
50 49 48 45 41 36 40 46 46 43 42 41 42 46 49 50 46 43 43 46 47 49 53 54 56 62 59 58 55 54 54 49 50 48 43 42 43 43 42 45 48 52 55 57 58 52 49 46 46
54 50 48 45 40 34 39 43 47 39 48 51 44 41 41 41 45 41 41 44 44 44 50 58 63 62 58 57 56 54 53 52 48 46 45 46 46 45 47 51 55 60 64 68 59 54 51 49 45
50 44 42 44 43 31 32 44 40 36 37 48 51 48 40 43 46 44 43 49 43 46 52 59 62 61 58 59 59 57 56 52 51 48 48 47 48 51 54 55 56 61 64 63 62 60 55 45 40
50 50 48 45 47 37 42 44 41 44 42 45 53 56 50 50 44 42 47 50 52 50 57 61 61 62 60 61 62 60 59 53 51 49 48 51 54 55 57 57 58 62 63 64 64 64 51 47 46
51 50 49 54 56 56 52 45 43 48 44 42 43 42 46 49 57 47 52 52 55 54 68 68 62 57 59 61 60 58 55 50 48 48 51 55 58 59 64 69 73 72 61 63 52 50 50 47 48
49 50 59 60 67 58 51 49 44 44 38 36 37 44 42 44 51 52 54 54 56 54 64 59 56 56 57 55 55 53 52 53 53 56 59 62 65 69 67 71 72 76 71 57 44 45 46 46 49
50 46 59 56 59 53 52 51 50 40 39 34 35 31 35 39 43 48 56 53 52 56 52 52 51 52 52 53 54 54 58 63 68 70 71 71 72 69 78 83 86 73 66 65 56 44 50 54 54
50 46 46 62 63 65 52 41 37 38 34 32 37 32 33 34 35 42 44 46 45 53 46 49 51 52 51 53 56 58 63 67 71 77 80 78 77 78 85 77 74 70 74 70 60 56 56 56 58
44 45 52 56 55 55 37 37 43 41 38 42 39 27 29 32 34 36 38 38 40 42 46 48 46 50 52 55 59 64 69 77 80 78 77 78 82 74 84 76 81 73 64 61 60 63 63 60 61
43 35 41 45 50 50 53 43 38 41 39 38 34 30 27 26 28 27 26 28 32 36 38 42 46 48 51 55 61 68 74 81 85 83 76 72 78 75 84 78 82 73 63 62 67 74 65 63 66
41 39 43 56 45 50 52 37 37 41 36 36 36 36 31 28 28 27 28 30 31 33 36 37 42 49 55 60 67 67 70 77 80 72 75 72 75 81 76 79 76 72 67 66 73 76 69 75 77

GFSSGP_prec_cthk_039.txt.gz
RH
17 16 21 23 24 26 26 29 35 37 42 48 53 59 61 70 69 65 65 68 62 63 65 67 69 66 60 62 65 62 47 41 37 37 34 25 23 22 14 14 14 16 17 19 22 22 22 23 26
16 17 25 27 25 28 28 30 38 41 50 54 56 61 62 72 74 71 72 74 73 71 69 71 72 67 56 60 66 52 44 40 40 38 35 28 28 22 15 14 16 21 20 22 22 22 23 24 29
16 19 30 29 27 29 33 36 54 56 58 62 58 59 64 70 69 68 73 79 79 77 77 74 74 72 66 74 60 48 44 41 41 37 37 33 23 17 17 20 25 20 22 21 21 23 26 28 30
17 21 28 28 30 30 28 32 36 43 48 59 64 61 66 69 73 73 71 75 76 77 80 81 76 74 80 70 59 48 45 48 38 41 42 35 30 28 28 23 22 24 22 23 24 26 29 31 31
19 24 28 30 29 26 32 39 39 45 50 62 62 66 66 76 74 72 76 80 80 82 89 87 81 76 79 67 55 49 50 42 46 46 39 32 29 22 26 25 26 26 25 27 29 31 33 33 34
22 27 35 33 27 26 39 45 49 48 53 66 67 63 71 71 73 70 73 83 89 96 98 92 85 95 75 60 56 52 49 51 48 40 33 29 31 28 24 27 29 26 29 31 35 39 39 40 43
27 34 37 32 31 35 53 50 58 60 66 71 71 71 72 74 74 71 74 80 86 95 95 98 98 86 68 64 60 57 53 45 43 41 35 32 29 31 32 31 27 31 35 38 39 41 47 51 51
31 37 33 31 35 43 60 62 69 65 68 70 72 73 78 81 76 73 80 85 92 98 98 98 96 86 72 70 67 64 56 48 35 28 23 26 28 30 31 33 35 37 41 40 46 54 56 59 58
38 40 32 40 40 51 60 60 63 66 65 64 71 68 77 81 79 74 76 85 87 95 98 95 92 88 82 84 75 57 41 41 36 31 29 30 31 35 38 40 41 40 44 50 56 61 59 59 60
39 43 39 39 44 53 59 57 58 62 67 70 70 72 81 82 82 82 86 86 82 93 92 93 94 91 84 70 54 46 38 34 33 32 31 33 36 35 38 41 44 50 54 57 56 62 59 64 60
39 43 41 40 44 52 58 58 58 63 65 72 75 77 78 80 83 79 76 86 90 83 87 88 79 70 63 54 46 38 34 32 30 32 33 37 41 48 51 53 53 57 60 59 55 57 61 59 53
38 40 43 44 48 50 53 60 57 57 58 70 78 79 72 71 74 68 61 76 63 57 62 65 67 63 47 37 29 28 26 26 31 35 45 47 48 53 55 57 57 52 54 50 54 54 58 57 49
39 45 45 45 49 46 44 55 56 56 55 74 80 72 70 67 65 62 58 55 60 61 64 64 66 51 42 36 29 27 36 41 45 49 53 54 51 55 59 54 55 54 52 55 56 54 54 48 43
42 45 46 51 51 45 47 52 51 57 50 56 62 61 60 59 57 51 46 48 42 48 56 55 51 49 45 44 44 47 50 51 54 55 57 61 57 51 51 51 53 52 52 56 55 51 51 42 36
44 46 52 51 49 52 49 55 57 59 51 46 48 44 49 44 40 41 31 35 39 42 47 49 51 50 47 46 48 51 53 57 58 55 61 61 55 49 50 51 50 51 53 58 54 49 41 38 38
45 43 44 45 50 50 48 56 64 54 46 46 48 50 51 49 44 38 36 35 40 43 47 49 49 48 45 48 52 55 60 63 64 63 56 49 49 47 48 50 52 52 54 56 46 39 41 39 40
43 47 40 45 54 52 51 55 58 54 44 43 41 43 50 46 44 41 42 42 44 46 48 49 48 43 41 51 56 57 66 66 65 52 46 45 44 47 49 52 54 53 49 44 40 43 43 39 37
49 49 45 47 54 51 49 45 52 50 46 43 41 44 44 44 43 44 43 41 41 41 40 42 46 44 46 54 54 58 72 66 57 52 45 43 47 46 50 53 52 46 40 40 41 45 44 41 40
51 48 46 44 42 51 46 48 51 51 51 46 49 49 46 41 43 44 41 42 43 43 43 44 49 53 58 53 57 62 60 62 57 49 46 45 47 50 51 49 43 41 39 42 47 48 46 46 47
48 47 50 46 46 46 44 44 47 49 47 43 44 47 48 47 46 41 40 40 41 45 46 50 51 55 53 53 57 60 62 63 54 50 47 46 50 47 46 42 39 38 41 49 51 50 51 51 55
43 45 50 50 45 39 41 44 41 42 43 45 44 46 47 39 41 43 43 43 44 44 46 50 53 58 56 55 58 62 60 57 55 52 51 50 48 45 40 40 41 44 51 54 53 54 55 61 61
49 50 51 49 49 39 39 43 42 38 38 43 47 52 49 38 43 50 50 54 54 52 52 55 59 63 62 58 59 60 60 58 58 56 51 49 46 44 44 47 51 58 62 66 69 76 66 58 53
53 50 51 46 46 47 46 39 31 34 35 40 47 53 55 51 45 46 50 56 60 65 62 58 68 73 63 59 58 61 64 59 62 58 50 47 48 49 52 56 60 64 74 77 77 77 69 57 54
49 48 50 50 52 53 47 45 41 36 38 41 42 46 47 48 50 54 56 60 65 66 61 70 72 72 63 63 58 59 59 61 63 57 50 52 55 59 64 68 67 71 77 87 81 75 63 52 55
49 51 57 58 66 58 54 52 42 34 39 39 39 39 39 46 43 51 54 59 64 62 62 74 65 64 62 59 58 58 57 59 68 63 59 63 69 75 76 76 75 87 78 93 79 62 66 58 62
51 51 56 54 61 55 52 50 39 38 40 38 38 28 33 39 41 46 53 55 60 62 65 72 58 57 57 55 55 55 58 58 62 73 74 79 81 79 77 80 83 89 85 80 78 74 74 65 51
51 51 45 58 62 63 49 44 36 36 42 40 34 34 30 30 31 37 38 46 51 61 64 60 51 52 50 50 55 54 57 64 70 77 81 79 83 85 82 88 86 85 86 83 79 73 66 64 66
51 49 48 53 54 57 46 41 38 38 38 38 39 39 28 28 30 32 34 40 44 53 44 45 47 46 45 46 50 58 67 63 70 79 83 86 87 84 88 90 79 86 81 82 77 68 66 73 75
47 49 46 46 57 59 58 44 31 35 28 30 34 32 24 24 24 24 27 27 28 31 34 37 37 38 41 44 49 54 64 73 77 80 77 80 77 86 81 77 78 83 81 81 80 75 77 82 75
46 51 50 53 42 54 59 43 27 35 37 35 33 39 34 31 26 24 27 30 33 35 37 40 40 43 47 55 63 69 76 82 81 80 77 81 82 86 84 90 92 90 87 84 80 84 86 80 76

GFSSGP_prec_cthk_042.txt.gz
RH
17 15 15 19 26 26 26 25 31 39 44 57 62 69 72 75 72 70 68 71 71 70 67 69 72 68 61 57 55 48 45 46 39 33 33 36 32 25 25 21 16 15 17 21 20 22 23 26 28
18 16 18 22 27 30 27 29 36 45 53 57 60 66 71 75 78 75 73 72 72 74 73 75 75 73 66 59 53 45 45 44 34 33 40 39 30 31 27 21 17 19 24 23 20 22 25 27 27
20 19 22 25 30 29 29 32 37 46 52 58 58 58 66 69 71 68 70 76 76 76 76 79 79 77 69 63 57 51 55 42 35 39 44 38 36 31 25 21 21 23 25 22 23 24 26 28 28
20 21 22 25 27 27 26 27 35 44 50 50 56 61 69 65 66 68 70 77 82 83 81 84 81 77 73 65 57 58 50 38 39 44 40 38 37 30 28 28 31 29 23 26 26 27 31 33 31
21 21 23 24 28 26 26 37 43 48 52 51 55 68 72 70 70 70 69 77 86 85 85 87 89 88 83 68 68 59 40 43 47 44 46 46 40 39 38 32 28 25 29 30 29 33 33 33 36
22 23 25 29 27 28 32 43 49 55 54 53 60 71 78 73 74 72 74 75 83 82 93 98 95 92 87 76 64 52 42 46 48 48 51 45 41 36 32 31 29 31 33 34 37 38 39 41 44
25 27 31 35 34 34 47 56 62 62 59 63 64 77 81 76 75 73 74 76 78 83 94 99 99 94 83 70 63 47 46 52 55 53 47 44 40 36 33 30 34 37 39 39 44 47 49 50 51
25 30 36 34 36 41 55 62 64 65 69 75 77 81 81 77 78 76 76 76 76 86 97 98 94 94 81 68 52 51 54 58 54 46 43 40 35 35 35 38 38 38 44 46 49 53 56 57 56
30 43 38 39 42 41 56 65 65 65 67 72 73 72 73 80 80 76 74 75 81 92 98 98 93 84 70 62 65 69 71 60 49 44 37 33 31 37 39 41 43 45 47 49 56 54 56 54 56
37 43 37 43 43 49 59 64 63 65 69 74 75 76 78 83 82 80 78 77 84 88 85 94 90 82 80 81 85 77 58 45 35 30 31 39 42 41 44 44 44 51 57 60 60 59 52 50 51
37 46 42 41 42 46 58 62 61 61 66 69 71 78 82 83 81 79 83 86 87 88 90 90 91 91 90 89 72 58 42 40 40 37 36 35 35 38 40 44 56 60 58 51 56 50 47 47 47
40 43 47 44 46 50 53 58 61 53 50 64 74 82 79 77 73 74 88 84 73 89 91 89 88 86 79 66 50 43 39 35 33 31 33 40 46 49 55 59 64 61 55 52 50 51 50 47 42
42 45 46 45 50 52 53 57 60 53 46 66 75 73 74 68 61 70 79 66 66 66 62 64 70 70 59 50 39 34 31 29 34 36 44 55 54 51 54 57 56 53 52 53 52 53 49 47 42
47 46 46 51 54 50 53 58 59 59 42 57 60 56 58 53 50 50 60 59 61 58 58 57 54 45 40 31 31 34 37 45 51 54 56 60 64 61 53 55 54 53 50 53 55 53 51 44 36
48 50 49 50 51 53 49 54 55 53 46 48 56 57 54 42 40 47 47 47 50 57 61 62 60 55 54 50 49 51 53 58 59 58 58 68 70 57 55 56 54 54 52 56 58 53 46 37 37
45 48 52 50 50 52 50 52 53 49 40 43 55 55 53 45 45 46 42 46 50 54 55 53 52 52 52 47 46 49 51 56 60 60 59 58 53 53 52 52 54 56 57 58 56 44 39 40 41
46 43 46 48 50 51 49 51 56 50 41 40 48 49 50 46 45 47 45 46 50 50 50 49 47 47 46 42 42 48 53 64 63 62 54 51 49 48 53 52 54 56 59 57 45 40 44 45 43
49 48 44 50 51 50 50 49 56 53 47 41 41 42 46 46 46 47 47 43 45 47 45 46 45 46 44 42 47 55 64 70 63 53 53 50 49 50 52 53 54 57 57 47 42 44 45 45 42
49 52 46 47 46 45 45 45 50 57 53 48 43 43 44 46 47 47 46 43 40 40 40 45 50 56 52 48 55 63 64 63 62 60 59 53 51 51 53 53 57 54 47 44 45 46 46 45 40
47 45 51 49 44 42 44 46 47 53 49 46 44 45 46 46 47 46 44 44 42 41 41 46 52 59 58 53 55 58 56 60 61 60 60 54 51 54 56 54 53 46 44 45 47 48 50 50 51
45 45 49 53 50 46 44 44 44 45 49 47 46 43 49 48 48 47 45 43 44 42 43 45 48 55 58 53 53 54 60 61 60 62 58 53 55 57 54 50 47 45 46 47 51 56 59 61 63
47 43 44 49 48 46 43 43 43 42 42 43 44 46 50 42 44 48 50 54 57 54 53 53 54 59 62 58 53 52 55 58 61 60 58 56 58 55 51 49 48 49 51 56 60 66 69 75 81
46 52 49 46 48 45 41 41 39 39 40 40 45 49 50 55 51 48 52 54 60 61 62 62 58 61 71 62 56 55 54 64 72 72 65 68 72 60 53 56 62 64 64 64 74 84 85 83 68
48 49 52 53 52 52 46 45 40 36 34 37 42 42 49 52 50 49 52 65 71 72 71 66 64 69 72 68 58 60 59 66 73 79 75 75 75 68 71 73 74 73 73 78 86 91 96 85 64
47 51 62 60 64 57 52 52 42 39 37 38 39 41 38 38 45 48 51 59 64 71 73 65 69 68 62 62 57 60 61 65 68 77 75 82 79 77 77 78 82 82 81 87 96 91 76 74 68
51 52 61 55 61 53 52 50 38 37 36 40 38 35 30 28 33 39 49 54 61 66 68 67 70 65 58 56 56 58 60 63 68 79 83 85 85 85 87 86 86 83 90 93 92 85 80 76 74
51 53 51 61 63 65 49 40 31 33 43 46 40 38 29 26 26 32 38 46 52 57 57 65 59 57 52 51 54 55 66 70 75 80 87 87 85 87 87 92 86 93 88 84 84 86 84 80 76
51 51 53 57 55 52 47 42 37 29 37 40 40 38 32 30 28 29 32 33 36 38 45 45 41 42 46 50 52 54 63 66 73 74 79 82 86 84 74 83 83 84 85 84 89 88 84 83 82
51 52 54 54 56 57 58 46 36 33 33 32 33 32 31 28 26 25 27 27 27 30 32 34 36 41 45 45 45 52 61 70 77 81 84 83 87 87 88 92 90 89 86 89 91 87 85 88 86
45 46 48 59 52 59 59 46 36 32 33 35 35 34 37 37 30 26 26 26 28 32 36 39 44 53 57 61 61 71 78 84 85 82 82 83 88 89 93 93 89 91 91 92 91 91 87 88 82

GFSSGP_prec_cthk_045.txt.gz
RH
19 17 16 18 20 23 24 24 26 36 42 57 62 64 72 73 75 73 74 77 77 75 75 74 72 69 64 59 56 50 46 39 38 33 34 28 36 33 25 25 21 16 18 19 21 21 22 23 23
20 17 18 20 20 22 22 26 31 40 54 57 63 73 74 76 77 79 83 81 80 78 79 78 78 75 72 67 61 52 43 41 39 36 30 34 39 34 31 30 24 20 19 22 25 24 25 26 28
19 19 20 22 22 22 26 28 32 36 49 58 62 69 70 73 71 73 72 77 78 77 75 76 77 78 78 72 58 49 39 39 45 36 32 38 39 35 36 32 27 21 22 26 27 26 28 30 31
19 21 20 21 21 25 26 26 33 38 44 51 59 66 69 71 68 66 67 73 73 76 79 81 83 82 79 68 58 48 38 42 48 34 40 43 39 44 35 32 28 26 27 28 29 30 32 34 35
20 20 23 23 25 30 27 28 35 39 49 53 54 62 73 73 68 67 69 70 77 81 86 91 89 86 81 77 63 50 44 51 45 34 40 41 42 44 37 36 36 32 33 31 32 35 37 39 40
21 23 25 27 28 30 33 46 51 51 53 57 63 65 75 77 76 72 70 74 79 86 91 91 94 93 84 75 68 63 53 50 41 38 44 48 47 45 41 40 38 34 32 34 38 41 43 45 46
23 25 28 36 40 38 49 58 60 58 59 59 62 68 74 75 75 75 74 78 82 93 93 94 97 96 93 70 72 59 51 42 41 45 49 56 50 44 43 40 38 35 36 40 44 46 49 49 52
24 28 35 38 40 40 54 62 60 62 65 67 68 68 73 76 75 75 76 78 80 85 93 92 98 97 87 73 64 58 49 49 51 53 57 53 46 42 42 38 37 41 42 45 50 51 52 55 55
28 38 38 41 42 48 56 63 67 64 69 67 73 69 67 76 77 77 75 78 77 77 85 88 91 93 87 80 66 61 55 58 59 64 49 40 42 42 40 42 43 43 48 54 53 55 57 56 49
35 42 41 42 47 47 54 63 68 70 71 70 68 69 74 78 83 81 78 79 82 86 90 95 95 89 91 80 67 60 64 73 61 51 43 39 37 41 45 45 47 51 53 58 58 52 57 49 46
39 43 41 45 45 46 59 62 66 63 59 62 67 74 76 79 81 85 77 84 89 90 93 95 87 87 85 73 73 78 78 63 47 37 31 37 43 45 46 48 50 55 63 62 57 49 50 48 44
42 42 45 42 44 53 57 58 64 58 51 68 76 77 80 82 80 80 75 79 87 92 93 93 92 90 90 86 87 72 58 42 41 40 40 39 38 41 46 50 60 68 62 56 52 51 51 48 44
46 41 42 44 49 57 59 59 59 62 52 60 69 76 84 75 70 69 71 75 83 86 92 90 90 89 85 84 71 61 46 42 38 36 37 40 47 52 55 57 60 63 54 52 51 50 50 48 40
41 45 44 50 59 59 59 59 60 62 59 50 58 63 61 62 70 71 65 69 73 71 68 72 75 78 72 62 50 45 37 38 40 41 43 47 59 58 60 55 52 54 54 53 52 53 52 44 37
40 44 45 51 55 58 58 57 57 55 57 52 51 53 54 53 57 62 59 59 57 54 51 54 59 49 45 39 33 33 32 33 46 52 54 63 68 70 66 55 54 55 54 53 54 55 50 40 40
36 39 48 52 54 58 57 54 54 53 52 49 52 50 46 46 48 54 59 58 62 64 64 64 62 62 61 56 50 49 53 58 59 64 65 67 64 61 53 52 51 51 56 54 56 54 42 39 40
40 38 40 47 52 58 55 53 54 54 44 46 51 45 45 47 51 50 52 54 57 59 60 63 63 60 55 52 49 49 51 57 62 63 63 57 53 53 52 52 51 55 57 56 56 46 39 41 41
45 41 41 47 54 55 53 51 55 56 46 40 46 43 42 47 48 54 53 52 55 56 54 51 52 53 53 49 47 48 52 57 61 61 57 55 51 51 50 53 52 52 56 56 50 41 41 43 44
44 45 45 52 49 52 47 46 45 55 54 45 42 43 43 42 47 50 49 46 47 46 46 48 52 53 55 49 49 50 54 57 64 59 57 54 53 51 50 52 53 54 55 51 44 43 44 47 54
45 43 49 45 44 43 44 42 43 49 54 46 43 45 41 42 43 46 47 44 42 42 46 50 53 58 63 58 49 52 54 58 60 58 61 64 61 56 51 55 52 53 52 49 45 47 51 57 57
44 40 53 52 47 41 47 41 43 44 43 45 46 49 46 49 45 43 44 45 44 40 39 43 49 55 63 62 54 53 53 55 58 59 64 62 57 53 53 56 56 57 53 53 55 57 62 64 63
45 41 47 49 51 51 48 43 40 43 46 45 44 49 52 49 45 43 42 47 46 45 46 47 51 55 60 65 58 54 52 55 59 64 72 72 70 65 67 67 64 63 63 64 65 66 70 74 73
44 46 47 46 48 49 49 44 40 42 36 45 47 53 55 53 44 45 51 55 53 55 56 61 62 61 60 66 69 59 58 59 59 70 79 79 81 76 76 72 71 71 72 72 73 75 80 84 86
46 47 49 52 49 49 48 44 38 35 33 34 35 45 52 55 58 58 55 59 63 64 61 64 67 66 67 76 76 70 64 64 63 66 71 74 83 81 80 82 79 78 79 79 85 87 93 94 89
46 50 55 55 55 51 51 49 41 39 37 35 38 38 43 49 54 58 59 61 62 64 68 66 69 64 71 72 70 67 61 63 64 66 69 78 85 85 89 89 84 83 85 89 90 90 97 90 82
50 48 57 53 53 48 51 47 39 40 37 38 39 38 38 36 41 47 50 56 61 62 64 66 71 66 74 78 73 65 58 57 61 65 72 79 87 89 93 90 90 91 92 86 86 92 86 83 83
53 54 52 60 64 59 48 43 35 32 34 37 40 40 40 33 26 29 38 43 51 58 60 67 70 68 68 66 65 56 57 59 58 71 82 84 91 92 94 91 93 92 90 93 89 91 87 85 88
57 56 58 59 59 59 48 45 34 34 32 31 38 42 41 38 31 27 26 28 34 44 48 54 59 58 56 47 48 52 58 61 64 73 81 86 91 94 95 91 93 91 94 95 95 92 93 94 88
61 59 57 57 57 55 53 43 37 37 35 34 35 36 33 33 32 24 24 26 26 29 33 37 40 37 37 41 48 56 63 69 74 82 88 90 92 91 95 97 96 95 95 96 91 92 97 94 92
55 53 51 57 53 56 55 45 38 34 37 35 34 34 36 32 30 31 27 23 25 26 28 29 33 38 44 54 61 69 74 80 84 84 87 91 91 94 97 96 93 97 95 96 92 94 98 94 91

GFSSGP_prec_cthk_048.txt.gz
RH
17 17 17 18 21 19 25 25 24 31 32 49 57 62 69 73 69 75 78 77 76 78 76 71 69 67 66 66 66 63 56 47 37 35 29 28 29 33 33 26 25 26 25 23 21 21 22 23 23
18 17 19 20 18 23 25 29 30 38 46 49 54 68 71 71 72 82 89 85 82 80 79 79 72 70 66 65 64 60 52 40 33 33 31 27 30 35 36 29 30 29 26 26 23 24 26 25 25
18 19 24 24 22 23 27 31 34 33 40 52 60 65 71 81 69 74 81 82 85 82 83 80 75 74 72 69 64 57 48 37 32 32 38 31 35 39 38 38 33 32 30 27 27 30 31 29 30
21 22 20 19 22 23 23 27 29 35 43 43 57 64 68 73 78 77 73 76 76 76 81 80 77 77 75 70 63 54 47 38 33 38 37 35 40 41 42 43 35 33 31 30 30 33 33 33 34
20 22 25 22 22 25 25 24 33 38 44 47 48 58 61 73 76 72 74 71 68 76 79 79 80 82 81 73 68 55 50 43 41 43 40 40 44 46 47 41 35 35 35 33 34 37 38 38 38
23 22 25 28 29 28 30 41 45 45 47 49 54 54 61 68 72 70 71 70 73 78 84 84 85 85 82 78 68 61 56 50 50 48 43 38 47 50 45 39 40 38 38 38 40 41 41 41 42
23 25 28 29 38 42 44 56 57 57 52 54 58 65 67 67 71 72 72 76 79 86 93 95 89 89 85 81 71 61 57 57 55 48 46 45 52 52 47 43 43 43 42 40 43 45 45 48 51
25 29 32 38 42 42 54 59 57 59 59 60 62 65 70 70 72 73 75 77 84 86 94 97 95 91 92 84 72 69 66 61 49 45 50 54 59 47 48 50 44 43 41 45 49 50 54 54 54
26 35 36 42 42 48 50 61 63 61 64 71 73 70 67 69 72 75 76 78 82 87 90 98 87 87 87 88 82 72 61 55 52 57 60 66 54 48 49 45 41 43 48 52 54 56 53 55 54
30 39 39 43 45 42 51 60 63 68 67 73 77 73 76 74 73 75 78 78 83 86 86 85 85 87 90 92 88 72 60 57 57 72 73 59 52 51 48 43 46 48 54 58 58 62 53 52 47
33 42 40 38 41 46 54 61 60 63 64 59 70 75 76 80 80 79 79 80 82 87 88 86 86 95 93 93 83 68 65 68 74 73 63 54 52 46 45 48 49 54 58 62 63 59 53 51 44
35 41 42 41 40 47 58 58 61 62 52 62 74 76 87 84 81 77 82 85 84 91 90 95 92 95 93 90 87 81 80 80 73 63 52 50 47 47 48 51 53 57 65 66 58 52 52 48 42
35 37 41 46 49 55 58 63 61 66 65 62 70 83 85 79 75 77 73 79 84 90 94 97 97 96 94 92 91 87 83 70 57 46 49 49 47 44 47 54 58 63 63 61 55 52 50 46 40
38 35 42 50 54 62 59 62 61 67 63 60 64 76 73 70 69 63 68 73 78 89 95 93 94 92 90 88 87 79 63 53 50 46 42 40 43 51 51 58 56 57 58 55 55 53 52 46 38
35 45 45 50 56 54 55 58 55 55 63 56 58 58 62 68 67 64 64 62 66 74 74 79 82 80 83 78 70 64 52 47 44 47 46 45 49 57 61 67 56 53 54 52 52 50 51 45 36
31 38 47 48 51 56 56 58 51 48 58 53 57 52 54 59 62 61 63 62 60 60 67 75 75 76 70 54 45 42 40 41 44 49 50 52 63 73 74 69 56 55 53 51 51 50 50 41 35
32 41 41 47 52 56 55 56 50 47 51 55 55 49 45 53 57 63 63 66 63 66 65 67 67 65 57 51 47 46 50 52 59 55 62 69 74 67 64 53 52 52 51 52 50 52 46 37 36
39 35 39 44 51 53 53 56 52 54 44 53 51 49 43 50 55 52 54 57 60 64 66 65 63 62 59 57 54 54 56 57 62 67 69 67 62 58 57 52 52 50 49 50 50 50 43 38 41
38 37 43 46 45 52 50 49 49 51 52 42 48 45 41 46 54 57 53 53 56 57 57 61 63 64 64 58 54 51 55 59 63 66 61 59 58 58 53 50 48 50 48 49 50 51 44 44 49
40 44 47 43 41 44 44 45 44 49 48 44 42 42 42 47 49 51 49 48 47 51 53 57 58 62 64 64 58 53 56 62 63 64 62 58 57 56 57 52 47 49 53 53 55 55 51 55 57
43 50 50 48 42 38 38 37 41 45 46 41 40 43 44 44 47 48 47 44 43 44 49 52 57 62 66 69 67 60 59 60 65 63 64 61 65 66 56 53 56 60 63 64 64 62 60 62 65
45 45 44 48 48 48 42 44 39 42 46 42 40 40 42 45 45 45 46 45 45 44 44 47 52 57 62 66 72 64 59 59 60 63 62 65 73 75 74 70 70 71 71 70 68 68 68 69 71
43 42 44 46 46 47 47 46 45 41 42 39 38 41 43 48 45 41 43 51 49 51 53 53 55 60 64 64 67 72 64 62 66 66 64 65 72 75 73 73 76 77 77 74 75 76 76 77 84
45 47 46 46 47 50 44 43 40 39 37 37 37 38 47 54 52 48 50 57 58 57 61 61 65 69 76 71 72 80 78 73 71 68 66 65 66 73 79 86 89 86 86 82 81 78 79 84 89
45 50 56 58 55 53 46 43 43 43 36 34 36 37 40 48 52 56 54 63 63 63 64 64 68 75 79 76 77 79 80 80 77 69 66 64 66 71 79 86 91 91 93 89 85 83 86 87 87
45 48 58 62 57 53 48 45 44 39 37 34 35 36 42 45 50 51 55 61 68 67 69 68 68 76 82 75 79 81 78 80 74 70 67 64 72 79 83 88 91 94 96 95 90 90 91 95 93
48 48 52 59 58 54 46 42 38 34 30 29 34 38 41 41 38 39 45 51 58 64 67 70 73 77 82 79 75 73 80 75 68 69 70 71 79 86 92 94 95 97 97 93 95 91 95 96 93
51 52 55 56 62 57 50 46 40 36 33 29 28 35 44 43 43 42 33 37 46 54 60 70 74 71 74 75 68 63 58 55 61 65 69 77 83 86 91 94 96 93 94 92 88 94 95 97 95
51 54 55 56 54 57 53 47 40 37 37 36 32 31 34 38 40 40 36 29 33 38 45 55 57 57 60 60 56 46 46 54 62 68 75 79 81 87 91 96 95 96 95 91 91 89 98 97 98
49 53 56 58 54 50 50 45 40 38 36 38 37 34 31 32 33 37 34 33 35 36 37 40 43 48 48 45 43 47 55 64 72 77 73 78 88 93 95 97 94 95 90 86 89 95 98 98 92

GFSSGP_prec_cthk_051.txt.gz
RH
13 15 17 19 22 23 21 23 22 34 40 48 41 59 69 62 67 77 75 80 76 69 71 69 71 71 72 70 70 69 68 63 52 38 32 28 24 31 30 36 32 33 28 26 24 22 21 23 23
18 17 19 22 25 22 21 20 32 28 51 64 43 49 48 73 74 70 82 76 81 75 77 75 79 77 74 71 70 71 70 58 44 33 29 31 26 28 31 35 35 35 32 27 26 26 25 27 26
15 17 23 36 32 24 20 31 34 42 41 49 59 46 57 72 74 69 70 68 66 90 85 79 79 81 75 73 71 70 63 53 41 32 30 35 33 32 33 40 36 40 36 31 29 30 32 32 30
19 26 25 20 26 24 22 33 32 31 42 39 52 67 53 57 69 71 75 68 74 96 87 85 78 78 74 72 69 65 59 49 41 34 33 34 37 38 40 44 44 42 37 36 35 36 35 35 32
19 23 27 32 25 25 29 29 28 37 46 57 46 66 59 60 72 68 71 73 82 82 81 81 75 78 75 69 66 59 51 45 42 37 42 39 40 41 45 48 48 45 41 39 40 38 36 35 35
27 25 32 30 29 29 31 43 54 50 53 49 46 62 60 53 59 68 70 72 77 75 85 82 78 77 75 70 65 60 52 51 46 46 43 43 46 44 49 51 50 46 44 43 43 40 39 39 38
25 35 32 28 33 36 42 50 64 61 54 59 62 63 64 59 58 60 66 67 68 73 80 89 86 86 81 73 68 62 59 52 51 47 45 50 47 48 55 49 44 46 47 46 47 45 42 44 43
22 26 30 29 42 49 50 55 56 56 69 59 59 75 64 66 63 64 65 70 76 85 87 88 87 95 91 82 69 68 61 59 55 57 58 51 55 57 56 49 46 48 50 51 45 46 49 49 46
22 34 33 34 36 50 45 56 64 60 64 67 73 71 72 68 66 70 73 74 81 87 88 92 92 86 94 87 77 78 75 64 58 63 56 59 61 63 57 50 52 52 51 46 49 53 54 49 43
25 36 37 36 41 44 44 54 64 65 71 66 77 76 73 76 74 71 73 80 84 86 88 83 86 80 84 79 84 84 75 68 67 63 62 68 71 66 58 55 51 46 51 55 56 59 59 48 41
37 39 39 40 38 40 46 59 62 65 74 70 73 71 76 79 82 77 75 76 80 84 87 85 87 88 83 92 89 88 83 75 73 70 75 78 67 67 61 53 46 51 58 60 60 59 59 49 41
29 36 38 42 40 43 58 61 62 60 61 54 69 78 82 85 84 80 78 79 80 83 89 87 89 87 90 91 95 94 83 75 75 82 80 71 67 64 58 56 55 57 62 63 67 61 50 49 40
32 32 38 40 41 49 50 57 61 64 68 58 61 75 87 85 76 80 75 77 84 88 94 94 91 98 97 98 96 86 81 80 86 83 74 64 67 65 58 61 62 62 68 66 65 56 51 50 40
42 28 35 43 44 43 52 63 55 64 63 56 61 73 76 74 67 70 68 75 88 86 92 96 99 97 98 98 93 87 84 83 85 77 67 66 69 57 55 58 65 67 64 62 58 54 49 48 42
27 33 45 38 43 53 54 64 69 53 53 54 60 62 67 67 65 64 66 68 81 88 97 98 97 98 97 93 89 88 86 86 74 64 62 61 58 53 58 64 71 66 60 59 53 51 49 49 42
29 35 42 70 54 53 51 82 53 46 49 55 56 57 59 66 65 64 63 68 71 72 77 80 84 85 87 86 84 80 83 70 60 56 54 55 55 55 62 72 77 68 57 56 52 52 49 49 41
36 34 40 45 47 47 53 73 46 41 48 52 61 54 54 60 63 65 65 60 57 64 70 72 75 72 70 71 65 55 50 51 51 56 61 54 52 64 79 79 76 58 55 53 50 50 50 47 43
33 35 34 32 50 43 51 52 69 43 43 53 58 55 47 55 56 57 62 61 60 61 61 63 71 75 73 63 50 49 51 50 59 64 65 65 69 76 72 68 63 55 53 50 49 50 48 49 47
33 37 32 37 52 43 55 50 51 56 45 49 48 51 45 51 53 54 54 57 58 61 61 58 58 62 63 60 60 57 57 60 62 70 72 78 79 61 58 62 55 50 51 50 48 49 52 56 55
30 43 38 42 45 30 53 45 51 58 48 48 43 48 46 48 51 51 53 53 52 54 58 63 62 62 66 64 57 55 53 59 64 69 71 70 64 56 56 59 55 53 54 53 58 62 64 65 59
32 45 47 47 51 34 32 32 38 40 49 45 39 43 46 45 47 46 43 43 46 52 52 55 58 63 70 70 71 65 58 61 65 69 70 65 62 61 65 68 68 69 64 67 68 69 69 68 64
44 40 48 47 44 42 44 39 50 45 44 47 40 38 42 44 49 46 44 43 42 44 47 49 53 58 62 66 72 71 65 62 63 65 68 68 63 68 76 78 77 73 70 71 75 72 73 74 72
43 50 41 43 46 46 54 44 44 44 44 47 44 39 40 41 45 44 43 41 44 44 45 48 52 54 60 68 67 72 66 68 67 66 67 71 69 67 71 75 77 79 76 80 84 82 82 82 79
42 44 44 45 47 53 44 44 46 48 39 39 49 47 44 44 47 52 50 51 53 49 51 52 54 56 58 65 72 74 77 76 73 74 75 76 73 68 65 71 74 80 86 89 90 88 86 85 82
39 44 55 57 51 50 49 41 39 48 43 36 41 46 52 47 44 53 58 54 62 59 60 66 59 57 65 77 81 82 87 84 80 79 80 80 71 69 67 68 75 83 86 89 93 92 92 91 86
41 45 57 64 61 53 53 36 38 46 39 35 36 35 39 42 48 52 55 61 63 68 68 69 70 66 70 83 96 84 84 88 83 80 79 77 76 74 75 74 83 90 90 92 94 97 95 96 90
53 47 48 56 58 54 49 35 42 41 31 31 35 36 39 41 43 50 54 53 57 60 68 72 74 76 78 83 80 79 98 75 73 73 71 72 72 82 80 87 93 91 91 93 96 97 95 93 92
45 55 52 51 62 61 42 41 40 41 36 30 30 34 39 41 43 46 50 59 56 58 64 67 72 77 82 83 81 80 79 80 74 67 60 64 71 78 84 86 85 88 94 96 94 92 94 90 91
42 49 52 55 52 68 54 45 44 41 37 37 36 35 32 36 44 48 49 49 52 54 56 60 66 70 74 76 73 73 72 66 59 54 61 68 72 77 77 74 87 90 94 91 93 97 93 96 85
53 45 51 58 59 55 52 50 48 43 42 41 38 33 34 32 38 43 43 48 45 41 50 55 59 60 65 67 64 63 59 50 48 55 58 62 64 62 62 71 87 98 98 90 98 93 95 83 77

GFSSGP_prec_cthk_054.txt.gz
RH
12 13 13 17 24 27 26 22 23 22 28 49 43 46 65 55 54 58 68 64 66 85 92 81 74 74 70 68 68 68 67 63 57 42 32 28 27 26 32 34 33 28 25 24 25 25 23 22 20
12 17 16 20 27 32 24 24 25 26 49 46 42 40 46 58 58 59 74 62 58 81 81 85 83 81 79 78 76 75 73 66 53 38 31 31 28 33 34 36 35 30 28 28 28 27 27 25 25
12 15 19 29 38 34 27 29 35 33 36 36 48 49 65 85 70 59 69 78 66 70 86 82 85 83 86 84 84 81 78 65 50 37 33 32 31 36 37 38 37 32 36 35 34 33 31 28 28
16 20 28 30 26 23 27 28 32 31 28 28 34 45 58 77 66 73 67 66 68 77 72 68 87 91 93 89 87 85 78 62 47 39 35 33 32 35 39 40 42 41 42 40 38 36 34 31 29
19 22 29 33 32 33 23 23 23 22 24 31 37 54 63 89 81 68 71 74 66 68 70 74 77 92 87 92 90 85 72 56 44 39 36 38 37 39 40 42 49 47 48 43 41 39 36 33 30
24 29 33 32 33 31 27 27 30 35 34 27 38 59 62 57 57 57 70 79 72 87 80 85 84 90 92 92 90 76 61 50 44 40 39 41 44 44 43 47 53 52 51 46 46 44 40 34 30
23 30 34 30 26 32 32 48 47 56 55 68 70 53 90 81 73 69 64 74 78 85 78 83 82 91 93 92 80 68 59 50 51 48 50 48 48 45 46 54 55 53 50 49 48 46 44 37 36
22 26 33 31 30 35 36 52 58 49 53 48 76 69 51 66 69 70 67 73 76 84 86 89 82 89 94 96 88 73 61 58 57 54 52 52 51 51 54 58 54 50 50 49 52 49 42 41 37
24 33 40 36 34 38 47 57 49 55 57 89 77 94 67 65 79 76 69 75 81 82 91 86 86 92 88 83 87 81 65 61 58 59 57 59 63 58 60 60 54 53 52 54 49 45 48 47 35
24 35 41 37 36 32 37 40 60 62 66 51 63 65 64 76 82 78 76 79 84 81 81 87 86 88 87 83 84 88 83 64 65 67 69 73 65 70 67 60 55 61 58 47 47 54 55 54 38
26 35 41 34 38 35 35 43 52 67 57 54 43 64 61 71 75 74 74 77 82 86 85 82 90 87 88 89 84 90 81 77 76 80 76 74 74 78 66 60 59 64 55 53 56 58 58 55 38
29 31 32 32 37 34 40 62 51 67 61 55 50 56 69 76 67 71 71 77 80 77 78 78 84 86 92 85 90 80 87 89 86 83 79 79 80 81 66 66 60 58 59 60 59 62 55 48 44
33 29 33 36 35 39 50 51 70 73 72 58 50 59 70 75 68 64 66 64 71 76 77 81 83 90 87 83 87 92 95 92 91 84 83 82 82 78 71 66 59 60 58 61 63 63 51 48 45
32 36 30 33 37 40 48 52 65 93 85 53 49 55 61 58 56 57 61 64 76 84 84 81 92 93 90 88 95 96 96 89 80 83 87 81 83 77 74 70 63 63 66 65 65 57 49 46 45
26 26 29 46 42 40 50 53 57 62 76 53 48 53 59 57 56 57 56 65 73 90 89 93 92 92 98 98 96 97 91 86 87 85 85 84 82 75 70 65 66 65 61 57 56 49 48 49 44
26 25 29 37 43 52 55 50 49 49 75 61 52 51 53 55 61 63 62 62 66 72 80 88 93 97 96 98 96 96 93 89 85 81 78 79 75 67 61 60 69 74 64 59 54 51 52 49 45
33 33 34 42 41 47 60 75 63 61 68 63 54 51 50 51 60 57 53 53 59 65 68 68 76 84 90 91 89 86 83 82 81 69 65 60 58 61 56 65 73 78 64 53 53 50 49 48 44
39 40 37 31 44 45 44 60 67 69 61 59 54 50 48 49 50 49 49 48 52 55 54 57 61 62 60 60 60 61 62 59 51 49 54 58 56 61 69 76 79 67 58 54 51 52 51 48 46
36 36 35 40 40 41 41 50 71 56 55 51 51 48 43 48 50 49 52 50 48 48 48 50 52 58 59 53 46 52 50 47 45 53 54 64 75 78 80 74 64 58 53 53 53 54 53 55 58
32 27 32 39 47 41 34 38 50 61 76 49 36 43 40 47 47 48 48 48 50 50 48 48 50 54 58 54 49 46 49 50 49 58 78 69 74 73 57 55 59 58 56 58 62 63 63 65 66
26 25 34 48 50 42 31 34 34 44 68 54 37 42 41 42 43 43 43 42 42 45 47 47 48 52 53 55 57 56 52 48 50 52 59 61 66 68 55 53 61 67 68 71 72 65 68 72 77
34 30 37 45 46 41 44 38 35 35 50 54 44 40 40 42 45 44 42 41 41 43 43 45 48 50 55 57 65 68 60 60 59 57 64 62 63 61 63 66 71 69 71 73 72 75 77 82 84
36 41 42 34 40 38 47 46 41 43 41 47 47 43 43 42 41 40 39 38 41 43 44 44 49 52 57 65 68 79 73 67 64 64 63 64 65 65 65 68 68 69 73 73 82 85 86 91 91
40 41 44 41 40 47 39 49 47 49 47 49 54 53 50 46 41 46 50 47 44 47 50 48 51 54 58 65 68 76 83 82 77 78 74 70 71 72 70 69 69 70 71 78 84 91 96 96 96
39 42 48 50 48 46 44 47 43 43 47 47 47 48 48 57 54 47 46 51 49 50 53 53 55 59 60 65 70 78 82 87 80 79 78 81 81 78 75 75 74 75 76 84 91 93 92 92 94
36 39 46 62 74 58 54 50 45 41 44 41 35 35 45 46 48 50 47 48 56 54 53 54 59 62 67 69 69 75 70 78 88 89 74 81 79 77 74 77 83 84 86 90 94 90 92 96 98
50 43 39 51 57 64 60 42 40 34 36 33 31 32 33 36 54 51 50 55 55 56 50 53 59 64 68 68 78 70 74 72 74 80 89 80 79 79 66 82 84 85 87 82 88 92 92 93 93
35 52 52 47 65 67 51 41 49 46 37 34 32 33 38 40 38 39 51 56 62 60 56 52 60 66 69 67 72 71 71 71 73 82 79 77 75 72 82 78 79 78 76 69 80 90 99 98 98
35 42 56 52 48 57 55 51 49 50 43 35 36 34 34 37 36 37 42 49 58 65 69 71 53 64 70 73 76 77 75 71 74 73 73 66 70 70 67 64 63 64 62 63 71 82 87 88 98
38 38 47 54 55 53 59 54 49 44 45 43 40 37 36 37 37 31 37 50 59 65 67 61 52 54 65 77 86 85 81 80 74 76 70 66 60 60 63 60 55 57 59 63 66 64 78 69 79

GFSSGP_prec_cthk_060.txt.gz
RH
12 13 15 16 18 23 29 29 28 33 35 41 39 47 49 51 56 72 59 59 61 58 63 69 82 93 89 81 76 78 73 61 44 35 32 31 27 27 27 24 24 24 22 22 23 25 26 27 27
12 14 18 22 26 30 29 27 28 32 33 42 41 46 53 55 60 70 72 70 67 59 59 64 67 79 97 89 85 85 76 62 44 34 35 34 32 32 30 26 24 25 24 23 26 28 29 29 29
14 19 22 26 31 34 32 30 30 32 39 40 54 55 53 55 58 65 74 71 66 64 60 64 67 58 68 89 88 89 78 63 43 39 38 38 38 35 30 29 28 27 28 28 29 33 33 32 32
17 20 23 29 29 31 31 32 37 37 38 39 39 52 57 53 57 58 67 65 61 63 62 58 70 76 82 80 92 93 82 64 45 41 42 44 43 40 35 32 32 32 33 32 33 37 38 37 38
20 24 27 29 30 30 35 43 46 38 40 44 44 46 57 55 53 54 61 69 68 71 72 73 86 96 97 92 93 96 87 64 47 49 49 49 46 42 39 35 35 35 36 37 40 43 40 38 40
20 22 28 31 28 31 39 52 47 45 44 49 52 44 54 53 54 58 60 58 61 72 80 76 92 98 98 97 91 97 84 57 50 52 53 48 46 45 43 40 41 41 40 40 44 47 43 40 40
20 22 27 28 32 34 48 48 43 42 45 48 54 59 57 53 58 58 63 61 60 95 92 81 87 91 93 92 88 95 77 51 48 58 60 54 50 46 43 43 43 47 47 46 47 48 45 43 43
20 23 27 32 35 39 47 45 44 43 42 50 55 62 63 59 59 60 63 58 66 92 89 82 86 92 95 92 92 93 84 77 66 63 55 57 49 48 45 48 51 57 56 51 47 48 47 45 38
21 26 33 35 34 40 48 48 44 43 46 55 62 62 58 50 64 61 66 70 69 74 76 77 85 95 95 98 95 94 80 68 54 57 57 55 58 51 53 56 59 62 59 54 47 43 47 47 37
21 26 32 30 31 39 47 46 44 43 49 59 66 57 54 56 76 69 69 72 72 72 69 77 79 78 86 95 92 84 80 65 61 60 64 59 57 59 59 62 65 68 64 55 49 49 46 44 37
19 20 27 28 31 42 47 45 43 48 55 53 58 56 56 63 63 70 65 71 71 72 71 71 73 80 85 94 90 81 71 67 61 68 67 67 69 67 64 65 68 72 67 60 58 53 47 45 41
21 24 27 26 33 35 41 40 46 52 50 52 49 45 55 66 68 69 74 72 72 72 72 75 76 81 81 89 85 79 68 67 71 74 67 75 75 72 73 72 74 73 70 67 60 56 57 58 44
26 27 29 30 31 35 41 46 47 54 56 55 49 44 52 60 66 62 64 65 67 77 74 76 77 79 83 83 78 85 71 73 73 72 74 76 76 76 78 74 76 74 72 67 62 61 62 60 48
23 27 27 24 25 29 41 45 48 53 54 57 51 44 49 49 52 50 54 59 70 75 77 74 77 83 83 86 91 81 77 83 78 72 70 76 79 80 79 75 74 75 72 72 69 64 64 59 44
21 25 22 18 28 38 40 45 47 53 55 58 49 43 49 53 49 53 56 60 70 81 78 80 75 79 89 83 90 85 90 87 77 81 75 77 79 80 76 74 74 71 70 68 63 68 65 52 43
22 27 30 30 34 35 37 46 52 50 59 61 48 48 43 49 44 49 49 49 58 67 79 88 92 89 86 91 88 88 92 85 84 83 79 78 82 79 75 76 72 67 70 64 67 63 57 45 43
21 30 34 37 41 37 40 47 53 52 57 59 48 47 48 42 40 42 41 42 46 52 66 81 89 89 94 93 94 91 92 88 85 83 84 82 81 78 78 74 75 68 64 67 62 53 47 44 42
25 34 36 39 36 46 47 52 55 54 49 57 47 45 45 44 39 39 38 40 41 43 53 66 80 89 91 91 91 92 92 90 85 85 86 82 82 80 79 74 69 68 73 73 56 50 49 52 52
32 37 34 37 48 49 57 54 54 56 49 57 47 40 44 49 37 36 36 39 39 41 44 52 59 60 68 75 83 87 89 88 91 89 86 82 78 76 69 63 67 75 75 76 57 56 58 58 60
32 37 34 39 49 49 56 55 52 52 52 50 54 44 42 49 42 35 33 33 35 38 41 45 48 48 50 56 59 66 73 80 81 77 71 70 70 64 62 64 68 68 75 66 59 63 62 64 64
37 35 33 34 33 42 53 47 54 51 46 47 56 58 39 42 41 37 34 32 34 34 35 38 40 44 47 50 52 54 58 60 59 60 60 62 66 67 70 69 64 60 66 59 65 63 63 67 68
43 33 35 31 35 41 47 51 51 51 44 47 54 54 47 41 44 36 33 33 32 32 32 36 38 40 42 47 51 47 46 47 45 47 50 56 54 58 60 53 58 60 59 59 61 64 69 72 75
41 35 36 37 37 35 35 43 38 52 48 50 52 55 53 43 42 35 35 35 36 38 39 38 41 42 41 44 44 48 50 50 45 42 42 40 41 46 57 54 55 58 62 60 65 74 82 82 85
44 40 37 39 42 43 37 43 37 52 48 42 48 50 52 57 44 42 41 43 41 42 43 45 45 46 43 44 42 46 49 52 55 51 45 40 42 47 54 63 67 70 75 74 74 86 88 91 91
45 46 48 51 50 45 39 43 37 33 41 41 43 49 51 51 50 53 52 45 41 41 45 48 47 46 46 46 49 51 53 59 64 65 67 64 61 59 61 67 71 73 78 83 92 93 88 90 90
49 49 53 51 57 47 47 43 38 37 38 39 41 44 44 44 43 47 49 45 42 43 42 47 48 44 44 47 51 56 61 66 75 77 79 78 73 74 77 79 78 84 95 95 94 86 88 83 74
52 55 41 46 49 56 50 46 42 45 43 41 37 39 40 39 40 40 45 46 46 48 52 48 46 45 43 44 50 52 58 63 75 76 76 83 80 81 81 80 81 86 87 96 86 83 76 69 64
51 51 54 56 59 57 47 44 49 49 46 40 39 38 37 38 40 39 40 43 48 50 50 59 58 53 48 46 52 54 60 62 69 72 86 84 86 87 78 82 91 92 86 86 77 74 66 61 58
53 54 53 55 60 57 55 47 42 48 49 41 41 42 39 40 39 36 35 38 44 50 48 49 55 58 54 56 62 69 69 71 73 83 88 91 95 91 79 85 91 85 72 69 70 64 58 61 58
52 52 51 62 59 57 63 50 39 43 49 50 49 47 41 40 39 39 40 38 39 43 43 45 47 56 61 70 79 86 93 91 91 92 85 90 98 91 85 78 77 67 66 69 66 62 57 57 59

GFSSGP_prec_cthk_063.txt.gz
RH
13 14 16 17 18 26 30 29 26 28 28 33 36 39 47 54 54 54 63 64 67 72 68 69 73 71 71 94 93 82 78 67 58 46 39 36 34 27 27 28 26 23 21 21 20 23 25 24 21
14 14 18 23 28 31 30 28 29 29 28 34 36 43 43 48 55 57 58 63 70 73 72 67 72 70 65 67 95 88 87 75 56 42 38 38 35 33 31 29 26 22 22 22 23 26 29 30 26
15 19 21 27 32 32 31 29 26 38 40 36 40 40 42 45 49 52 57 68 75 74 72 73 68 63 64 69 87 93 88 80 49 40 41 40 39 36 32 28 29 27 28 27 26 29 32 31 29
19 21 21 27 30 30 29 33 31 36 39 44 47 48 46 47 47 50 52 59 65 65 58 62 65 65 67 69 75 80 85 77 44 42 43 43 42 38 35 31 30 32 33 33 32 31 31 34 33
22 21 24 28 30 28 28 32 39 44 48 48 50 52 53 52 52 54 54 52 56 64 67 67 66 69 72 81 85 91 94 73 49 45 46 47 44 41 38 35 36 35 36 35 36 36 37 39 37
20 19 26 31 34 32 30 37 42 44 45 45 49 48 56 56 51 52 52 58 62 63 70 85 77 78 78 91 86 98 94 78 52 47 48 48 44 43 42 40 39 40 41 42 41 39 43 40 38
22 20 26 32 34 31 31 38 40 43 42 42 43 52 57 57 51 57 62 69 70 76 80 78 85 95 98 99 98 94 93 82 62 48 50 49 47 47 45 44 42 43 44 44 44 46 45 42 40
22 21 28 32 30 30 35 40 40 40 40 40 47 54 55 49 50 58 67 68 66 72 85 89 97 94 83 87 98 89 90 84 71 53 51 49 49 51 50 46 43 43 45 47 48 48 45 44 42
22 23 32 30 29 28 32 40 38 39 38 44 50 54 51 44 45 63 71 77 69 76 85 93 96 92 88 93 96 93 88 86 77 73 59 51 56 54 51 49 47 49 51 53 52 49 50 46 43
23 26 30 28 29 28 30 40 40 43 47 51 56 55 50 45 46 69 71 75 83 85 92 88 87 90 92 86 88 95 91 91 90 84 81 70 56 51 53 58 56 55 53 53 54 50 46 45 43
24 22 24 27 31 27 30 39 41 50 53 53 53 52 41 43 51 59 69 71 73 71 74 79 83 88 86 83 81 86 89 89 92 93 82 61 60 56 60 62 59 58 57 57 58 52 47 48 45
24 22 23 23 29 28 35 42 44 51 50 51 52 40 38 44 52 53 61 70 70 70 79 80 86 93 87 89 90 92 83 78 79 78 83 72 63 63 64 62 63 63 64 64 62 58 53 50 46
26 23 24 24 26 26 36 44 44 47 52 56 53 41 35 43 49 52 58 62 63 64 72 77 79 82 88 95 91 90 74 66 66 71 79 70 66 68 68 69 69 70 65 66 66 66 58 60 56
27 24 23 24 25 29 39 43 46 45 54 58 55 42 38 38 39 39 44 48 54 66 72 82 96 83 93 88 90 84 80 77 76 69 79 72 67 69 74 75 75 74 69 70 68 62 62 60 57
27 22 21 21 25 34 38 44 44 42 53 57 57 40 39 44 44 39 43 48 53 62 75 89 92 98 83 92 89 80 87 90 73 76 80 74 73 74 78 79 76 75 74 73 67 66 66 61 57
27 23 26 28 30 34 36 37 38 42 47 59 54 40 37 40 40 36 39 40 47 56 69 85 83 84 97 92 88 82 94 82 83 87 85 80 79 81 80 82 77 75 75 71 71 69 66 62 56
29 26 29 31 38 40 42 41 40 42 48 54 49 41 40 36 36 36 38 36 38 47 59 77 85 87 91 92 96 89 95 86 83 93 85 84 84 84 83 80 74 75 69 68 67 67 64 62 54
32 30 31 33 39 42 43 44 46 47 51 52 50 42 38 35 31 33 36 35 36 42 51 70 84 93 92 94 94 92 90 89 95 89 86 86 85 85 81 76 75 72 69 70 68 65 62 59 55
28 31 35 34 36 39 41 44 49 49 51 51 50 42 34 33 31 31 32 34 35 38 45 54 70 82 90 91 98 98 95 95 95 86 86 87 84 83 82 77 75 69 68 68 63 58 55 57 60
32 33 36 35 37 39 44 48 46 50 48 45 48 52 40 35 32 29 26 28 34 35 39 44 50 60 64 72 82 88 95 93 93 89 90 89 85 83 82 79 72 68 69 75 63 56 59 65 68
34 31 36 38 34 33 40 44 49 43 51 47 46 53 52 39 34 32 27 27 30 32 34 37 41 44 47 54 63 76 80 82 82 84 83 81 80 81 78 74 71 71 71 71 68 61 66 68 67
37 33 40 40 37 36 36 45 39 46 49 45 46 52 49 40 35 34 31 28 26 27 30 34 38 44 44 46 48 52 57 64 73 76 77 77 75 71 70 68 69 69 66 65 61 64 64 65 71
39 45 45 43 40 37 35 41 34 41 44 46 47 47 48 42 39 31 31 28 32 31 32 33 36 37 38 43 49 50 51 50 53 55 61 64 68 72 75 67 62 59 56 61 66 64 65 71 80
42 49 50 47 45 46 36 39 37 43 34 37 42 49 48 50 43 34 36 38 37 36 34 39 41 41 39 37 40 47 52 54 53 51 49 50 54 60 62 56 52 52 56 60 62 65 73 82 89
48 51 62 60 54 46 36 40 33 32 31 28 36 45 48 49 49 43 44 39 38 38 39 40 41 41 42 42 42 43 47 51 53 58 57 52 47 46 48 52 55 62 66 71 78 80 85 93 95
46 52 64 61 60 46 40 45 33 32 34 29 38 43 48 48 48 48 41 42 41 38 35 37 40 42 40 41 44 45 47 53 59 66 64 63 59 54 55 55 58 65 73 77 81 92 97 90 92
49 55 51 56 59 61 48 40 31 34 36 35 39 43 44 44 43 44 44 46 48 48 45 44 42 39 40 39 41 47 49 51 57 68 71 71 74 77 79 77 75 78 83 87 94 95 92 85 84
48 54 60 62 66 64 50 45 34 30 35 38 38 39 40 39 38 40 42 45 48 50 51 52 51 56 53 49 45 47 57 62 66 67 75 80 83 89 93 90 86 86 84 88 94 89 88 81 75
52 55 58 59 65 60 55 49 34 28 35 40 38 34 39 49 40 38 39 40 44 49 51 54 53 56 60 65 67 59 58 66 72 72 74 77 91 90 94 92 87 82 90 90 91 85 83 73 68
51 57 58 65 66 68 60 44 37 34 36 41 38 36 38 42 46 39 36 38 41 44 48 49 53 55 59 67 71 78 81 82 87 87 86 85 91 90 94 85 85 88 91 87 76 77 74 71 66

GFSSGP_prec_cthk_066.txt.gz
RH
13 15 15 16 20 25 27 25 23 24 25 28 34 36 36 40 42 45 49 56 64 68 69 71 67 67 68 65 59 64 68 66 67 67 55 45 43 39 33 30 31 31 27 21 20 19 19 19 18
14 15 18 22 25 29 25 24 22 23 31 31 36 38 41 45 47 46 50 58 60 72 73 74 73 69 72 69 66 64 74 72 67 61 48 45 42 34 33 36 34 29 25 26 24 23 23 26 21
15 18 21 26 30 28 26 25 24 26 29 37 41 45 47 46 51 53 51 56 62 69 74 76 77 76 76 70 70 70 74 77 72 61 45 41 38 37 40 35 29 26 29 34 34 28 26 24 23
18 20 23 27 27 26 24 25 29 31 36 41 46 48 48 47 51 56 51 56 59 64 70 74 73 79 76 75 71 73 82 89 73 63 41 40 41 43 38 34 30 29 30 32 34 31 27 22 22
21 21 25 27 28 26 24 25 30 36 39 39 42 43 44 45 54 57 56 57 56 62 68 66 69 71 72 69 72 76 84 85 75 62 41 43 44 45 38 35 33 31 34 37 36 35 33 29 28
21 21 26 28 29 26 27 28 33 34 35 36 39 42 45 50 60 63 57 56 57 61 63 66 72 75 74 73 75 79 91 86 70 57 43 43 45 46 44 38 36 37 40 43 43 41 39 36 35
23 24 25 26 27 27 26 30 34 34 36 37 44 48 49 56 55 56 57 58 60 66 69 70 75 83 86 81 84 92 98 84 65 50 48 46 45 46 43 41 43 41 45 49 46 45 44 40 36
23 26 22 27 26 25 25 28 32 37 40 43 53 57 56 52 51 49 52 59 68 73 74 79 92 97 88 89 95 98 95 92 84 70 62 46 45 43 46 47 47 49 48 48 47 44 44 42 39
25 26 25 26 26 24 25 26 28 38 45 48 55 60 60 56 56 55 58 71 66 72 78 84 90 97 96 98 95 97 98 94 77 67 59 47 47 46 48 49 56 53 48 51 52 51 49 47 42
26 27 25 22 25 25 25 25 29 39 47 52 55 57 59 53 49 52 62 75 72 78 90 93 90 98 98 93 90 92 96 96 89 74 64 50 48 47 45 60 56 54 52 53 54 52 54 51 48
26 25 26 23 26 26 25 29 33 41 50 53 53 55 48 43 55 62 63 72 72 81 86 87 95 98 95 92 86 92 93 93 89 81 57 54 52 49 61 56 55 55 56 55 55 56 54 52 48
25 27 23 21 26 26 27 28 34 43 44 49 53 56 47 44 59 60 59 67 70 72 73 73 82 84 96 91 85 88 89 90 90 89 72 62 59 73 65 55 53 58 57 56 57 58 56 53 47
27 26 25 23 23 24 24 28 35 39 44 47 52 58 41 44 52 58 62 66 66 66 67 86 80 91 96 93 92 93 87 89 88 88 84 72 73 63 65 62 63 62 61 62 63 62 60 58 55
29 28 25 22 24 25 27 31 36 36 40 43 54 58 40 45 48 47 46 51 54 59 63 83 74 94 92 95 95 93 93 91 92 92 83 77 68 70 72 70 72 69 70 72 72 69 68 65 62
32 29 25 21 19 24 27 31 37 34 38 45 51 52 39 45 48 49 47 48 48 54 61 79 80 83 85 92 93 98 93 93 90 90 85 79 70 73 75 77 74 74 75 77 74 73 69 66 64
34 31 27 27 28 28 30 32 31 32 37 44 48 44 37 39 43 43 40 38 38 47 59 72 97 98 99 96 93 91 91 74 87 92 89 85 77 79 81 79 80 79 78 79 77 73 70 67 64
39 37 28 30 30 38 38 33 32 37 40 42 50 44 38 36 39 37 36 36 31 40 51 65 82 91 97 93 87 92 86 88 92 94 89 88 80 82 82 83 81 79 79 80 78 76 73 70 67
46 37 32 31 32 37 40 37 35 40 42 43 48 44 38 36 37 37 36 37 32 36 44 59 81 85 91 88 94 95 93 94 87 92 90 90 85 84 84 86 84 83 80 79 77 75 74 67 65
40 35 34 28 32 37 39 41 34 38 43 43 46 44 41 35 36 37 34 36 34 33 35 49 69 91 90 92 93 96 93 93 93 94 92 91 88 88 88 87 86 85 80 77 74 73 68 69 72
41 40 37 31 31 38 37 37 32 37 39 40 42 46 47 44 37 36 32 32 31 34 33 38 48 66 80 89 94 91 94 97 96 93 92 92 89 89 89 85 85 84 81 75 76 69 68 70 67
44 41 39 32 38 40 40 37 32 29 35 40 39 39 46 48 41 35 34 28 27 30 32 36 43 49 55 66 82 93 96 96 95 91 93 91 89 90 90 86 85 81 76 77 75 67 60 62 66
44 41 37 34 41 46 41 43 32 29 31 39 39 38 41 46 44 34 32 30 25 25 29 34 40 46 49 50 55 65 75 83 87 91 95 91 90 89 88 90 92 89 79 78 78 63 59 63 66
44 44 37 43 50 49 43 44 32 34 30 31 35 36 41 42 42 35 29 30 27 26 28 29 34 39 42 48 52 52 56 64 77 85 82 79 82 84 85 84 82 79 76 74 74 73 68 67 69
47 46 45 50 54 60 47 44 36 29 30 28 28 31 38 38 43 39 30 31 33 31 33 35 38 40 42 40 43 50 56 57 58 61 64 69 73 74 74 73 74 74 72 70 71 68 68 73 75
51 51 59 62 64 61 48 50 35 26 26 27 29 32 35 38 39 42 35 31 36 36 33 34 38 40 42 40 42 45 52 56 57 57 52 53 59 64 69 71 73 68 66 65 61 64 65 70 80
53 52 64 66 65 59 55 54 39 27 27 29 31 32 33 37 36 36 40 41 33 34 32 33 37 40 40 42 44 44 48 54 58 61 66 62 55 54 57 59 59 60 62 58 55 61 69 81 91
55 57 52 58 63 68 56 52 43 32 28 31 32 31 35 36 38 35 36 39 42 38 38 38 38 38 39 42 43 48 52 54 55 61 67 68 67 64 60 58 57 56 54 54 58 68 84 96 90
52 53 59 65 68 69 59 57 50 37 27 31 34 35 36 38 38 37 34 37 40 43 45 45 46 50 57 51 50 48 50 54 56 57 58 63 65 67 66 63 64 65 67 71 78 81 84 94 88
53 56 57 60 66 68 63 53 46 42 31 29 35 36 39 38 35 33 34 36 40 44 47 50 52 52 56 65 66 65 60 57 59 60 62 65 68 73 70 75 84 87 90 91 90 87 90 93 93
54 58 60 67 62 69 64 50 45 44 38 36 37 38 40 36 38 40 36 36 38 39 42 42 46 48 53 57 69 71 72 72 69 65 68 72 75 76 74 86 94 96 97 94 96 96 89 86 89

GFSSGP_prec_cthk_069.txt.gz
RH
13 14 15 17 18 21 22 21 20 21 25 27 29 32 31 36 39 40 43 45 54 58 65 65 63 62 65 69 70 70 69 64 65 72 70 61 55 44 39 31 34 37 34 27 27 28 27 23 24
14 16 17 20 21 21 21 21 20 21 24 28 32 36 37 37 42 46 51 53 58 61 67 71 67 67 68 69 70 72 67 64 64 72 70 60 50 42 37 32 36 35 29 25 27 26 20 21 22
16 18 21 23 24 22 21 22 21 23 25 30 35 38 41 40 45 50 52 59 60 67 81 73 85 84 72 74 70 69 67 65 63 70 65 57 49 43 40 35 39 33 25 25 25 24 23 22 20
19 20 23 25 25 24 21 21 23 25 31 32 37 38 39 41 45 50 60 60 62 67 83 81 70 73 76 76 73 71 71 69 70 70 71 52 47 42 42 43 37 32 34 36 30 27 23 23 20
21 22 22 24 25 25 21 22 23 26 30 33 36 37 39 42 48 56 58 62 62 69 81 85 86 82 78 77 75 73 75 76 75 75 69 58 42 42 50 46 38 38 40 38 33 30 26 25 24
23 24 23 24 26 24 22 23 24 28 31 34 38 43 47 49 50 59 62 63 63 71 81 84 84 82 77 76 78 76 79 84 78 75 71 50 39 49 52 43 36 36 39 41 38 37 34 32 29
24 24 22 25 26 25 23 25 25 27 31 35 42 47 50 56 56 56 56 60 64 70 77 83 87 83 76 76 80 80 85 88 86 78 72 53 46 51 50 42 38 40 43 45 45 43 41 37 35
25 26 25 25 24 21 21 24 24 28 31 37 46 50 52 56 57 57 56 60 62 67 77 82 89 89 91 86 85 88 90 96 92 82 67 57 44 49 50 44 41 43 48 49 53 47 42 38 38
26 27 25 23 26 20 21 22 25 27 36 41 46 50 53 55 50 50 53 58 72 80 82 84 90 94 95 92 97 96 97 97 94 83 75 55 51 51 49 46 44 50 53 56 54 47 48 46 42
27 27 24 24 25 21 22 23 26 29 38 42 47 51 54 53 44 48 59 63 76 74 80 88 90 96 94 99 99 99 97 96 91 90 74 59 50 49 49 51 51 53 60 58 54 51 50 47 46
28 26 24 26 25 24 24 24 27 30 37 41 45 49 49 49 43 55 65 69 73 74 78 85 90 92 93 95 92 96 93 95 92 94 73 65 62 56 53 56 56 63 58 57 53 51 54 50 51
29 28 26 25 24 25 24 24 26 33 35 39 44 46 51 47 46 54 61 60 69 71 69 69 79 89 98 96 98 94 96 97 96 91 77 68 59 56 55 57 65 59 55 59 59 59 52 55 53
31 30 26 25 24 23 23 24 25 30 34 39 43 47 51 46 46 48 50 54 57 61 58 63 75 89 96 93 96 96 96 92 92 86 72 62 60 55 59 63 64 62 60 57 60 56 57 58 55
30 33 30 28 24 24 23 24 28 28 33 37 43 48 48 42 45 47 46 50 49 51 54 59 84 81 92 96 96 97 95 91 89 85 73 69 65 68 63 72 66 63 62 60 60 63 65 62 59
31 35 32 28 25 24 25 23 29 28 32 38 45 48 45 36 40 45 42 45 42 42 49 61 93 80 87 96 95 96 93 94 91 88 80 74 75 73 73 67 66 66 67 68 70 73 73 70 66
34 36 35 27 31 30 27 26 29 31 36 38 45 51 46 35 34 40 36 37 37 34 46 56 69 80 85 90 94 99 98 97 96 90 84 81 82 75 74 71 71 72 74 75 76 75 76 74 69
37 38 39 29 28 33 33 26 30 31 36 40 43 51 46 39 34 37 34 36 36 34 40 47 65 90 94 98 96 99 97 98 98 90 87 82 77 77 81 79 79 78 79 80 79 77 78 75 71
37 42 38 32 30 33 35 33 28 30 37 42 42 50 49 41 34 36 35 38 36 38 38 43 63 87 97 97 97 97 93 98 96 98 91 82 79 82 85 86 85 84 84 83 81 80 79 79 76
38 37 36 35 32 32 32 35 32 30 33 38 40 45 48 43 38 34 33 33 32 33 38 41 58 85 93 94 96 93 89 91 91 94 86 86 85 84 88 89 89 87 84 82 82 81 81 81 79
40 37 36 37 36 34 30 34 34 32 30 35 39 39 46 49 48 40 33 29 28 31 34 40 45 65 80 89 89 94 96 92 94 96 98 95 90 86 89 89 90 87 86 86 83 81 79 79 79
44 41 39 40 37 35 36 36 35 31 28 30 36 37 42 44 49 45 33 31 28 28 32 34 40 47 58 65 81 89 93 94 97 97 98 96 92 90 90 90 90 86 86 88 85 84 81 75 78
46 44 42 42 40 33 38 38 36 30 24 25 30 36 38 43 49 46 35 30 27 24 28 33 36 42 47 51 59 74 85 92 92 95 97 99 96 92 91 91 90 89 90 87 88 90 82 73 73
45 45 47 43 43 38 35 41 38 35 24 22 22 31 35 37 42 42 37 29 28 24 26 29 34 36 40 46 52 56 65 76 89 96 98 96 95 93 93 92 91 95 89 90 91 85 70 71 66
48 47 47 48 48 47 41 48 38 35 27 24 24 25 27 35 39 40 38 31 28 29 29 33 37 38 40 39 43 48 54 59 69 80 85 87 89 93 95 92 93 93 89 91 86 75 75 68 64
49 51 54 60 58 49 46 51 39 38 32 24 25 25 27 31 36 38 41 31 29 32 31 32 35 39 40 40 41 45 50 53 55 61 65 69 73 76 83 85 84 86 86 83 78 76 74 72 68
52 53 57 58 60 52 53 54 40 39 34 25 26 28 29 31 34 37 38 37 31 31 34 32 34 38 41 42 41 43 47 51 54 57 61 58 63 68 71 73 77 80 79 80 78 74 72 70 65
57 59 54 58 62 63 55 50 43 39 39 35 29 29 29 30 31 37 38 37 36 30 32 35 35 36 39 41 41 43 45 48 53 55 60 66 65 59 60 65 66 68 70 71 69 66 63 58 58
53 55 62 65 63 61 55 55 47 40 41 38 28 30 30 30 34 36 38 37 36 33 35 36 41 42 45 49 49 47 46 49 51 54 57 61 67 64 61 62 61 61 62 61 61 60 58 57 65
51 55 59 57 60 58 58 52 47 44 42 43 33 32 35 35 35 35 37 40 38 36 36 38 42 44 46 54 63 66 62 57 56 59 62 64 68 73 72 71 67 66 66 66 66 64 61 67 82
55 59 59 63 59 64 62 55 49 47 47 46 41 31 32 36 38 39 38 37 37 38 38 41 44 45 46 48 53 62 67 67 67 65 63 64 64 68 70 73 76 71 64 66 73 74 81 90 89

GFSSGP_prec_cthk_075.txt.gz
RH
9 10 15 18 20 19 21 26 21 20 23 24 23 21 24 28 32 39 50 40 35 40 44 49 53 55 60 66 65 59 59 63 62 69 67 69 67 59 47 36 30 36 37 33 41 37 34 28 29
13 15 17 21 17 22 21 27 24 23 22 20 20 22 32 41 40 36 39 35 39 46 50 55 59 65 64 84 74 68 64 65 74 72 72 76 73 67 50 42 34 37 47 36 35 33 29 26 28
12 15 20 22 22 22 23 26 23 22 21 20 24 42 40 38 36 34 35 36 42 49 57 64 69 74 77 79 98 93 78 70 77 76 77 81 77 74 56 46 39 44 38 29 29 28 25 27 26
14 16 18 17 20 27 24 24 24 20 27 30 30 30 48 36 34 38 36 39 44 55 65 63 67 81 86 96 89 96 91 78 81 75 72 71 72 75 59 52 41 38 35 28 26 23 25 25 28
16 18 19 22 21 24 25 23 20 22 27 33 38 32 40 38 33 36 40 44 47 54 64 66 59 64 62 72 82 77 95 81 82 77 72 69 66 67 55 57 40 38 34 33 24 24 25 28 27
17 17 20 21 22 25 26 25 22 23 29 33 34 40 40 39 36 40 42 47 44 49 55 60 57 56 61 78 84 84 97 93 75 74 70 68 63 65 60 58 43 36 31 32 26 26 27 26 27
17 20 22 20 21 24 27 28 24 25 26 29 40 37 43 43 41 41 42 45 45 46 52 62 67 66 66 73 77 90 98 92 80 75 73 64 68 73 63 52 42 33 37 32 28 29 29 31 32
17 19 21 22 24 23 27 27 26 24 27 25 27 37 44 52 44 45 45 40 38 38 47 57 66 78 76 71 87 95 95 98 89 80 80 73 76 76 67 48 47 49 46 34 31 32 33 37 38
17 19 22 25 27 24 27 26 28 23 22 26 30 37 45 43 44 48 44 38 40 43 46 56 65 72 77 79 79 89 91 96 96 90 81 87 91 84 75 57 60 65 45 35 34 37 38 42 40
17 19 22 27 25 24 25 26 25 23 25 32 36 41 41 42 44 48 42 45 50 51 54 61 66 73 78 79 85 86 85 94 99 96 92 93 96 82 66 67 62 57 43 37 39 40 43 46 41
19 20 23 26 26 24 25 27 28 27 25 31 39 35 44 40 46 45 45 44 53 56 62 65 66 69 73 74 75 77 82 94 91 93 91 91 95 79 82 68 58 51 44 43 44 45 49 52 46
19 21 24 26 26 28 26 26 29 28 26 26 29 29 37 42 46 43 44 45 52 56 58 58 58 53 62 71 77 83 86 82 99 92 96 98 95 83 77 68 62 51 48 50 49 52 60 56 49
20 22 23 25 27 27 26 26 27 26 24 23 27 32 37 42 44 39 39 41 48 49 48 49 48 51 67 77 84 92 90 95 98 99 98 97 96 83 78 69 63 57 57 57 55 63 64 60 54
24 25 25 26 28 28 27 27 26 25 26 27 28 35 37 45 41 34 34 36 39 40 39 38 44 52 74 79 86 91 95 93 94 98 97 98 94 86 79 72 70 65 67 65 64 67 62 55 56
27 26 26 26 29 28 29 29 26 23 23 25 27 35 37 41 41 29 34 33 35 33 33 35 40 50 80 86 90 93 95 94 96 99 99 96 90 85 82 72 80 69 75 71 71 66 62 60 62
34 31 29 27 30 31 30 29 32 29 29 28 31 36 38 40 39 31 30 30 32 32 32 34 36 44 61 78 88 95 95 98 97 97 98 95 90 78 71 69 83 78 79 78 75 66 64 66 65
39 33 32 31 31 33 32 34 36 36 32 30 33 36 39 42 36 33 31 29 33 34 31 31 34 46 61 79 87 96 96 97 97 98 95 91 86 81 75 74 78 79 78 79 73 66 71 71 70
41 38 37 36 37 32 33 35 34 37 39 36 37 40 41 40 41 38 33 30 32 34 32 30 35 45 64 83 86 91 97 96 98 97 93 88 86 79 74 74 76 79 80 76 73 77 76 77 77
47 44 42 40 38 33 33 32 31 34 36 39 38 40 43 40 41 42 40 30 26 28 28 29 35 45 62 78 87 92 95 96 94 92 87 86 85 79 75 77 76 82 79 75 77 80 79 80 81
50 48 45 40 38 34 35 30 28 28 31 36 41 41 44 42 42 43 44 40 28 27 28 27 33 43 60 74 86 94 94 96 95 88 84 80 76 73 76 78 79 76 80 80 82 84 83 83 83
52 51 49 46 43 38 37 32 30 29 29 32 31 29 36 42 42 43 42 43 34 27 26 28 31 39 51 62 78 91 94 95 92 89 84 78 80 79 79 78 76 76 80 84 85 84 84 86 85
55 51 50 49 48 44 40 34 31 29 27 33 35 34 31 35 40 41 40 45 38 29 26 26 29 33 43 47 54 64 75 81 89 87 86 81 82 82 83 78 78 78 80 84 87 85 81 84 89
53 54 51 49 50 47 44 38 31 31 31 32 34 31 29 34 36 39 39 44 42 31 25 25 29 33 40 43 45 51 60 68 85 91 94 91 84 83 86 84 83 82 85 86 86 86 84 83 89
58 54 53 51 52 51 42 45 38 33 35 39 35 33 31 32 36 37 38 42 45 33 25 25 29 33 38 41 45 45 50 56 62 77 91 89 87 87 90 86 84 88 90 89 90 89 92 84 92
56 56 59 59 57 54 44 42 40 37 39 39 37 36 34 31 37 36 38 39 44 33 25 25 28 31 34 38 42 43 46 49 53 61 68 80 86 90 89 88 86 87 92 93 91 90 88 86 89
58 57 55 61 61 53 46 43 39 38 38 43 38 34 36 33 33 31 34 39 43 39 29 26 27 31 32 36 39 42 43 45 47 48 56 63 67 75 78 85 88 87 92 94 92 92 92 87 90
65 57 51 54 63 64 57 47 47 41 41 43 44 44 39 35 39 37 33 39 43 44 34 31 28 30 33 33 35 36 39 42 43 45 47 51 57 59 63 64 68 72 75 84 87 85 83 84 86
63 63 60 58 68 69 56 49 56 49 42 44 45 46 47 44 43 34 34 39 42 47 45 35 33 29 32 33 34 35 37 41 47 48 48 51 52 52 56 56 59 61 66 76 80 80 79 79 81
61 60 64 61 59 65 66 57 50 52 48 44 52 51 50 50 45 36 37 40 41 45 49 43 38 33 32 33 35 35 37 39 41 47 54 56 59 60 63 64 66 66 66 68 69 72 77 79 81
63 57 64 66 67 62 60 60 52 54 54 48 52 51 54 52 48 41 42 43 46 48 49 52 44 37 35 36 38 39 40 42 42 45 47 54 59 61 65 68 66 67 66 68 71 71 73 75 77

GFSSGP_prec_cthk_078.txt.gz
RH
8 9 13 19 22 20 22 24 24 22 23 25 24 20 18 20 26 39 48 46 40 41 31 34 36 47 56 60 62 60 64 62 65 69 66 70 65 57 50 40 33 30 29 31 31 32 30 25 28
9 14 18 20 23 21 23 26 27 26 24 24 21 23 25 38 39 41 43 31 24 33 35 35 41 45 55 65 81 85 80 71 69 69 77 71 66 60 54 46 39 38 34 42 36 35 27 28 30
10 15 18 23 23 25 25 25 26 24 24 22 21 25 36 35 37 33 25 24 27 33 36 39 47 52 58 62 72 85 92 87 74 76 75 74 70 70 60 49 43 42 43 40 40 31 24 29 28
12 16 16 17 18 20 27 26 26 23 23 26 29 27 40 42 39 32 28 31 33 39 41 43 53 63 71 78 82 85 89 98 93 88 80 80 80 72 71 51 52 50 44 32 34 28 24 27 26
13 17 19 21 21 24 26 25 24 23 24 27 31 32 29 37 36 33 30 32 37 47 47 45 52 65 65 66 65 68 82 89 98 91 78 81 79 76 73 58 55 50 39 29 26 26 24 26 25
17 18 19 19 24 23 25 26 25 24 23 25 30 34 42 41 41 41 34 36 36 45 46 44 48 60 62 59 61 70 81 84 98 96 83 75 74 72 72 64 59 48 35 27 26 30 25 25 24
17 19 19 20 23 23 24 27 26 25 27 24 25 34 38 44 51 40 38 42 37 36 37 43 46 53 62 62 66 82 83 89 98 90 82 75 74 71 64 62 51 49 33 26 30 31 26 25 28
17 19 19 18 21 24 26 28 27 27 28 27 23 23 33 48 41 36 40 41 34 33 34 37 44 51 61 69 70 76 88 82 98 94 89 78 73 67 70 64 45 39 33 28 31 34 27 29 32
18 20 17 19 23 27 27 28 27 26 26 23 22 27 30 33 32 37 43 38 32 37 39 41 48 52 68 75 70 75 82 83 98 94 89 84 76 72 71 73 54 40 35 32 42 32 30 32 35
19 20 17 18 25 28 25 26 27 28 28 28 30 35 35 38 37 38 46 39 38 42 46 45 51 63 76 84 77 74 79 92 88 98 97 93 83 82 86 85 65 43 33 41 48 35 34 35 39
18 18 18 20 26 24 24 25 27 28 30 29 30 31 34 36 34 38 45 39 39 46 52 54 55 58 63 68 72 77 77 86 86 98 92 91 85 92 98 86 66 48 44 52 48 35 37 39 45
21 19 21 22 26 25 23 27 27 28 28 29 28 25 25 28 34 42 39 40 40 39 45 48 49 49 52 64 70 74 78 77 76 93 97 93 90 92 95 88 71 53 58 53 44 38 43 43 49
24 21 21 22 25 24 24 27 29 28 28 27 25 23 23 25 35 43 35 37 36 37 33 38 39 43 52 65 71 78 83 86 87 88 99 93 91 91 93 80 65 60 59 57 45 47 50 48 53
26 25 23 23 24 25 25 26 30 27 25 25 26 26 26 28 34 41 36 34 33 31 29 31 36 40 52 61 73 79 87 86 84 85 94 93 96 89 89 87 75 62 55 56 52 55 56 56 58
32 30 27 24 25 26 27 26 29 28 28 25 25 25 28 31 34 37 36 31 30 29 27 28 34 38 43 55 73 83 90 90 92 89 95 95 95 91 92 84 80 70 62 55 57 60 58 59 60
37 36 33 26 26 26 29 27 31 32 29 27 26 28 31 31 33 35 32 31 28 26 27 27 30 35 41 55 68 82 87 92 96 95 92 96 95 95 87 87 82 74 71 63 63 62 62 63 63
45 42 37 33 30 30 31 28 34 36 34 36 36 38 36 34 34 34 32 31 29 29 26 25 26 33 40 58 70 78 89 88 92 93 95 94 94 93 88 88 85 83 78 71 71 67 65 64 65
44 40 41 40 34 38 33 30 33 41 42 38 39 40 45 42 37 35 35 35 30 30 26 26 25 32 42 61 74 79 90 89 89 90 93 92 90 91 88 90 96 92 86 82 74 70 67 67 68
50 50 48 46 40 39 39 33 31 36 39 39 39 41 46 49 41 38 37 35 34 33 27 26 24 30 46 57 72 81 86 88 91 92 87 87 87 86 92 92 85 87 90 81 77 73 73 72 72
49 49 50 47 48 43 39 34 31 33 33 35 39 42 42 48 47 38 37 37 35 34 27 26 26 31 43 56 69 83 88 89 91 90 89 86 87 86 84 81 77 79 82 80 77 74 82 81 78
52 54 52 50 50 47 42 37 33 31 31 31 32 35 37 45 43 42 36 37 36 35 29 26 26 30 40 51 63 77 88 92 91 90 88 83 79 80 84 83 77 76 78 78 77 79 83 82 80
65 60 59 56 56 58 47 40 34 33 32 33 30 29 31 33 40 42 37 36 37 38 31 25 23 29 37 44 51 58 65 74 82 85 87 83 81 79 77 78 75 72 77 79 77 77 87 86 82
74 67 70 69 58 56 47 45 35 33 33 34 34 36 33 34 33 39 37 36 39 40 32 24 23 28 35 41 46 49 53 57 62 72 77 78 77 79 77 78 78 76 75 75 76 86 89 88 87
76 72 75 68 61 58 48 49 39 37 35 36 35 37 37 36 32 35 38 37 39 42 35 24 22 27 33 39 41 44 46 48 54 61 71 79 81 78 80 81 83 77 76 75 78 88 87 85 88
75 71 86 81 66 58 46 46 38 36 37 39 43 37 35 35 35 36 39 38 38 41 36 24 24 26 29 35 39 42 44 44 47 52 61 66 69 67 74 82 86 82 81 81 82 87 88 88 87
73 68 88 78 71 61 48 46 39 38 39 39 41 39 38 40 41 40 38 37 38 39 38 30 24 24 28 31 35 39 43 45 46 47 52 57 63 65 70 75 80 83 82 84 84 86 88 88 90
78 73 68 83 80 92 62 45 45 40 37 39 42 42 38 42 41 41 39 38 36 38 40 36 29 27 28 29 33 35 41 44 45 46 49 51 56 60 63 64 68 69 73 79 84 89 88 86 87
79 72 74 81 83 88 68 62 50 47 43 43 46 46 44 47 50 51 46 39 38 39 43 43 35 31 30 28 29 33 35 39 45 50 53 53 53 58 59 57 58 58 56 59 65 70 77 80 82
75 76 83 83 79 81 71 64 58 58 52 50 50 51 52 52 53 51 48 46 41 43 44 45 44 38 35 31 31 32 34 36 39 43 48 50 58 59 60 62 63 66 66 64 66 64 66 75 79
73 69 71 86 88 74 80 70 58 60 56 52 52 53 51 53 55 55 50 49 48 47 46 45 49 47 42 38 34 35 37 36 36 41 42 45 47 52 59 62 63 65 67 68 67 68 69 70 74

GFSSGP_prec_cthk_081.txt.gz
RH
9 9 14 18 22 20 27 25 25 27 27 25 24 27 22 20 26 36 40 40 39 33 26 27 30 33 36 45 50 53 59 62 62 68 75 61 53 49 47 43 39 33 30 23 21 27 26 27 30
9 12 16 20 22 25 29 25 29 28 27 25 26 25 24 29 34 39 39 31 26 20 21 25 32 35 40 49 54 60 65 66 68 71 64 60 60 62 50 43 42 37 33 29 26 28 27 28 31
10 15 18 21 23 23 28 27 25 25 24 25 24 23 27 36 33 34 34 28 20 23 23 27 35 40 46 52 68 71 74 90 86 84 75 67 69 64 58 43 47 49 43 39 34 28 31 34 34
11 16 17 19 18 18 24 28 26 25 26 25 27 26 29 30 31 33 29 25 23 27 28 35 40 46 53 67 74 80 83 86 91 98 88 76 68 73 64 56 53 54 53 38 33 28 34 34 30
14 17 19 20 16 22 23 30 29 25 25 27 29 28 30 31 30 32 33 32 29 33 34 42 46 49 55 61 72 81 84 82 74 87 98 88 71 74 68 58 59 60 51 38 32 29 33 31 31
16 16 20 21 18 21 24 29 28 26 23 24 24 28 34 37 37 39 39 33 32 39 38 41 46 47 53 56 65 69 65 63 68 78 96 96 84 75 72 67 68 59 49 40 31 29 30 32 33
17 21 21 20 19 20 24 28 27 24 23 26 26 26 36 36 33 34 34 30 33 38 37 32 37 44 51 55 59 64 62 62 63 72 85 93 88 76 83 79 66 53 46 32 31 29 28 31 35
17 22 20 19 20 20 27 27 29 28 26 26 25 25 36 32 29 30 27 30 34 30 32 37 39 44 50 57 63 65 66 70 73 78 82 98 85 70 69 77 74 60 41 35 30 30 31 35 38
20 23 20 17 17 23 28 32 31 26 26 26 26 26 26 28 31 31 32 33 36 32 36 39 47 55 55 60 71 77 68 76 81 91 93 94 80 73 69 69 65 51 36 35 34 31 33 39 41
21 22 17 15 16 25 27 31 31 27 26 26 27 29 32 33 32 32 28 33 31 35 39 44 48 57 70 70 78 80 74 80 84 91 99 94 84 73 71 73 65 45 35 33 31 31 36 48 45
20 21 16 15 16 25 26 26 30 28 27 28 31 33 35 34 30 30 31 34 31 36 40 48 50 53 56 59 66 72 73 79 81 93 95 96 86 75 73 75 67 53 43 32 31 34 46 49 45
26 21 19 18 18 24 24 25 24 26 27 30 31 30 30 27 24 25 29 34 28 32 34 35 38 43 48 61 71 79 78 78 78 88 98 96 91 80 80 80 70 60 49 37 34 42 54 48 47
28 23 22 21 19 20 22 23 23 25 28 30 29 29 27 24 25 26 31 34 26 29 30 29 30 33 40 54 65 82 83 84 83 83 92 95 88 84 88 83 71 64 54 42 39 49 54 48 50
32 28 24 23 22 19 21 23 24 23 30 29 27 26 24 24 26 28 31 35 28 27 30 29 32 31 35 39 51 68 80 84 87 86 82 88 91 92 87 87 69 60 57 48 49 54 57 48 50
36 32 27 26 23 23 23 23 22 24 31 28 28 24 24 26 25 29 32 33 28 25 29 30 30 29 33 36 42 58 81 86 89 88 87 90 93 93 86 87 73 60 55 58 60 61 57 50 49
40 37 35 27 26 24 25 24 22 26 30 29 30 28 25 27 29 33 33 30 30 24 27 29 30 30 33 36 48 62 79 85 91 91 90 89 94 92 91 88 73 60 59 63 71 65 60 51 49
46 45 39 34 33 31 30 27 24 31 31 30 29 29 30 31 36 34 33 30 30 26 24 26 28 31 34 38 52 64 76 82 92 95 93 89 96 96 93 90 83 73 70 67 70 70 62 55 55
50 48 44 38 38 39 37 34 30 31 33 33 36 36 35 37 39 35 30 29 31 31 28 25 24 29 37 40 58 67 76 83 87 93 97 96 95 97 92 91 88 82 74 70 75 73 64 59 60
54 55 50 44 42 49 45 44 36 34 36 38 36 36 35 35 39 40 37 32 30 34 33 26 21 27 34 40 60 70 79 87 86 88 93 96 96 96 92 88 88 83 81 75 76 72 66 68 66
49 52 48 44 45 51 50 46 40 38 36 37 35 36 35 36 39 42 38 37 30 32 32 28 22 23 30 42 59 72 81 86 84 87 88 90 90 90 92 90 89 90 93 91 82 73 72 73 74
49 55 58 55 48 53 58 57 48 38 33 32 33 34 36 36 39 43 40 39 31 30 32 31 23 22 28 39 52 67 79 87 89 89 88 87 84 85 87 88 88 95 96 92 91 83 76 73 75
47 58 64 79 84 78 73 66 49 40 37 34 34 30 31 32 37 41 39 37 35 31 33 32 22 22 28 36 44 56 62 69 75 82 82 82 83 81 83 87 90 93 93 87 86 83 76 73 77
52 60 74 84 92 84 72 74 48 41 38 35 32 31 30 31 34 38 36 33 36 32 33 33 22 22 29 34 40 46 49 55 59 64 66 70 78 82 85 81 80 85 85 83 82 79 77 79 81
66 78 77 86 96 98 72 74 50 39 35 33 36 32 30 30 34 34 34 34 35 33 34 35 22 24 29 34 37 39 43 47 51 55 60 67 79 83 78 80 77 75 76 75 74 77 81 81 80
86 96 98 99 98 89 62 62 49 38 38 38 39 35 31 34 35 37 39 34 33 32 35 34 23 23 28 31 35 38 41 44 46 49 54 61 66 72 77 81 82 79 78 80 79 80 82 78 81
84 96 95 90 92 79 56 51 40 38 41 43 41 37 35 38 36 39 40 37 34 31 32 36 28 22 23 30 32 37 39 41 43 48 51 53 57 59 65 72 80 82 85 84 84 86 81 81 88
77 87 84 93 97 95 77 52 42 46 43 45 44 40 40 42 40 43 43 41 35 31 32 34 37 28 24 25 32 35 37 39 42 45 48 50 53 53 56 62 68 73 73 75 82 84 83 85 89
72 77 91 96 95 96 72 73 62 49 47 46 45 45 44 46 46 48 46 48 38 31 32 36 38 35 28 27 28 33 34 37 41 44 48 54 57 59 56 54 54 59 61 64 67 69 75 78 83
79 82 96 97 91 98 97 87 87 74 55 52 52 52 48 49 52 54 51 50 49 37 36 40 42 43 38 33 32 31 35 36 37 40 44 48 51 58 66 67 64 60 58 63 65 64 63 61 65
72 81 89 98 96 84 95 94 91 81 72 59 55 56 54 55 56 55 52 53 55 49 43 45 46 44 46 45 40 36 35 36 38 38 40 44 47 49 51 57 66 68 66 66 67 67 64 65 66

GFSSGP_prec_cthk_084.txt.gz
RH
10 9 13 16 20 21 23 25 23 21 22 22 23 25 26 28 27 24 27 31 30 32 31 26 23 23 30 38 41 44 50 51 52 56 51 51 55 56 49 53 54 47 41 32 28 22 26 30 33
10 11 15 18 22 24 26 23 23 21 23 24 24 25 27 31 27 27 30 29 28 26 21 20 22 24 32 41 46 51 55 65 60 55 60 62 55 60 49 42 42 41 34 29 28 30 29 31 32
10 12 16 19 24 24 27 23 23 22 23 24 25 25 26 30 30 29 27 27 27 24 21 24 26 31 34 42 51 59 65 66 69 71 86 68 74 74 61 40 37 39 38 33 33 30 29 31 31
11 16 18 19 19 17 23 25 26 22 23 24 26 29 29 27 27 27 28 29 29 27 26 27 30 37 42 50 62 68 77 75 82 81 92 90 91 73 55 42 43 41 42 43 43 36 31 32 35
13 17 20 20 16 19 21 24 24 23 23 25 26 27 30 29 29 28 30 33 32 29 29 30 35 41 47 52 57 63 77 85 88 92 89 91 92 91 66 51 53 54 60 51 42 38 34 33 33
14 17 21 22 16 17 21 23 23 23 24 28 26 29 33 33 30 30 31 32 30 28 32 35 35 37 44 49 58 66 71 85 88 87 81 76 95 94 77 59 64 68 64 46 43 41 35 32 33
16 19 19 18 16 15 22 24 23 26 28 28 26 31 34 31 32 32 31 30 31 31 31 30 32 36 38 44 52 61 69 75 74 69 67 71 87 97 89 78 70 70 62 54 40 35 35 37 36
15 20 20 20 18 14 23 24 25 28 28 27 27 32 33 30 32 32 28 31 33 31 29 30 34 38 43 46 52 60 65 66 70 66 68 73 83 96 90 78 76 61 54 53 49 38 41 40 38
17 23 23 21 17 14 22 23 23 27 25 25 27 26 25 28 33 32 27 32 32 34 29 32 38 43 47 55 58 66 73 79 82 74 78 78 83 95 95 89 81 64 55 49 46 46 42 42 39
21 23 20 16 14 14 23 24 22 27 25 26 27 27 28 30 33 32 29 30 33 32 30 36 40 44 52 61 62 71 79 84 83 80 81 84 89 96 90 76 81 66 46 48 42 40 40 44 44
22 22 19 15 14 16 22 22 21 23 22 24 27 29 32 34 32 32 27 25 31 31 31 31 34 37 41 49 55 68 77 79 84 84 95 95 97 97 77 75 76 71 49 48 42 36 46 45 46
25 21 21 19 16 17 22 22 20 23 22 24 25 28 32 34 31 27 24 23 30 31 29 25 27 30 33 38 55 66 79 84 85 87 90 90 98 93 82 74 70 51 44 38 36 36 43 43 50
30 25 22 21 19 19 21 21 20 20 23 26 26 26 30 32 29 28 23 26 29 34 28 27 26 30 32 33 41 53 74 88 92 87 96 98 97 89 74 70 65 59 49 42 35 40 46 49 54
34 32 28 26 24 22 22 22 22 18 21 25 26 26 27 28 27 28 25 25 29 35 30 28 28 29 30 33 36 42 57 85 94 89 92 98 95 85 72 73 69 65 60 55 48 50 52 55 62
37 35 32 29 26 25 23 21 20 18 21 24 27 29 28 27 27 25 26 26 28 33 31 27 28 29 29 31 36 42 60 87 92 94 93 98 97 86 78 82 74 69 62 58 58 54 55 55 67
38 36 34 31 31 30 27 22 21 20 22 24 25 27 28 27 29 29 29 27 30 32 28 26 28 28 26 30 35 41 60 82 88 93 93 95 95 92 87 84 71 66 60 57 54 53 54 61 63
42 40 35 35 38 39 35 27 25 24 25 26 25 26 29 29 31 32 33 30 27 31 28 26 28 27 26 30 34 48 64 77 91 95 94 95 94 91 94 88 77 69 58 55 55 56 56 62 64
46 43 41 41 46 47 42 31 30 32 31 31 28 28 30 30 32 35 41 35 27 31 32 31 28 29 28 30 36 54 66 81 86 95 98 97 96 94 95 91 84 73 62 59 61 63 62 60 63
47 46 45 44 47 47 46 35 31 33 35 34 30 28 31 31 35 38 41 42 35 31 33 32 30 28 29 28 38 58 71 85 86 93 96 97 95 97 95 95 85 76 74 68 64 68 73 71 68
44 46 42 38 46 53 54 45 35 37 38 36 33 32 32 35 37 38 40 41 38 34 33 32 30 25 27 34 39 59 70 80 84 85 91 98 96 96 98 98 90 84 84 81 72 72 75 75 73
34 38 39 42 50 56 61 50 43 36 39 36 32 32 33 32 35 37 39 38 40 38 33 33 31 23 26 31 39 61 74 82 83 86 89 93 95 97 97 96 92 87 85 84 80 74 75 74 75
38 36 40 44 58 64 76 75 51 49 43 37 31 33 33 32 34 35 38 36 38 38 36 34 33 21 22 30 39 49 61 70 76 80 88 89 92 92 92 89 89 90 89 86 84 82 79 76 76
43 43 48 51 59 65 66 88 45 55 49 38 33 34 33 32 31 33 37 36 39 38 40 36 33 21 20 30 37 43 48 55 61 67 71 74 82 88 91 93 93 92 91 90 94 92 87 86 79
48 54 58 59 68 74 50 79 47 55 51 40 34 34 35 35 32 31 37 38 38 39 41 37 34 22 21 30 34 39 43 45 51 56 60 62 69 81 88 93 94 96 92 94 97 94 91 89 83
58 67 78 87 85 63 51 71 49 48 48 42 40 37 34 33 34 35 38 39 38 36 38 37 34 22 20 28 33 37 42 45 47 50 52 57 65 77 83 89 89 90 90 95 94 95 91 88 86
69 74 86 94 89 76 64 60 56 46 49 49 45 40 34 33 33 34 38 40 38 37 38 38 34 25 19 23 30 35 40 43 45 46 49 51 57 68 77 77 82 86 88 89 91 92 90 87 83
71 84 85 98 97 98 80 61 49 60 59 55 49 45 37 34 37 37 41 43 43 40 35 37 37 33 22 20 27 32 35 39 41 46 48 50 53 57 64 72 74 74 76 80 85 82 83 82 84
64 79 99 97 96 97 78 79 88 72 72 63 56 52 43 41 42 44 42 44 46 43 37 39 41 39 35 24 23 29 34 37 41 45 49 52 55 57 58 58 62 64 65 66 66 67 75 85 87
66 85 95 98 97 95 94 94 91 81 87 75 65 57 52 49 48 48 46 48 51 50 43 42 44 44 43 36 29 27 32 36 38 41 45 47 52 56 61 64 61 57 59 61 62 66 67 67 70
60 73 85 99 97 91 91 85 94 94 93 80 69 70 63 55 51 51 56 57 60 61 52 46 47 48 50 50 45 36 31 34 37 39 40 44 48 50 53 56 59 61 64 65 66 67 69 69 65

GFSSGP_prec_cthk_087.txt.gz
RH
11 9 12 14 18 21 21 22 22 20 22 22 22 24 29 30 30 28 30 29 23 24 25 26 28 31 29 30 32 36 41 41 43 45 47 48 50 55 53 55 62 57 57 50 37 34 38 36 33
11 10 14 17 22 23 18 21 23 21 22 23 23 26 29 30 29 29 29 24 23 24 25 23 24 26 27 30 35 40 46 49 52 51 51 56 61 62 62 61 62 59 50 45 39 35 38 32 32
11 12 15 18 24 24 19 21 22 20 22 23 22 25 26 29 29 27 25 23 24 25 25 24 23 26 30 35 38 44 51 54 62 61 65 62 68 71 68 62 53 46 43 41 39 35 35 33 33
12 13 16 21 21 18 17 23 23 21 21 21 22 28 29 28 28 28 24 20 27 28 30 27 27 30 33 39 43 49 57 60 65 69 75 68 74 82 83 74 64 50 42 39 40 36 38 33 31
13 17 21 21 18 15 14 19 24 22 20 21 24 27 30 29 30 27 27 22 24 27 29 29 30 32 36 43 49 59 68 74 74 84 87 86 86 83 85 87 73 48 42 42 50 40 40 33 32
14 18 22 22 16 14 15 20 23 22 20 20 25 30 31 31 31 30 32 27 25 27 30 31 31 34 36 40 50 57 66 76 79 86 89 91 87 86 89 90 77 56 47 46 49 50 43 37 37
15 18 20 18 17 14 15 22 22 21 20 20 27 31 31 31 32 31 33 29 25 27 29 29 31 33 37 40 44 52 61 72 79 84 93 91 88 73 76 90 85 71 78 64 52 52 46 39 32
16 19 20 19 18 15 12 20 22 22 21 22 26 31 31 29 30 33 37 29 28 31 31 29 32 36 39 41 44 49 58 65 74 76 74 73 69 65 76 87 87 89 79 61 61 50 39 39 39
19 21 22 20 18 15 14 20 22 21 21 22 23 23 24 27 31 35 37 27 27 31 30 29 34 41 42 45 48 53 57 60 67 72 73 74 71 70 82 89 94 94 74 64 68 55 48 38 36
22 25 22 18 15 14 16 21 22 22 22 21 23 22 24 27 31 31 33 28 28 28 29 26 31 36 38 43 51 54 60 64 70 80 80 79 78 80 85 91 96 94 67 57 58 59 50 46 41
23 22 20 18 16 15 15 19 22 22 22 20 20 21 24 28 32 32 31 28 26 27 30 26 25 30 32 33 37 44 54 71 77 82 86 85 83 85 86 93 98 91 64 56 56 62 63 50 43
27 24 22 21 19 18 16 16 21 22 21 20 21 20 22 28 31 31 28 27 25 27 31 28 24 26 31 32 34 38 52 65 77 84 85 87 86 94 96 93 96 94 71 62 59 56 53 45 39
32 29 27 25 22 19 17 16 19 22 20 21 21 21 23 25 28 29 31 28 28 27 29 32 24 25 27 32 33 36 41 48 62 84 91 92 93 98 98 95 91 80 66 56 52 51 49 48 44
32 32 31 29 27 25 22 19 20 20 20 21 22 22 25 25 28 28 30 28 28 27 28 31 26 25 26 28 30 34 42 48 66 86 93 95 98 97 97 82 76 71 62 60 54 48 48 47 46
34 35 35 34 33 29 25 22 19 20 21 22 21 22 25 25 27 31 29 28 27 29 30 29 27 24 25 26 27 33 39 50 74 94 94 98 98 96 89 78 75 66 61 55 50 50 50 51 48
39 37 39 36 36 33 30 22 22 21 21 21 21 22 25 25 27 30 31 30 31 33 30 29 27 23 25 25 26 32 39 59 83 96 97 98 97 95 88 73 73 71 65 62 62 65 65 61 56
41 44 41 40 41 38 35 26 26 25 24 23 22 22 23 24 27 29 34 33 35 37 30 30 29 25 26 24 27 31 43 65 82 94 97 93 99 96 88 75 78 75 71 64 63 72 73 66 63
47 44 41 41 41 41 36 30 29 29 26 25 25 25 25 25 26 29 33 35 39 40 32 31 31 31 25 23 28 32 48 66 79 94 97 96 96 97 93 86 84 70 70 64 64 73 72 67 63
45 47 48 45 44 46 40 34 32 30 30 28 28 29 27 25 27 32 35 37 41 44 36 31 31 31 24 21 26 35 55 67 83 87 96 97 96 96 94 96 91 77 70 66 64 66 69 66 65
47 50 51 47 46 50 45 33 31 32 29 30 32 32 31 29 28 33 36 38 40 43 45 33 31 30 25 21 24 36 57 73 82 83 91 99 97 98 97 97 95 81 72 70 63 62 65 70 70
37 38 42 46 52 53 50 35 29 26 30 32 33 35 33 30 29 33 36 39 40 42 45 36 32 31 27 21 25 36 59 73 80 82 86 91 97 97 99 98 97 84 74 75 68 67 68 70 71
33 35 39 45 51 53 52 48 30 26 30 34 35 37 35 33 31 34 36 37 39 40 48 43 34 33 26 22 27 33 55 66 77 80 83 89 96 96 97 98 97 87 81 83 83 77 75 74 79
38 43 50 52 56 57 54 63 23 25 27 29 36 39 38 35 33 34 34 35 37 41 48 49 38 35 26 22 27 32 41 50 60 70 79 84 89 93 93 95 98 93 90 87 86 86 87 82 80
49 51 51 57 62 65 47 62 27 25 21 25 37 43 40 38 35 33 34 38 39 43 51 50 41 36 28 21 28 30 34 41 50 59 64 65 77 82 89 90 93 92 88 90 92 90 85 84 82
51 57 73 72 75 62 53 68 36 30 31 29 35 44 41 39 36 34 36 39 40 40 48 48 41 37 28 20 27 31 33 36 41 46 50 54 57 67 78 86 94 93 90 89 86 88 90 91 89
60 66 73 79 84 86 70 66 55 55 47 37 38 44 44 44 39 35 34 37 38 40 46 43 39 37 27 20 25 29 33 34 37 39 42 46 53 62 71 78 85 92 90 90 92 95 91 91 89
69 75 70 81 80 86 78 66 65 61 57 52 55 48 46 41 37 34 37 41 41 41 46 44 43 38 30 21 24 28 32 33 35 39 42 46 51 57 64 70 78 82 88 91 94 94 91 95 94
57 65 85 97 96 92 74 70 82 84 79 65 57 60 52 44 39 38 42 43 44 50 54 51 45 42 38 28 24 25 31 33 35 38 41 46 50 53 58 65 71 73 77 81 83 84 88 91 93
65 75 85 91 95 98 90 76 97 93 88 80 74 65 56 49 46 50 50 50 52 58 59 56 50 47 46 42 34 29 29 34 36 38 42 45 49 55 58 60 62 62 63 65 65 67 69 70 71
51 67 84 95 94 97 98 83 93 90 92 88 81 74 66 60 60 59 57 54 60 64 66 64 61 56 53 53 51 45 38 35 36 38 40 44 48 49 52 55 60 63 68 69 71 70 68 68 70

GFSSGP_prec_cthk_090.txt.gz
RH
10 11 11 14 17 20 21 17 20 19 20 21 22 22 23 24 26 28 30 30 26 25 24 23 22 23 25 29 30 29 31 33 40 46 49 53 59 65 64 61 59 53 54 52 54 42 37 45 48
13 11 13 17 21 21 16 18 19 20 19 19 20 21 23 25 28 27 29 29 25 23 23 23 21 22 25 27 31 30 31 37 43 48 53 64 70 70 72 74 69 61 59 58 53 44 39 47 43
13 12 15 19 25 20 14 18 19 21 19 20 20 21 21 24 26 26 28 28 24 22 26 26 25 26 28 29 33 36 36 39 43 47 60 64 69 70 71 70 75 73 72 65 54 45 40 41 36
13 13 15 20 23 19 14 17 20 21 20 20 21 21 22 24 24 26 28 27 26 20 23 25 26 29 30 32 36 41 41 44 48 53 61 66 73 82 76 75 74 73 68 66 58 42 40 36 35
13 16 20 22 21 17 13 15 18 20 21 20 21 20 23 24 26 28 27 29 28 21 23 24 27 30 32 37 42 48 52 54 60 64 72 74 85 84 84 79 85 83 74 62 50 43 35 37 38
16 18 23 21 17 14 12 12 15 20 22 19 20 22 22 24 26 27 27 30 28 24 23 25 27 29 33 42 49 48 57 67 66 71 80 86 88 92 92 84 85 87 81 62 53 47 42 39 38
18 21 22 18 17 14 12 12 18 21 21 20 20 23 24 24 26 28 28 31 31 26 22 25 28 28 35 41 46 49 57 63 70 75 81 85 91 93 91 89 80 79 85 68 63 50 45 42 38
20 21 22 20 17 16 12 11 16 21 22 21 21 25 25 22 25 28 30 32 32 26 24 24 26 29 36 40 45 48 53 56 63 74 80 83 86 90 77 74 76 85 84 77 67 51 54 43 43
23 24 23 19 20 16 14 13 16 20 22 21 22 23 24 22 24 28 31 33 32 28 25 25 26 31 37 37 45 51 54 58 62 64 69 74 74 72 73 71 71 86 92 90 79 59 56 51 49
27 27 22 19 18 16 14 13 18 19 22 22 21 23 24 24 24 28 30 31 30 28 24 24 26 27 31 32 35 43 50 54 59 65 70 72 78 77 75 71 76 89 97 93 73 60 62 51 40
29 27 22 21 20 17 16 13 19 21 22 22 22 22 21 23 23 28 30 31 31 29 25 23 25 25 26 27 30 35 39 45 57 64 72 80 79 85 82 78 84 89 99 94 72 68 64 54 42
33 29 27 25 23 21 18 14 16 19 21 23 23 23 20 20 23 24 27 28 31 29 27 25 24 26 23 28 29 33 37 39 46 53 61 70 82 88 86 86 91 96 97 91 66 58 54 58 52
34 32 32 31 28 24 21 19 15 16 19 21 23 22 20 19 21 23 27 30 32 29 30 28 25 27 23 24 29 32 34 35 40 48 58 71 74 89 90 85 88 92 95 79 58 54 52 65 58
34 35 33 32 32 29 27 22 20 16 14 20 23 22 22 21 20 24 26 30 31 28 30 31 28 28 25 24 27 28 33 35 41 47 61 77 89 92 92 93 95 96 95 77 64 58 56 57 52
36 33 34 35 36 35 33 27 24 20 17 17 22 23 23 22 24 23 25 29 30 32 31 34 31 29 25 25 27 26 32 33 41 50 71 94 95 95 96 97 98 98 95 75 69 66 54 55 51
43 41 41 35 35 38 38 29 29 26 23 20 20 24 24 24 24 23 26 32 34 35 33 36 33 29 28 26 27 27 29 35 41 66 89 96 95 98 99 98 97 97 92 73 68 60 61 62 54
47 49 44 40 39 40 38 31 30 30 29 25 23 22 24 25 25 22 24 30 36 38 38 39 35 30 30 29 28 26 31 35 51 78 90 98 98 99 98 97 90 89 83 72 70 59 55 53 52
51 46 42 41 40 42 40 33 34 35 34 31 27 24 23 23 22 23 24 28 34 38 42 40 34 31 32 32 30 26 31 38 60 78 93 98 98 98 95 87 82 79 78 70 75 73 72 69 59
46 51 48 45 45 42 41 34 37 34 32 33 31 27 25 24 25 25 26 28 33 40 42 43 35 31 32 30 28 24 27 44 62 81 91 98 93 98 93 89 86 88 84 78 80 78 73 74 79
47 51 52 47 44 46 43 32 33 32 30 30 31 31 27 26 28 27 27 30 35 40 41 45 41 31 31 29 27 24 27 50 65 78 85 96 96 95 94 91 92 90 78 73 71 71 73 76 79
41 47 47 44 45 43 45 25 27 28 26 25 28 32 30 28 30 30 30 33 37 40 41 45 45 35 32 29 25 25 29 55 70 76 82 92 97 96 98 94 95 90 80 74 67 70 76 76 78
34 35 38 44 44 46 46 41 23 20 18 21 22 28 29 29 30 32 32 34 35 39 43 44 49 41 34 31 23 23 28 50 64 74 79 82 92 98 98 96 95 96 90 85 73 76 79 75 74
34 38 45 49 51 53 51 44 26 20 16 15 16 18 28 31 32 31 33 34 36 44 42 45 51 46 36 33 22 25 29 39 51 61 75 79 84 92 98 98 99 98 95 89 78 74 81 76 73
40 46 53 56 51 59 43 45 27 25 27 31 30 23 23 31 34 33 34 36 37 41 46 46 50 49 38 33 22 25 28 36 44 52 62 70 81 86 91 98 98 97 95 89 85 84 80 77 79
45 50 60 55 57 63 48 58 35 37 39 53 41 31 27 30 34 34 34 36 37 39 42 47 50 49 40 34 22 24 29 34 39 46 53 56 60 69 76 89 93 95 96 93 87 88 86 86 91
52 44 56 63 73 69 54 69 52 50 61 59 52 43 35 33 35 34 36 36 36 37 40 45 51 47 39 35 23 24 29 34 37 42 45 46 47 53 62 72 83 85 92 93 85 88 87 88 88
53 55 56 67 70 78 62 57 49 59 63 63 58 52 45 42 44 39 38 37 37 39 40 44 50 45 40 37 23 24 29 33 35 39 43 44 46 50 59 65 71 82 88 88 86 85 87 90 87
41 54 67 78 88 85 73 79 74 75 75 74 68 62 57 50 43 44 42 41 43 46 46 46 54 53 47 41 27 24 30 32 35 38 40 44 47 51 54 62 66 71 76 79 81 83 85 86 87
60 66 71 72 82 90 90 79 82 81 88 85 86 76 73 68 60 52 51 50 50 51 50 51 59 58 53 46 36 26 29 32 36 39 44 47 51 52 54 58 61 63 66 70 76 77 79 80 80
62 68 69 78 88 91 94 73 77 86 91 90 89 86 84 84 75 66 61 59 59 56 55 62 67 65 58 51 48 40 32 31 36 37 41 44 47 52 55 57 58 61 66 68 70 70 69 71 72

GFSSGP_prec_cthk_093.txt.gz
RH
10 12 12 14 14 16 15 13 15 16 17 18 19 19 19 19 23 22 23 26 26 24 23 20 18 17 19 21 25 28 32 33 32 36 41 44 49 54 58 61 58 57 55 52 51 46 43 40 44
12 12 13 16 16 15 12 14 14 16 17 19 20 20 20 20 22 23 25 25 24 24 23 20 19 19 22 25 28 30 33 37 37 42 47 49 57 67 65 70 69 62 54 55 54 54 43 41 51
13 13 14 16 18 13 11 12 15 16 17 19 20 19 19 21 22 22 23 24 25 24 21 20 18 19 23 27 30 33 35 35 40 54 64 67 74 77 81 81 77 74 74 63 59 52 46 41 53
15 14 15 17 16 16 12 15 17 18 19 20 21 19 20 21 22 22 24 25 25 25 24 20 19 21 23 27 31 37 42 42 42 43 47 55 63 68 76 84 86 87 81 74 68 61 53 44 45
16 15 16 18 16 16 14 16 18 18 19 20 22 20 22 22 22 22 25 26 27 26 24 23 21 23 23 26 33 38 47 52 57 58 55 60 64 68 75 85 93 95 94 81 72 67 54 44 40
18 18 19 15 14 17 14 11 12 13 17 21 21 22 22 22 23 24 26 27 29 27 24 23 22 24 24 28 35 41 47 56 61 68 62 66 69 81 81 90 91 97 93 88 83 69 58 43 36
20 21 18 18 17 16 14 11 11 12 15 20 20 22 23 23 24 24 25 27 29 28 25 23 23 24 26 30 35 39 44 49 59 62 66 67 79 79 89 89 89 90 92 87 83 75 61 41 41
24 22 22 19 16 17 15 13 11 14 16 21 23 25 24 25 25 24 25 28 30 30 27 25 24 25 26 30 33 40 46 50 55 63 68 73 77 79 86 86 81 76 88 91 87 68 63 45 44
30 27 23 20 19 17 17 15 14 13 16 20 23 24 27 26 27 26 25 28 31 31 28 27 24 27 30 27 29 35 45 52 57 60 63 67 71 74 79 81 75 70 79 90 89 71 70 52 49
31 28 25 23 20 18 17 15 13 15 16 19 21 22 24 23 24 27 25 27 31 31 28 29 26 26 32 28 27 29 37 44 49 52 60 63 71 76 77 76 73 69 81 93 94 85 62 58 50
33 30 29 26 24 21 19 17 14 15 17 18 21 22 24 23 24 25 26 28 29 31 29 29 27 27 30 32 27 27 33 38 42 47 50 54 60 68 76 80 77 79 83 94 93 86 67 62 57
35 33 30 29 28 25 22 20 17 15 16 19 20 21 24 23 23 22 23 26 30 32 31 30 30 28 26 31 28 27 31 35 37 42 47 51 57 66 74 82 82 81 85 96 93 88 65 61 64
37 34 33 31 30 28 26 22 20 17 14 18 20 22 25 24 22 21 21 25 31 33 33 31 31 33 29 28 30 26 30 34 38 39 43 49 55 69 76 79 85 85 91 98 95 76 69 69 54
37 36 34 32 31 31 30 27 26 23 17 16 19 21 24 24 22 21 19 22 27 32 34 34 34 36 34 26 28 29 30 35 37 37 42 48 54 69 76 81 91 89 92 98 95 79 70 58 55
39 38 35 35 35 34 33 29 28 26 23 19 15 18 21 23 21 19 19 21 24 30 37 36 35 37 37 29 28 29 28 31 32 35 41 49 68 80 90 91 93 94 93 91 97 77 63 59 63
46 44 43 38 35 34 36 29 30 31 30 27 23 18 17 20 21 21 21 21 23 29 36 37 36 41 39 33 30 31 30 31 35 34 46 63 86 94 96 98 97 96 96 96 92 74 65 63 70
49 46 48 44 39 36 35 31 31 32 33 33 32 29 24 20 22 23 23 22 22 25 34 37 39 41 39 35 32 33 30 31 32 39 54 82 91 98 99 99 97 98 99 94 88 76 66 67 61
49 50 46 44 42 40 37 35 35 35 35 36 36 35 30 26 22 21 23 21 22 23 32 36 42 40 39 36 34 34 30 31 35 48 70 87 97 96 99 98 97 99 99 95 88 77 73 61 56
45 48 46 45 44 43 38 35 36 37 35 35 36 37 35 32 27 23 22 21 21 24 30 34 40 42 39 36 34 34 28 30 38 59 72 86 96 96 99 99 98 99 99 93 87 77 66 63 62
48 48 47 46 45 44 40 35 34 35 35 35 35 35 35 33 30 25 22 23 23 26 30 35 41 43 40 37 34 33 24 29 46 64 79 88 99 98 99 98 98 96 90 86 78 77 70 69 62
43 45 46 45 44 43 43 32 31 30 31 32 30 28 28 29 30 29 24 24 26 28 31 35 40 45 45 38 34 33 23 29 49 67 74 88 94 96 97 90 88 85 86 89 82 82 78 77 82
38 36 37 41 43 41 44 38 30 24 23 22 22 25 25 22 24 28 26 26 27 30 36 39 41 46 48 42 34 31 21 28 42 62 72 82 88 92 96 93 90 91 90 87 85 84 83 73 71
33 32 36 43 46 50 42 42 24 21 20 30 32 34 31 24 21 25 26 28 31 34 38 41 43 48 50 45 35 30 22 29 37 50 59 78 85 92 96 97 92 93 94 88 87 84 81 77 75
42 47 55 57 53 50 34 36 31 27 28 31 34 36 34 28 24 26 27 28 33 36 40 41 44 48 52 49 36 30 22 28 36 45 53 62 75 87 93 99 95 95 94 91 87 85 85 82 78
45 44 56 51 56 38 41 46 35 40 45 45 43 39 37 34 31 28 29 29 34 38 41 42 44 48 52 50 38 30 23 30 35 42 52 58 64 75 83 92 96 97 95 96 96 92 89 86 82
48 45 43 43 52 51 44 35 38 51 50 49 47 47 42 38 36 32 33 32 35 41 44 45 45 48 54 52 41 32 24 30 35 39 45 51 54 57 65 72 82 89 93 92 96 94 87 86 86
58 55 49 53 56 53 43 41 45 53 57 60 58 53 53 49 41 36 33 35 36 43 47 46 46 48 55 52 42 32 25 30 34 39 42 45 47 51 54 61 69 76 81 83 89 87 83 82 79
51 50 56 59 63 64 49 53 55 58 58 63 67 65 61 57 51 43 34 37 42 47 53 53 52 55 58 54 44 32 24 29 34 37 40 43 46 49 52 60 67 76 80 81 83 89 80 81 81
52 52 56 55 59 61 64 52 61 64 73 76 81 77 74 66 63 54 44 44 53 56 56 57 56 58 61 57 49 38 24 28 35 36 39 43 47 49 51 54 61 67 69 72 75 75 69 70 75
53 57 55 54 69 67 76 56 64 72 74 77 83 80 79 77 72 67 62 63 64 64 64 66 61 61 65 62 57 43 27 28 35 36 38 41 46 50 52 55 56 58 62 64 64 65 62 66 67

GFSSGP_prec_cthk_096.txt.gz
RH
10 11 11 14 15 13 11 11 12 14 14 14 15 15 18 19 22 23 20 22 23 21 21 22 20 17 16 18 21 25 26 29 34 38 44 51 46 49 51 54 56 55 50 45 46 47 49 44 42
12 12 13 17 13 13 11 12 11 13 15 15 16 17 18 20 21 23 23 22 23 22 21 21 19 16 16 19 22 26 28 29 32 37 45 47 50 52 57 59 60 60 56 56 54 54 49 42 42
14 14 15 14 14 11 12 12 11 13 14 16 18 19 20 21 23 24 25 22 22 22 23 22 19 16 17 20 22 26 30 31 32 35 41 67 76 81 82 76 72 72 67 64 56 54 51 45 45
16 16 16 15 13 14 12 12 14 14 14 16 19 20 20 22 25 26 23 22 23 24 24 22 20 17 19 20 23 25 30 35 41 48 56 62 71 79 77 83 87 88 83 74 78 63 51 50 48
18 18 16 16 13 12 14 14 16 17 15 16 18 20 21 23 22 24 23 23 24 25 24 22 21 18 19 20 24 27 31 37 46 56 59 58 59 66 71 74 77 91 96 95 88 76 60 57 52
21 19 17 14 15 15 15 13 16 16 16 15 18 19 20 25 23 23 23 24 24 25 24 22 21 19 19 22 27 30 34 38 48 56 67 66 65 64 71 74 81 84 91 98 94 84 71 62 51
24 21 16 15 15 15 16 14 12 12 13 16 16 19 21 26 26 26 24 24 24 25 25 24 22 20 21 24 29 32 35 38 45 53 67 66 64 72 81 86 88 89 88 93 94 94 82 68 54
27 23 22 18 18 17 17 16 13 12 14 14 15 20 23 29 28 28 25 23 25 26 26 26 25 22 23 26 29 30 33 39 43 49 59 75 84 88 84 89 80 78 83 83 88 95 92 75 53
32 27 23 20 20 20 19 17 16 15 15 15 17 21 26 23 26 30 29 26 25 27 28 27 27 24 25 28 29 30 33 38 39 44 52 66 75 74 76 71 73 74 80 74 86 94 95 82 57
33 29 25 24 22 24 20 19 18 16 14 15 16 21 23 25 27 29 29 27 25 29 30 29 29 27 23 25 31 28 33 37 40 40 46 49 62 69 75 72 71 73 81 75 88 97 94 86 64
36 31 30 28 26 27 24 20 19 17 14 15 17 18 21 25 25 28 30 28 28 30 32 33 31 28 27 25 28 31 30 35 38 41 40 45 49 52 57 65 74 81 82 78 90 98 93 89 64
37 34 33 31 31 30 28 24 22 20 16 15 18 18 18 23 25 27 28 30 29 30 29 35 32 29 29 29 27 28 28 31 37 41 42 41 42 48 53 59 76 80 81 83 91 95 94 89 74
40 39 35 35 33 31 29 27 25 24 21 15 16 18 19 21 24 24 25 28 30 29 28 32 34 32 32 32 29 25 27 30 36 40 40 40 42 52 54 61 75 78 86 90 89 96 96 86 72
43 41 39 36 34 32 31 29 29 28 26 21 17 19 19 21 24 24 24 27 25 28 31 30 34 35 35 33 30 26 25 28 31 37 39 41 45 50 54 63 77 82 88 88 89 92 96 82 65
44 43 41 39 38 35 34 30 29 29 29 28 22 18 20 21 24 23 24 25 24 26 30 32 33 36 36 38 35 30 29 28 28 32 37 41 48 55 61 77 86 83 91 89 88 95 92 82 68
45 45 42 40 39 35 36 30 31 30 30 31 30 25 20 21 21 23 23 22 23 25 28 33 33 36 38 41 38 31 32 31 30 30 33 37 45 54 72 84 90 88 92 92 91 92 93 83 73
53 47 47 47 44 38 34 32 33 31 30 31 32 32 29 23 21 20 22 22 22 24 27 31 33 34 39 43 39 35 33 34 32 29 36 42 51 68 81 92 94 93 95 94 91 90 89 80 74
58 54 50 50 47 43 37 36 36 33 34 34 34 34 33 31 27 22 20 21 23 24 26 29 33 33 40 44 41 38 35 34 33 30 34 50 63 84 92 98 99 97 98 98 96 94 87 83 73
59 57 54 51 48 45 41 39 39 36 35 36 35 34 34 33 33 31 27 23 22 24 26 28 31 31 40 41 42 39 36 33 33 31 43 60 76 89 99 98 98 98 98 99 98 93 89 85 72
65 64 55 52 55 48 42 39 39 38 36 34 33 33 33 34 34 34 34 30 24 23 23 27 30 31 39 42 43 40 36 32 30 31 54 72 78 89 98 98 98 98 98 99 97 89 80 78 70
60 57 55 56 51 46 42 38 35 34 35 31 32 32 32 32 32 32 33 33 29 25 23 28 33 31 39 46 46 42 38 31 29 33 59 68 80 94 97 97 99 99 99 98 95 86 79 76 70
52 48 46 50 52 50 48 41 36 33 30 29 31 40 38 36 32 30 31 31 30 28 28 31 36 34 41 46 49 45 39 29 27 33 51 64 81 88 95 97 98 99 99 97 94 88 79 70 63
47 44 43 43 43 47 47 50 33 25 27 31 34 37 37 37 33 28 26 27 29 32 30 33 38 38 43 46 52 49 43 30 28 34 46 56 76 87 92 95 98 98 98 97 93 89 79 82 79
46 47 51 53 57 59 40 38 31 31 33 40 43 42 41 41 37 32 28 24 27 31 32 35 38 42 45 48 54 52 44 31 29 33 43 52 64 77 87 94 93 92 92 91 95 93 91 90 87
56 52 61 66 63 46 33 33 31 39 47 46 42 45 46 44 41 35 31 29 26 34 35 37 41 45 48 50 54 54 44 32 31 34 40 50 61 71 84 90 98 95 94 95 94 92 92 92 89
59 51 57 50 44 42 40 40 42 48 47 49 47 47 48 45 41 39 37 33 31 35 41 39 45 48 51 53 56 57 47 28 33 35 38 45 55 60 68 84 91 92 94 96 95 94 95 93 93
63 57 52 44 49 46 36 35 42 51 50 47 47 49 49 48 44 42 40 36 34 35 45 43 47 50 55 59 61 60 47 30 33 35 39 41 46 49 59 64 70 80 80 88 90 91 95 92 93
54 50 55 53 60 51 41 43 52 53 56 51 49 51 52 50 50 46 47 39 32 38 47 48 51 52 55 61 66 63 47 33 33 35 36 39 43 47 53 58 66 69 78 88 88 86 90 90 90
64 59 55 54 52 49 47 52 57 57 56 55 55 56 56 55 54 54 53 44 39 44 50 57 57 55 57 63 70 66 49 35 33 36 35 39 42 44 48 52 60 65 68 75 80 83 86 86 84
58 54 46 48 59 54 53 51 57 48 52 59 64 67 64 66 63 63 61 56 48 52 54 61 61 62 61 67 74 68 54 38 33 38 38 39 43 45 48 50 54 62 66 72 74 73 75 78 73

GFSSGP_prec_cthk_099.txt.gz
RH
7 9 11 13 15 14 11 13 13 15 13 12 12 13 16 22 29 35 35 25 23 22 19 19 20 17 15 14 16 20 24 25 29 33 38 49 57 51 55 52 53 50 49 49 46 47 47 44 44
8 14 14 15 18 14 15 13 14 13 17 14 13 12 14 18 20 26 27 21 25 23 19 19 20 17 15 14 18 21 24 28 30 32 36 39 55 56 59 59 57 58 57 50 48 52 51 48 43
11 15 15 17 15 14 12 13 15 13 17 13 14 14 17 21 23 27 28 21 23 25 25 21 20 18 16 16 18 21 25 30 34 35 37 40 48 60 65 73 68 68 65 62 58 59 56 49 45
18 17 16 17 16 14 14 13 13 15 16 12 15 19 19 23 27 26 27 22 25 25 26 22 21 19 17 17 18 22 26 31 39 40 44 53 63 67 67 79 94 84 85 81 81 75 60 54 51
22 19 18 16 15 14 14 15 15 17 17 15 15 17 23 24 25 28 26 24 25 26 27 22 21 20 17 17 20 23 27 33 39 47 55 63 69 66 67 73 77 89 98 97 95 92 73 54 59
26 23 20 17 17 16 15 15 16 17 18 16 14 15 22 26 26 28 27 27 25 25 22 21 22 20 18 17 20 24 29 33 43 49 56 58 62 70 67 67 72 76 85 84 84 98 89 76 65
30 26 22 19 18 17 16 17 17 16 18 17 17 16 19 27 28 32 29 30 26 21 22 22 23 22 19 17 19 23 27 34 38 45 54 57 63 62 62 65 75 79 88 87 90 87 94 92 82
33 31 26 22 20 17 17 17 18 16 15 16 16 16 18 32 31 34 31 30 28 22 22 24 25 24 21 18 19 21 24 31 36 44 55 59 67 73 77 82 81 85 83 83 84 84 96 90 94
37 33 29 25 22 21 19 19 19 18 15 17 16 17 25 26 29 30 32 34 28 29 27 25 26 26 27 24 22 24 25 29 32 37 48 55 65 74 74 76 79 73 78 79 81 81 91 95 94
41 37 30 28 25 25 21 22 22 20 18 19 18 18 19 18 25 30 33 33 29 29 30 25 26 28 33 29 26 26 27 29 31 34 41 50 58 71 70 71 75 68 71 77 77 88 95 93 93
38 33 36 32 31 29 23 23 24 23 21 19 18 20 21 21 24 30 33 32 30 28 30 29 26 30 34 33 30 30 31 32 32 35 39 45 51 60 66 62 62 61 69 78 79 82 90 96 94
42 36 36 37 36 33 28 27 26 25 23 20 19 23 22 18 21 24 30 34 31 32 30 30 25 29 35 36 34 31 31 30 31 34 38 46 45 52 56 59 58 63 74 83 84 87 91 94 96
39 38 39 39 38 37 34 32 29 28 27 24 20 18 20 17 18 21 24 28 34 36 33 30 25 27 31 36 37 32 28 26 26 31 35 38 38 45 51 57 62 64 70 83 84 84 89 92 96
47 46 43 44 41 37 36 34 32 30 30 27 25 20 18 17 17 19 21 26 30 34 35 30 25 26 30 39 41 34 29 31 26 25 33 35 37 37 45 55 60 62 71 82 82 87 89 94 96
49 52 48 43 44 40 37 35 31 32 31 30 30 26 21 20 20 20 23 25 27 31 38 30 26 27 29 35 42 40 34 34 31 26 31 34 37 38 47 56 61 68 77 84 84 87 89 96 97
52 55 51 43 45 44 43 32 34 35 33 30 30 31 27 23 21 21 23 24 27 32 37 35 29 25 29 31 36 44 43 33 34 31 33 31 35 37 49 61 70 79 88 91 83 86 92 95 97
54 51 47 48 45 45 43 35 35 35 35 33 31 31 32 29 25 24 23 24 27 32 34 36 30 28 28 31 34 39 45 35 31 33 28 29 34 37 49 64 74 82 91 89 86 89 89 98 96
50 57 56 52 51 51 47 39 38 37 36 34 33 32 34 33 30 27 24 25 27 28 32 36 33 30 29 31 35 38 42 38 33 33 29 29 33 44 49 70 84 89 93 90 89 91 92 97 94
57 59 65 59 56 57 53 46 41 37 38 37 37 37 37 36 35 34 32 28 27 26 30 34 33 30 30 30 33 39 40 42 37 32 30 34 41 59 64 72 87 90 95 93 94 93 96 97 94
63 85 76 65 60 59 54 51 45 41 42 42 39 39 35 35 37 38 37 36 33 29 27 30 31 32 29 29 32 41 42 45 43 33 32 35 51 64 73 82 94 97 98 98 97 92 92 94 94
67 74 67 64 60 61 59 54 44 40 41 42 39 35 35 37 37 37 36 36 37 36 33 30 32 35 29 30 38 46 47 49 44 35 32 33 49 63 78 87 97 97 98 98 97 94 93 92 94
56 61 66 65 71 72 55 51 45 43 44 42 38 38 38 40 40 40 40 38 37 36 35 37 35 35 30 35 40 46 48 49 44 36 30 32 45 55 79 87 98 98 97 98 98 99 98 94 94
53 60 66 68 61 57 55 57 48 46 45 43 40 45 50 52 51 47 42 41 37 35 35 37 38 34 30 37 43 50 54 51 45 35 29 32 45 51 68 81 95 99 98 99 99 98 96 94 89
63 60 55 55 52 54 48 50 51 46 41 46 56 51 51 53 52 47 45 41 35 32 34 35 39 37 33 37 46 49 56 54 45 33 30 38 45 50 64 78 95 98 99 98 99 96 90 86 86
63 61 68 67 64 56 52 54 47 55 53 54 53 51 51 53 49 44 42 40 37 35 30 37 41 40 36 40 46 53 58 57 49 35 32 35 44 51 64 77 91 98 99 98 96 94 94 93 89
62 61 75 70 70 60 52 44 43 58 50 47 50 53 51 52 47 44 43 40 39 35 33 37 43 40 38 41 50 57 61 58 53 36 33 35 41 50 58 67 84 96 95 97 98 97 96 95 88
63 66 64 78 67 59 51 58 68 55 56 54 55 56 54 48 47 47 46 44 42 36 34 39 43 42 41 44 55 60 61 60 54 38 34 36 41 45 52 57 67 83 91 95 95 95 97 95 94
68 57 72 67 66 52 48 52 71 71 64 55 54 55 53 52 51 50 51 50 46 35 33 39 42 47 45 52 58 62 64 63 56 40 36 37 42 42 46 52 60 68 80 85 88 90 92 91 92
66 70 67 60 55 68 71 69 72 63 55 52 58 56 57 55 54 57 58 57 54 44 44 48 49 51 50 56 62 67 68 66 58 44 39 40 42 42 42 50 56 61 68 78 80 97 96 95 91
58 69 60 72 63 63 67 82 69 45 51 61 61 61 61 60 59 61 62 66 61 56 58 54 56 56 57 60 66 70 72 70 60 48 42 41 42 44 42 49 54 60 65 70 77 81 85 88 87

GFSSGP_prec_cthk_102.txt.gz
RH
7 7 7 11 14 14 11 10 12 14 13 13 16 14 17 23 27 37 37 31 24 18 17 16 16 16 15 13 13 16 19 22 25 30 33 37 41 42 48 48 49 49 52 58 58 59 54 50 50
8 9 13 13 15 15 13 15 15 14 15 16 14 13 14 19 23 32 33 29 22 17 16 16 16 16 15 14 14 16 19 23 27 32 38 39 41 46 49 54 53 54 56 59 58 56 54 51 47
11 15 18 15 14 15 15 13 14 15 17 16 16 13 14 17 21 26 29 25 20 16 16 17 17 17 16 15 15 16 19 24 29 33 38 42 46 50 52 64 66 64 75 68 62 58 56 55 48
16 20 21 17 15 14 14 14 16 15 16 15 15 17 17 22 25 27 28 21 22 20 16 17 18 18 16 15 15 18 22 25 31 37 43 49 52 54 63 62 77 91 96 94 82 79 68 59 53
23 24 22 19 16 15 16 16 15 16 15 18 14 14 21 21 25 29 29 24 22 21 17 17 18 18 16 15 15 19 22 26 32 41 44 47 52 60 72 70 71 81 85 92 94 99 93 76 64
29 26 24 21 18 17 16 15 15 16 18 19 17 15 19 24 27 32 29 24 22 20 18 17 18 18 17 16 15 18 23 27 30 36 40 45 53 61 72 74 75 74 75 77 79 85 88 87 81
35 30 26 24 22 20 19 18 17 18 17 19 20 17 15 27 29 30 28 26 24 23 19 17 18 20 20 17 15 17 22 26 29 33 39 49 51 61 69 69 68 70 70 75 80 82 81 85 87
40 38 31 27 26 23 20 20 19 19 18 18 21 21 19 30 35 35 32 30 25 23 20 18 18 20 21 19 16 18 20 23 27 31 38 47 54 58 63 74 77 82 80 81 83 76 74 86 88
45 42 30 29 29 24 22 22 21 19 18 18 18 19 22 25 37 36 35 32 27 24 21 19 19 20 22 20 19 19 20 21 24 27 34 43 55 70 71 72 78 81 80 75 73 74 76 83 88
43 44 28 33 31 27 24 25 28 22 20 20 18 18 22 22 32 34 35 31 30 27 25 21 20 20 22 23 21 22 21 21 24 26 30 37 50 64 70 76 75 76 77 71 66 74 74 84 90
42 38 33 35 33 33 28 28 30 24 24 22 23 22 23 22 23 30 34 33 30 28 28 22 22 21 23 25 25 26 25 22 24 26 29 33 41 54 66 75 77 72 68 67 63 74 77 84 87
49 34 38 37 39 38 34 30 32 24 25 26 25 24 24 23 22 22 27 33 36 33 27 24 23 22 24 29 26 30 30 27 28 28 31 34 42 49 56 60 69 69 66 68 70 78 80 81 86
35 32 43 42 42 39 38 34 33 28 27 25 25 23 24 27 23 21 22 30 39 37 29 24 24 23 24 29 28 31 34 32 31 29 28 32 35 45 50 54 56 63 71 74 74 79 86 84 88
24 33 42 45 43 41 42 37 37 30 31 30 28 26 24 24 23 21 20 22 28 39 37 31 24 24 25 28 27 28 30 33 32 29 26 26 30 37 46 50 50 55 68 75 72 77 85 86 88
25 34 36 47 41 43 47 43 32 34 36 34 31 27 29 26 22 21 19 20 23 28 36 33 30 25 24 28 28 28 29 31 34 29 29 25 28 30 35 41 45 49 63 67 72 83 85 90 91
27 33 38 31 42 48 54 38 37 37 35 34 32 30 30 29 26 23 22 20 23 26 31 36 32 27 25 27 31 27 29 33 37 32 29 28 26 30 32 39 42 51 67 69 79 83 85 89 92
27 33 34 30 48 55 56 37 43 43 38 34 35 33 32 32 28 25 24 23 23 26 31 34 34 29 25 26 32 32 29 32 38 38 33 31 27 26 29 35 40 55 77 79 83 90 89 86 94
29 33 32 36 47 55 58 42 49 44 42 39 39 38 35 33 32 32 26 25 25 25 27 34 36 30 27 26 30 33 34 34 39 42 38 34 28 24 27 33 45 62 74 83 87 92 88 86 93
29 32 39 42 51 60 59 52 50 47 43 40 41 43 37 35 35 32 29 27 26 26 29 35 39 34 29 28 25 31 32 32 35 39 43 38 30 25 25 46 59 66 77 84 90 94 91 94 92
26 44 54 65 60 67 71 69 62 55 46 43 41 42 40 39 38 36 37 36 32 28 28 31 39 41 37 28 27 31 34 33 37 40 44 40 32 26 29 50 61 69 77 87 93 96 93 95 96
30 43 55 65 71 87 85 82 68 58 51 48 47 46 46 44 41 40 42 42 39 38 34 31 32 39 39 31 32 34 36 37 40 42 44 43 33 29 31 50 59 75 80 94 98 97 94 95 98
44 48 64 72 87 92 68 77 62 58 52 49 49 50 50 47 46 44 43 42 41 38 36 39 36 39 42 36 33 35 34 35 39 43 46 44 33 27 32 48 58 75 89 98 99 97 97 96 98
46 50 68 60 70 82 74 87 57 49 49 49 48 51 52 54 54 53 48 48 45 43 40 39 38 37 42 37 36 37 38 38 43 46 49 44 30 26 34 45 57 75 89 98 96 98 97 97 96
47 64 70 72 70 92 69 75 52 54 54 51 60 61 65 61 57 55 52 50 49 48 43 40 40 37 40 38 42 39 39 43 46 49 51 44 29 27 36 46 62 76 89 98 98 99 97 96 97
59 72 75 83 92 63 50 57 56 55 53 63 67 73 69 65 64 61 53 48 45 43 42 42 41 41 40 39 44 45 45 47 49 51 51 44 27 29 37 49 59 74 93 98 99 98 98 97 96
55 62 71 61 58 49 51 74 68 65 67 63 71 66 67 71 68 67 54 49 46 41 38 39 36 44 41 39 47 48 49 50 52 54 53 48 29 30 37 47 53 69 89 96 98 99 99 98 99
57 64 63 94 84 92 73 81 70 72 71 73 69 67 67 64 59 54 52 50 51 45 38 33 31 44 38 43 50 50 52 53 54 57 54 49 36 31 37 47 51 60 88 92 97 99 99 96 95
67 67 85 95 97 96 66 71 81 82 76 76 69 64 57 50 51 52 50 51 55 51 42 35 35 42 37 42 52 49 55 60 57 59 57 50 42 33 38 45 51 56 64 86 91 95 93 93 94
70 86 87 87 78 87 78 98 93 87 80 82 68 59 58 57 57 54 54 56 59 57 50 46 55 42 43 50 52 50 61 64 61 63 59 53 45 36 37 43 50 57 60 68 83 87 91 89 94
73 75 75 90 63 80 96 98 91 87 83 67 57 58 65 65 63 59 57 61 67 65 62 59 56 62 52 53 52 59 64 66 66 67 61 56 49 38 37 40 48 56 61 66 76 81 94 94 97

GFSSGP_prec_cthk_108.txt.gz
RH
10 10 11 13 14 18 18 12 7 6 14 14 15 18 18 19 21 26 27 30 31 25 24 22 19 15 12 12 12 12 13 16 20 24 28 31 35 37 43 43 46 45 49 60 67 67 65 66 66
11 11 13 17 18 20 18 11 9 12 15 17 20 19 19 22 20 22 24 27 26 22 24 22 18 13 12 13 13 12 13 15 19 24 27 30 36 39 44 46 51 55 60 65 72 72 69 64 62
14 14 16 17 20 19 16 10 11 13 16 17 22 20 19 21 21 22 23 24 21 23 23 20 18 13 13 13 12 12 12 15 18 24 27 31 38 41 45 52 57 57 61 66 71 72 70 66 58
19 17 18 22 19 14 13 10 10 13 15 18 20 20 19 19 18 22 23 17 20 21 21 20 16 14 13 13 12 12 13 16 19 23 27 32 38 41 46 51 57 60 63 68 66 70 73 70 69
23 25 26 24 19 14 12 13 12 14 18 17 17 18 20 19 21 21 18 17 16 17 17 15 15 14 13 13 13 13 14 16 21 25 28 32 35 39 44 52 60 66 69 74 74 72 76 75 71
27 28 30 28 19 17 15 14 15 13 18 19 19 19 20 22 23 25 23 21 19 18 18 16 16 15 13 13 14 13 14 16 21 26 28 32 34 38 43 51 61 67 74 77 70 64 68 72 72
34 33 28 24 24 22 20 18 16 17 17 19 20 21 21 21 24 27 28 27 23 21 19 17 16 16 15 14 14 14 14 15 19 24 28 30 34 37 40 50 61 66 70 73 64 68 70 72 74
34 35 31 25 25 24 25 23 19 20 19 19 19 20 26 23 24 23 26 26 25 23 20 18 17 17 16 16 15 16 16 16 18 22 25 29 33 36 41 51 64 67 74 70 75 76 74 77 72
32 35 28 30 32 28 28 27 24 24 22 21 20 20 22 26 27 28 27 26 27 25 22 20 18 17 18 17 16 16 17 18 18 22 24 28 32 37 42 53 61 68 70 69 74 72 68 62 64
27 30 19 27 28 29 30 29 29 29 26 23 23 22 22 28 29 30 28 27 27 27 26 23 20 18 19 19 17 17 18 19 19 21 24 26 31 35 41 48 56 65 68 73 69 70 65 61 59
14 19 17 19 25 29 29 28 32 35 29 28 29 28 28 29 30 31 29 28 26 28 27 24 23 21 20 21 19 18 19 21 21 22 24 27 30 35 38 45 51 58 64 69 71 68 65 63 67
9 8 12 12 18 22 23 29 29 41 27 32 34 34 30 33 31 32 29 29 30 30 28 25 23 22 20 22 21 19 19 21 22 23 24 25 28 31 34 38 43 49 55 62 66 66 66 66 68
11 7 6 7 10 12 17 22 31 36 31 36 38 35 35 33 30 30 28 27 26 26 25 25 24 21 20 22 24 22 21 21 22 24 26 26 27 29 31 34 37 38 45 52 55 56 61 71 75
13 15 13 12 10 10 12 13 29 21 36 41 40 38 33 34 30 30 29 27 26 29 30 29 27 21 22 22 24 24 23 23 23 23 26 28 29 28 29 31 32 35 37 42 48 51 59 66 75
12 12 11 10 11 15 17 16 14 15 39 42 42 40 37 33 30 28 28 29 27 29 30 36 35 31 26 27 27 26 26 25 24 24 25 28 31 32 30 30 30 30 32 36 40 44 56 65 73
20 20 17 9 13 14 20 21 10 11 28 40 44 42 41 37 33 29 26 27 28 28 30 33 37 37 39 35 34 27 27 27 25 25 25 27 30 32 33 33 32 31 32 34 37 40 48 66 82
23 28 23 15 14 17 22 23 11 12 18 34 45 46 43 40 38 34 30 29 28 31 29 26 32 35 38 40 33 32 31 29 28 26 26 28 29 32 34 34 34 33 34 34 37 45 46 62 81
36 29 22 22 12 19 20 25 13 16 19 25 40 48 48 45 38 37 35 34 32 31 30 26 25 30 36 39 39 37 40 33 30 28 27 30 30 33 35 36 35 35 33 33 37 49 52 66 81
79 59 42 21 14 24 27 25 27 30 22 22 26 39 50 46 43 41 40 40 37 34 32 27 25 26 36 39 41 43 39 39 33 30 30 31 32 33 38 38 38 38 33 33 41 55 57 67 84
42 68 76 39 19 33 41 37 34 40 36 26 27 34 43 48 47 47 47 46 42 35 33 31 27 26 29 39 37 42 41 38 39 34 32 33 34 36 39 42 40 40 36 37 38 54 57 70 82
36 48 72 65 34 43 68 62 38 38 49 34 32 34 45 53 54 56 54 48 44 40 36 35 32 29 30 36 38 41 46 47 43 40 36 32 35 39 42 45 43 41 35 34 37 50 56 69 82
46 42 67 79 54 50 65 71 63 48 40 44 37 44 62 64 62 61 58 52 49 47 46 44 42 40 41 46 49 43 42 40 37 34 35 34 36 38 44 48 47 44 34 32 37 47 54 63 69
58 64 76 63 42 57 62 92 61 67 57 53 57 67 72 73 67 64 59 58 54 51 49 48 48 48 49 51 64 61 52 49 45 40 38 38 38 39 44 50 51 46 36 32 38 50 62 70 80
58 60 71 67 43 58 46 76 62 64 62 70 70 78 79 76 68 62 66 62 57 55 51 49 48 51 49 51 53 61 73 56 52 46 41 38 37 38 44 52 54 46 37 35 42 54 63 69 88
57 73 90 85 85 69 60 83 62 74 78 77 76 76 75 75 73 67 63 64 61 55 56 55 53 53 53 51 51 50 58 60 50 47 44 40 39 39 46 53 57 45 37 40 46 53 57 85 98
72 71 75 95 93 80 77 77 77 84 93 96 88 85 85 83 74 71 73 72 69 63 59 58 55 54 53 55 52 49 50 57 53 50 48 44 41 41 49 55 56 46 40 44 48 50 69 96 99
64 70 66 78 88 83 78 81 90 86 88 98 97 92 90 90 85 81 78 74 68 63 62 61 58 53 52 50 53 53 47 51 55 55 56 50 47 46 50 56 56 49 42 45 46 51 65 88 98
72 74 76 90 83 88 82 85 99 98 94 95 98 95 94 91 89 84 80 77 72 68 66 62 58 55 53 47 47 52 51 57 64 58 61 53 51 51 53 59 56 50 46 45 44 51 59 79 97
74 78 75 70 78 90 97 99 98 99 98 94 98 95 95 89 86 80 74 68 62 58 56 54 54 57 51 49 47 48 51 59 62 66 64 60 61 55 56 62 53 54 49 45 47 52 58 69 86
82 77 71 82 85 94 97 98 99 97 98 96 94 98 99 92 84 74 65 59 53 54 55 55 60 63 63 59 55 60 64 66 73 73 70 74 76 63 60 65 54 59 56 47 50 52 58 68 89

GFSSGP_prec_cthk_111.txt.gz
RH
11 8 10 12 15 17 17 15 10 7 8 14 14 16 18 22 25 26 24 26 29 22 22 23 24 23 20 15 14 16 16 18 19 22 24 26 27 29 32 36 40 44 48 53 56 60 65 68 66
14 11 11 14 16 19 16 14 12 8 9 14 14 14 18 22 26 27 28 28 27 22 22 23 22 21 19 14 13 14 15 16 18 22 24 25 27 31 34 39 42 44 48 54 62 69 74 71 65
17 15 14 17 21 17 12 13 10 8 11 14 16 16 17 19 21 23 26 28 24 21 22 23 22 21 18 14 13 13 14 15 18 22 24 25 27 32 36 39 42 47 51 56 62 67 70 69 68
20 19 19 23 23 17 13 12 10 10 11 16 16 16 17 18 17 19 22 22 20 20 21 20 19 17 16 14 13 13 13 15 19 21 24 25 28 32 35 39 45 51 55 57 61 64 68 70 70
23 23 25 28 24 18 15 14 14 13 15 16 16 15 15 19 20 19 19 18 19 20 19 18 17 16 15 14 14 14 14 15 19 22 25 27 30 33 36 41 50 53 57 61 65 63 64 67 69
24 27 31 29 20 19 19 19 17 15 14 16 17 16 16 19 20 20 20 19 20 19 21 20 19 18 16 15 14 14 15 16 19 22 25 27 30 33 37 42 49 55 62 65 67 65 61 66 68
26 29 27 25 25 23 23 24 22 18 17 16 18 18 17 23 24 23 20 20 20 21 23 21 19 18 17 16 15 15 16 16 19 22 25 27 28 32 36 41 48 55 62 65 67 62 62 65 68
23 26 28 23 22 22 24 27 26 23 18 18 20 20 20 20 27 26 24 22 20 22 22 20 20 19 19 17 16 16 17 17 19 22 25 28 29 31 35 38 47 57 64 69 67 64 69 70 70
19 27 23 23 24 22 22 26 30 30 24 21 23 22 21 24 25 28 26 24 22 21 22 22 19 19 19 19 18 17 17 18 20 21 24 27 29 32 36 37 44 56 66 68 65 67 67 64 58
18 23 19 19 18 19 19 22 30 33 29 24 25 25 22 24 27 29 28 25 23 23 23 22 22 19 19 18 19 18 17 19 20 21 22 25 28 32 37 40 47 54 60 63 66 66 66 65 55
13 16 14 14 15 14 17 21 26 32 26 30 28 29 29 37 30 31 29 26 22 24 25 25 24 22 19 19 19 20 18 19 21 22 22 25 27 32 37 41 46 49 52 57 62 64 67 64 59
11 8 10 11 12 14 18 19 21 22 17 33 32 33 30 38 48 34 33 29 26 27 28 28 26 23 21 21 19 21 19 20 21 23 24 25 26 29 34 38 42 46 48 52 56 60 60 59 57
15 13 10 10 10 10 11 11 15 13 12 31 36 35 32 31 38 52 38 33 30 32 31 31 30 25 23 22 21 21 21 21 22 23 24 26 27 28 31 34 37 41 45 48 51 54 55 53 54
12 10 10 10 10 12 15 13 13 6 8 17 35 38 36 33 29 45 49 40 35 34 31 31 30 29 26 23 21 22 24 23 23 24 24 26 29 29 29 31 32 35 40 42 45 48 49 49 54
14 16 13 10 11 12 16 14 13 11 10 9 21 39 41 37 33 35 46 42 38 34 32 30 33 32 31 26 23 24 26 26 25 25 26 25 27 31 31 31 31 32 35 38 41 43 44 45 50
23 23 21 12 14 13 16 19 11 13 15 11 11 27 44 41 36 34 46 46 41 39 34 32 36 37 41 30 26 28 31 29 27 27 27 26 27 29 33 33 33 33 34 34 35 38 38 41 46
29 32 29 19 15 17 18 17 10 16 17 15 10 18 39 47 42 35 42 48 45 40 34 34 35 36 38 42 44 40 39 35 31 29 29 28 27 29 31 34 35 36 37 36 34 35 37 42 51
50 60 63 59 32 30 22 22 19 15 20 18 13 13 28 50 44 39 38 38 43 42 36 35 34 34 35 42 46 46 40 37 38 33 31 30 27 28 31 35 38 40 39 38 37 37 38 45 53
56 62 52 43 49 52 45 37 24 15 22 19 21 13 20 51 49 48 47 44 44 39 36 34 35 33 34 35 38 44 42 39 40 39 35 32 30 29 31 34 38 42 40 39 38 38 37 46 52
52 54 52 49 46 64 64 59 28 19 33 23 23 20 16 38 58 53 48 45 42 36 36 36 34 34 33 32 32 36 43 45 46 43 43 39 32 32 32 33 37 43 44 43 40 39 38 44 52
48 77 74 77 47 54 75 85 32 23 33 26 29 26 27 31 56 61 57 50 44 41 38 38 36 36 36 35 38 38 43 51 52 49 43 42 42 40 36 34 37 45 48 47 44 40 41 41 50
64 66 77 56 55 64 63 75 35 37 37 31 40 50 41 36 44 62 63 60 53 48 48 45 47 43 40 42 40 40 40 45 44 46 47 46 44 44 43 39 40 46 51 50 49 43 42 46 49
56 61 69 72 73 92 77 81 47 67 64 49 53 55 56 47 45 51 57 63 55 54 58 55 51 48 45 47 45 45 51 57 55 58 57 48 47 45 45 43 44 46 53 54 50 43 42 45 53
58 60 63 71 77 89 57 57 54 65 77 80 64 57 59 57 56 57 63 63 54 56 57 57 58 58 54 52 49 52 51 66 74 72 62 55 52 49 46 43 44 47 54 55 49 41 40 44 51
55 69 83 96 90 65 44 62 55 82 87 86 87 72 68 69 67 64 63 64 59 59 60 58 57 60 58 57 56 57 58 56 57 68 68 61 54 51 46 43 42 46 56 59 52 41 42 46 51
66 72 87 95 95 78 62 87 90 87 88 93 91 89 83 77 73 72 70 72 70 70 66 61 56 54 56 56 55 60 58 59 58 58 67 63 57 54 52 45 43 46 55 58 55 43 41 46 49
68 80 74 93 88 98 89 99 95 88 93 91 90 91 86 86 81 83 85 80 75 74 72 69 64 60 57 58 56 58 58 58 58 57 62 66 62 59 58 52 46 48 57 58 53 45 42 45 52
74 81 91 96 97 89 87 97 97 97 95 98 98 95 90 89 90 93 90 87 84 82 77 74 69 68 65 61 58 55 56 57 54 59 57 58 63 63 66 65 50 52 58 56 52 49 42 45 54
79 77 84 87 86 96 94 97 98 98 98 98 98 98 95 90 89 89 84 86 84 83 82 81 76 73 70 69 66 61 54 53 60 62 61 61 67 70 74 73 60 54 61 56 53 53 42 45 54
90 81 79 82 86 93 96 98 97 98 98 97 97 97 96 97 97 97 95 91 86 78 79 79 76 74 71 71 71 66 59 57 60 57 61 63 69 81 79 84 67 60 63 55 58 56 44 47 54

GFSSGP_prec_cthk_117.txt.gz
RH
17 15 12 12 11 12 10 9 11 11 10 11 13 11 12 16 22 20 21 22 22 19 20 24 28 28 27 26 25 23 22 20 20 18 19 20 24 26 27 29 31 35 38 41 44 48 53 60 65
19 17 16 15 11 11 9 11 13 11 9 8 9 11 14 18 20 20 21 22 21 21 23 25 26 25 24 24 22 21 20 20 20 18 19 21 23 24 26 28 31 34 37 42 46 51 59 66 69
23 21 20 19 17 13 12 12 12 12 11 10 9 12 14 18 19 21 22 24 20 19 21 25 24 22 22 21 21 20 19 19 19 18 19 20 22 24 25 28 30 34 37 44 50 56 62 69 71
25 25 23 22 21 19 16 16 16 14 12 12 10 11 13 15 17 19 25 24 22 22 23 23 21 20 21 20 19 18 19 18 19 19 20 20 21 24 25 27 30 35 41 48 54 57 61 63 64
25 25 23 26 25 24 22 22 22 19 17 15 13 11 14 16 17 20 28 27 26 22 22 21 21 20 20 18 17 17 19 18 19 19 21 22 22 24 26 30 33 36 43 48 54 57 60 60 58
20 23 23 22 23 23 23 24 23 22 21 21 19 16 14 17 18 20 28 33 28 24 23 23 21 21 20 19 18 19 19 18 18 20 21 22 24 26 30 33 36 38 42 48 53 59 59 59 59
17 19 19 22 22 21 19 20 20 22 24 25 24 21 18 17 19 20 26 35 32 25 23 24 22 22 21 20 19 19 19 19 18 19 21 23 25 28 31 34 38 40 46 48 56 58 58 57 58
19 21 24 22 20 18 16 15 14 17 21 24 25 24 22 20 20 22 25 37 35 26 25 23 23 23 23 22 21 19 19 20 20 19 21 23 27 29 31 35 38 40 46 48 54 56 57 56 59
18 20 22 21 21 18 18 17 13 15 17 21 26 27 27 25 23 23 26 34 37 27 26 25 24 24 23 23 23 21 19 20 22 22 22 24 27 30 34 36 37 40 45 49 53 56 55 55 59
17 22 20 19 19 21 22 22 19 17 16 15 16 22 26 27 28 25 26 34 38 29 27 27 25 25 24 25 24 23 21 19 23 24 24 25 26 30 34 37 38 40 44 48 54 55 52 56 60
18 18 19 18 19 20 20 18 19 17 14 15 15 15 21 26 29 28 27 33 44 36 29 29 29 26 26 27 27 27 24 21 21 24 24 25 27 29 33 37 39 40 43 47 53 53 50 54 57
19 17 16 15 14 14 15 14 13 12 13 10 10 10 12 20 26 28 28 31 45 41 34 32 31 29 27 28 28 28 25 23 20 22 25 25 27 28 30 34 38 40 42 47 52 51 49 52 52
16 15 14 15 15 14 13 13 13 12 11 11 8 9 9 11 18 25 28 30 38 48 39 37 35 31 29 31 30 28 27 26 24 21 24 25 26 27 28 32 37 39 42 47 49 48 48 49 50
15 15 16 15 13 13 13 11 11 10 11 11 10 8 8 8 12 19 28 29 36 45 47 41 39 35 32 32 31 29 29 29 27 23 23 24 26 27 28 30 35 39 40 45 47 48 49 48 46
16 18 16 14 14 16 15 12 13 11 13 13 13 10 8 7 8 13 24 29 33 43 52 45 41 40 35 34 31 31 31 30 29 25 24 24 25 27 28 29 32 36 39 43 43 45 46 43 43
19 19 19 17 17 18 22 17 16 15 18 18 17 15 12 8 8 9 16 28 33 42 48 49 45 45 41 37 33 32 33 33 31 28 26 26 25 27 29 29 31 34 37 41 42 43 45 43 44
23 22 19 16 18 22 30 27 14 19 19 19 18 16 14 11 9 9 12 25 32 38 43 46 52 48 50 41 39 35 36 36 33 31 29 28 27 28 30 30 31 33 37 41 42 41 42 43 43
22 24 22 22 15 27 28 30 24 16 22 21 22 18 16 13 7 9 9 17 32 35 41 46 51 56 60 50 45 39 41 39 34 33 35 32 29 28 30 32 32 32 34 38 42 42 43 42 43
28 30 29 22 24 29 28 32 25 29 26 29 24 25 23 18 13 11 8 13 30 38 39 45 51 63 68 58 46 41 46 43 38 40 41 39 35 31 30 33 34 33 33 36 39 43 44 44 43
36 37 33 26 29 37 30 32 39 40 42 34 36 23 23 22 21 16 12 12 21 40 38 47 52 64 68 66 47 48 55 49 43 48 45 45 42 41 36 33 35 36 35 35 38 41 45 46 47
40 40 35 34 30 38 43 35 39 42 42 38 37 38 35 37 33 29 27 20 20 44 44 49 55 65 65 68 56 57 57 58 59 54 49 46 45 43 41 40 39 39 38 37 39 41 44 48 51
46 35 39 42 51 57 60 58 37 47 63 66 69 79 67 52 45 44 41 35 28 56 52 53 65 76 72 76 64 55 55 54 53 58 57 52 53 51 49 47 46 44 43 41 42 44 46 50 54
36 39 45 49 60 71 66 78 48 68 88 97 98 98 84 64 67 65 58 50 42 64 65 58 61 73 75 73 72 59 61 60 60 57 56 58 58 58 57 55 50 48 45 44 44 48 46 50 56
44 48 46 50 65 83 76 85 71 83 90 95 97 98 85 80 78 84 67 57 57 66 70 65 61 58 60 66 68 63 58 58 59 58 56 55 58 64 64 59 55 53 52 51 50 49 48 50 53
54 54 58 59 71 76 90 94 94 93 98 97 98 97 98 93 91 86 74 60 68 70 77 72 66 62 59 58 58 56 54 55 57 61 59 55 56 61 68 66 64 65 60 58 55 50 49 50 53
61 62 71 81 69 77 91 94 95 97 96 94 96 97 96 96 97 91 81 59 68 78 82 78 74 70 67 66 63 60 61 62 62 64 62 58 59 60 63 68 75 77 71 63 64 59 51 51 51
68 74 71 85 76 86 95 96 98 92 96 95 96 98 96 92 92 91 85 75 58 72 83 84 81 77 75 72 69 66 68 70 67 70 67 61 61 61 62 67 79 78 73 67 67 64 59 51 50
67 70 90 91 90 80 94 92 94 94 96 96 96 97 97 96 92 85 81 79 70 62 70 80 80 81 80 78 74 68 70 70 71 72 71 68 68 71 71 71 75 78 78 77 76 72 65 63 59
71 78 94 96 89 92 92 95 98 97 97 97 97 97 97 97 97 89 86 82 77 68 66 67 70 70 76 76 74 73 71 68 71 70 72 74 76 76 77 76 75 77 80 79 81 79 75 70 70
80 85 95 95 86 94 95 95 98 98 97 97 97 97 97 97 94 97 90 86 83 77 72 71 70 69 69 69 67 66 63 62 65 65 67 66 72 76 79 79 80 81 81 78 76 77 75 77 80

GFSSGP_prec_cthk_120.txt.gz
RH
19 18 16 15 14 10 9 9 10 9 10 10 11 11 9 12 16 26 25 21 23 24 19 20 22 28 28 27 26 25 24 23 23 23 24 25 26 26 28 28 31 35 36 39 42 45 48 54 57
20 19 19 18 14 12 10 9 11 10 10 9 9 8 12 14 19 21 27 24 23 27 22 22 24 27 28 25 23 22 22 22 23 22 23 24 26 28 29 30 32 34 36 40 43 47 51 57 62
23 23 23 20 18 16 15 13 12 11 11 10 11 10 11 14 16 21 25 24 26 29 24 21 25 28 26 23 22 22 21 21 22 23 23 24 26 28 29 30 32 36 38 40 45 52 56 59 64
27 27 26 24 22 19 18 17 16 15 14 13 13 11 11 14 16 19 23 28 29 30 26 24 26 26 23 22 22 22 21 21 21 22 22 23 25 27 28 29 31 35 39 44 49 54 59 61 61
25 24 25 24 23 23 22 22 21 21 20 19 19 17 15 16 20 19 23 31 33 31 30 25 27 24 23 21 22 22 21 22 21 22 22 24 25 27 28 29 32 34 41 47 52 53 59 60 59
18 20 21 20 21 19 18 19 20 21 24 24 23 22 20 18 19 20 24 34 31 34 30 26 25 25 23 21 21 22 22 22 22 23 24 25 26 27 28 30 33 35 40 46 51 54 59 57 56
16 16 16 16 17 16 16 16 17 18 20 23 24 24 25 23 23 22 21 27 36 37 30 27 25 25 24 22 22 22 22 22 23 23 25 28 27 28 29 31 33 35 40 46 49 55 56 56 53
19 20 17 20 20 16 19 17 15 15 16 19 23 25 27 28 27 25 25 26 38 42 33 29 28 26 25 23 23 23 22 22 23 25 26 30 31 31 31 33 34 37 40 44 48 55 55 54 56
18 18 18 17 20 18 20 22 19 20 17 16 18 24 27 27 27 24 25 30 39 46 39 32 31 27 26 24 24 24 23 22 23 25 27 30 34 34 35 34 36 38 40 45 48 52 54 55 54
19 19 19 20 20 22 22 20 19 17 16 15 13 15 22 20 22 26 24 26 36 47 47 35 33 29 27 25 25 26 25 24 24 26 27 31 37 40 39 36 37 39 42 44 48 52 54 52 58
19 18 17 20 19 19 16 14 15 14 13 12 13 12 11 12 16 22 26 24 28 42 49 36 32 32 30 27 27 26 26 31 28 27 29 31 34 42 38 39 37 39 42 44 46 50 54 54 61
20 16 17 16 16 15 14 14 13 12 11 10 11 10 9 11 10 16 23 27 25 36 49 48 33 34 32 33 28 28 27 26 28 27 28 31 32 34 37 39 39 41 41 48 49 54 56 52 54
17 16 15 15 14 13 13 12 11 12 11 10 7 9 10 10 10 9 15 25 28 27 41 49 39 35 35 33 34 29 27 27 25 25 28 29 30 31 36 40 41 40 42 46 49 53 51 50 51
16 15 14 13 13 12 13 13 14 13 13 14 13 9 8 9 10 10 8 16 26 30 37 50 48 34 35 34 33 30 28 28 28 27 27 28 27 30 35 37 39 39 42 45 48 53 50 48 49
15 16 13 13 12 13 15 12 12 13 14 16 15 14 13 10 8 10 11 8 17 28 35 47 56 41 37 35 34 32 31 30 30 29 29 28 27 29 33 35 37 38 40 42 47 48 47 47 47
18 16 17 16 16 17 18 13 13 13 16 16 16 16 15 13 9 8 10 10 9 21 31 39 61 52 40 38 37 34 32 32 33 33 30 28 28 28 31 32 32 35 36 40 44 45 47 46 46
20 16 15 14 18 17 19 14 10 13 17 18 17 17 18 16 14 10 9 10 9 14 27 35 53 62 50 42 39 39 36 34 38 40 32 29 28 29 30 32 33 34 35 39 42 43 46 46 46
15 16 15 16 20 19 17 17 17 17 23 24 25 25 24 19 17 18 11 12 13 10 25 33 42 64 60 54 42 42 43 37 40 41 39 32 30 30 31 32 33 35 35 37 40 41 46 46 48
20 21 20 21 19 22 28 29 30 22 25 40 33 30 30 26 24 23 18 13 15 13 21 32 42 60 66 61 52 48 46 43 41 44 44 35 33 32 32 32 33 34 35 35 36 39 42 46 49
26 25 24 19 26 29 28 35 35 34 41 53 51 50 44 38 33 31 27 20 28 27 19 31 43 57 67 67 59 55 50 49 45 52 46 39 37 37 35 33 33 34 35 37 36 37 40 42 46
30 28 27 26 29 32 34 36 46 50 55 51 61 73 74 73 69 59 44 39 35 23 21 27 45 58 66 71 70 65 63 57 49 54 50 39 41 43 44 42 39 37 37 37 37 37 39 42 43
34 27 27 28 37 39 44 46 50 56 60 64 69 79 87 86 89 91 66 48 39 28 23 28 47 56 66 71 78 67 63 51 46 47 46 46 50 51 47 44 42 42 43 42 41 41 42 44 44
34 35 35 37 44 46 45 55 52 60 68 70 73 80 86 87 84 75 70 67 56 41 36 32 53 65 69 72 76 66 81 66 61 59 59 60 62 59 56 54 52 50 47 47 47 45 45 45 48
42 44 46 47 47 54 50 61 62 79 85 78 82 85 91 87 86 86 85 77 66 59 47 44 62 75 76 81 77 89 85 74 56 60 62 58 59 64 65 67 64 61 56 51 51 51 51 52 51
49 56 57 61 64 48 52 64 83 89 91 91 89 91 96 91 91 91 91 87 80 73 60 56 68 84 82 84 85 81 72 78 70 68 67 63 57 62 62 65 64 68 63 58 59 59 58 57 54
48 60 63 78 63 56 55 72 85 86 89 94 94 96 95 96 91 96 97 95 90 89 76 78 86 83 87 87 90 88 91 87 75 71 66 62 60 59 58 62 68 78 78 72 74 73 65 63 62
55 59 62 71 69 77 72 80 89 80 87 92 95 96 96 94 97 97 94 94 86 89 80 85 93 88 83 78 83 81 77 74 71 67 62 62 62 60 64 64 65 72 82 82 82 83 77 71 70
56 63 74 88 87 80 81 87 84 87 89 94 95 96 97 95 97 96 98 88 85 88 90 87 97 92 85 80 84 72 65 63 61 66 70 72 72 70 69 68 71 73 70 76 85 89 85 79 78
60 71 82 88 80 87 83 89 90 94 94 95 96 97 97 97 96 96 98 93 81 81 95 98 94 90 80 83 78 76 75 70 70 71 70 72 72 74 71 72 73 75 76 77 85 91 89 84 84
55 69 91 95 85 89 94 91 93 94 93 95 96 97 97 97 97 95 90 91 85 73 73 88 94 87 91 84 81 76 76 73 72 71 72 71 71 75 76 80 81 81 79 81 83 84 86 84 84

GFSSGP_prec_cthk_123.txt.gz
RH
18 18 19 19 17 12 10 12 9 9 10 11 10 9 10 10 13 23 32 36 28 27 24 20 20 21 25 26 26 26 23 22 23 25 26 28 27 27 27 28 31 37 38 39 42 45 48 52 54
21 21 21 21 16 14 14 14 13 12 10 10 9 10 11 16 19 20 25 28 26 29 28 21 22 23 26 26 26 23 22 22 22 24 24 26 28 28 28 29 33 37 40 41 43 46 51 55 55
23 24 24 22 21 18 19 20 15 13 12 12 11 12 12 15 18 20 24 26 26 31 33 28 22 24 27 27 25 22 22 22 23 24 25 25 28 29 30 31 34 37 41 45 46 50 54 56 59
24 25 24 24 22 24 23 21 17 17 16 15 15 16 16 14 20 23 22 27 30 37 39 29 25 27 27 27 24 22 22 22 23 25 25 26 28 30 32 32 33 37 41 44 47 52 55 59 60
21 22 23 24 22 23 26 25 23 23 23 23 21 20 21 20 23 20 22 26 35 42 42 33 29 29 28 26 24 23 21 22 23 24 25 26 29 31 32 32 33 35 39 43 52 52 54 59 58
19 20 20 20 20 24 26 21 18 21 22 24 24 26 25 25 29 23 23 24 36 42 42 38 32 32 30 27 25 23 21 22 23 24 24 25 31 39 32 32 34 35 37 44 51 50 54 56 55
19 17 18 17 16 17 18 17 16 16 16 18 21 22 24 29 31 23 23 26 30 42 42 43 34 33 31 30 26 24 23 22 23 24 24 27 31 32 34 33 34 36 38 43 47 49 54 54 52
20 21 21 19 19 20 22 20 21 20 19 20 18 20 25 30 28 25 24 23 30 39 44 42 37 32 32 32 28 27 25 24 25 24 25 28 31 35 33 34 35 37 39 43 46 49 53 52 51
20 18 17 18 18 18 20 21 24 22 18 16 16 21 21 22 24 24 25 25 26 37 50 51 43 38 36 36 30 28 28 26 26 25 26 28 31 32 33 35 36 37 39 43 46 50 51 50 51
23 22 21 20 21 24 23 22 19 17 15 15 15 17 18 17 13 14 21 26 25 27 46 59 54 45 41 40 36 30 28 28 27 27 26 28 33 36 38 39 36 38 39 41 44 48 50 51 52
20 19 19 18 18 18 18 17 16 15 14 13 13 14 14 13 12 10 10 18 27 26 31 53 60 45 38 45 39 34 33 33 32 32 30 31 35 40 45 49 38 38 39 40 43 44 50 53 56
23 21 18 17 17 16 14 13 13 13 12 11 10 10 12 12 13 13 9 9 19 28 27 47 58 52 40 40 39 34 33 35 38 36 34 34 35 42 45 43 42 39 40 43 44 46 51 57 56
19 18 17 15 14 12 12 12 13 12 11 11 9 9 9 9 11 12 13 10 8 22 31 31 52 56 45 40 42 36 34 32 40 40 34 37 35 37 42 40 41 38 41 46 44 48 54 56 54
19 18 16 15 15 14 14 13 12 12 14 14 13 11 10 10 10 11 13 14 11 10 25 32 40 56 59 43 43 41 37 35 32 34 36 38 36 36 40 40 40 39 42 43 47 48 53 53 52
16 16 15 16 16 14 15 14 14 15 13 13 14 16 16 12 12 13 13 14 14 11 13 25 35 50 60 55 45 48 42 38 30 28 36 35 34 38 40 37 37 38 41 42 47 49 56 51 51
18 19 20 17 17 15 14 13 15 15 17 16 16 17 16 15 15 12 12 13 14 13 11 14 26 35 55 60 48 49 49 40 32 29 31 37 37 34 35 39 40 37 41 40 44 47 49 47 49
21 17 13 14 14 14 14 12 17 19 18 17 17 21 25 26 27 28 18 15 15 14 12 12 20 28 44 66 59 50 49 44 39 34 30 35 38 36 34 40 35 38 36 37 40 44 48 45 46
13 11 13 17 17 16 15 16 16 25 28 24 27 30 32 33 35 36 33 24 18 19 18 15 15 27 36 58 69 59 55 48 43 39 38 32 35 38 36 34 31 32 33 32 39 42 43 47 46
15 16 18 20 22 17 19 19 21 25 44 46 40 36 38 43 43 42 36 33 22 21 22 18 16 24 34 50 79 66 58 50 44 41 42 37 32 35 35 35 33 32 34 31 34 37 41 42 45
18 24 22 22 23 21 20 25 32 36 49 49 48 51 49 48 50 53 55 59 46 37 34 37 26 29 35 44 73 79 65 55 46 44 43 39 34 32 35 34 33 32 36 33 34 36 38 43 43
23 25 24 21 19 20 33 29 47 50 50 49 54 58 58 53 54 58 61 63 68 58 39 38 36 35 37 44 71 85 79 64 54 50 47 41 41 35 35 35 34 35 35 35 37 36 37 42 45
27 25 22 25 29 29 33 38 47 49 49 56 57 64 68 62 61 66 65 65 66 72 55 35 30 26 32 50 65 82 84 65 52 51 51 46 44 38 34 38 38 39 40 39 39 39 38 41 43
25 27 29 34 38 47 33 49 50 50 57 59 60 66 70 70 68 71 66 68 66 70 68 54 36 29 20 44 60 72 83 74 61 58 56 53 51 47 40 42 44 44 42 42 44 45 46 46 49
29 32 33 42 52 53 54 56 54 65 68 65 69 70 73 76 78 75 73 70 78 75 65 65 46 34 26 48 64 71 82 88 75 65 65 59 55 49 54 50 50 48 48 48 51 52 51 50 51
39 40 45 48 62 54 53 54 66 62 65 68 73 78 80 80 81 79 81 84 91 88 80 70 56 47 35 59 70 81 79 96 83 78 87 64 62 61 70 69 65 63 60 59 61 62 63 57 55
35 44 54 59 53 46 45 58 79 64 68 74 78 82 83 83 85 89 92 95 97 91 93 88 72 59 44 69 68 79 81 91 97 76 93 85 72 68 76 73 69 69 65 69 73 71 69 68 66
48 46 54 64 55 69 69 83 79 71 72 77 81 83 86 87 84 92 96 96 92 98 97 91 75 67 52 83 80 85 84 87 89 92 78 81 81 76 73 67 71 72 67 69 75 80 80 84 80
43 47 59 73 84 77 65 91 88 80 77 79 81 86 90 90 87 94 96 89 96 97 97 99 86 62 90 88 98 93 89 94 92 93 84 88 75 79 75 72 66 64 65 72 68 76 82 81 91
53 57 68 70 72 85 77 93 87 83 83 84 87 90 93 93 91 96 97 91 91 97 98 92 90 74 80 98 98 98 98 97 92 86 85 91 82 76 76 74 74 71 68 69 71 74 79 84 84
42 56 58 80 75 94 98 94 87 83 83 85 90 93 93 94 95 92 94 96 91 95 96 93 88 78 82 96 91 86 91 91 94 97 94 89 83 78 79 77 77 77 77 72 73 78 78 77 80

GFSSGP_prec_cthk_126.txt.gz
RH
19 19 18 18 18 15 13 12 12 11 11 10 9 9 9 9 11 26 35 38 40 33 24 24 23 21 23 27 24 24 24 20 19 20 23 27 28 29 28 28 29 34 36 41 42 43 46 50 53
19 19 20 21 20 18 14 18 14 15 12 10 10 10 11 15 19 22 23 23 33 30 27 27 24 23 25 28 25 25 22 20 19 20 22 26 28 27 30 30 31 35 37 44 43 45 49 54 54
20 22 23 23 22 20 19 22 19 16 14 14 14 13 13 13 16 24 24 22 24 31 30 29 26 25 26 28 27 26 22 21 20 21 23 25 27 28 30 32 32 37 38 43 49 51 55 53 56
21 24 23 24 23 23 25 27 22 22 22 20 19 19 19 18 18 24 23 21 28 37 36 33 28 27 28 31 29 26 24 21 20 21 22 24 25 26 29 32 34 36 38 42 46 51 54 53 56
20 22 25 26 26 24 25 26 32 26 25 27 28 27 25 28 28 30 26 22 26 40 40 40 32 29 30 31 29 26 25 23 21 21 22 23 24 26 28 32 34 37 39 40 47 51 52 55 56
21 21 22 22 23 26 25 31 31 26 23 24 26 31 32 32 31 30 25 23 24 33 40 45 37 34 33 32 29 26 26 25 23 22 22 23 25 27 36 31 33 37 36 40 46 50 51 55 54
22 22 21 21 20 19 21 23 24 21 20 20 22 23 27 28 28 30 27 26 23 30 39 43 39 36 34 34 31 28 26 26 24 23 23 24 26 30 33 30 34 34 36 39 45 48 49 54 53
23 21 21 21 22 20 23 23 22 22 24 23 21 21 23 28 24 23 23 25 26 28 36 46 44 36 36 35 31 28 27 27 25 25 24 26 27 30 31 32 32 32 35 38 43 45 46 51 50
23 25 23 21 20 19 20 21 23 24 22 18 17 16 18 22 21 18 20 23 26 26 28 41 52 47 38 36 33 30 28 27 26 26 26 27 29 30 32 32 31 32 38 40 41 43 47 48 47
22 23 22 21 21 21 23 25 25 22 18 17 16 15 16 16 16 14 12 11 16 24 27 29 47 60 51 39 36 33 29 27 26 25 25 27 31 31 30 32 32 34 35 38 40 43 45 46 46
22 21 21 20 19 19 19 17 17 16 15 14 16 16 16 14 14 15 15 11 9 12 25 28 35 54 67 54 44 38 32 29 27 25 25 27 30 34 36 36 38 36 34 35 37 41 43 45 50
20 20 19 18 17 16 15 14 13 13 12 12 12 12 12 11 13 13 14 15 13 9 10 26 29 44 60 69 51 49 39 32 28 25 26 27 30 36 41 46 47 43 36 36 37 40 42 44 50
18 17 16 16 15 15 15 14 14 13 13 13 13 12 12 12 12 13 13 13 14 14 10 10 27 31 49 61 59 51 48 41 33 29 27 28 30 35 46 43 49 42 36 38 39 40 42 47 52
18 16 14 12 13 14 16 15 13 12 13 12 12 11 11 11 12 13 13 14 14 15 13 11 12 28 34 53 60 51 50 45 45 37 31 28 31 35 43 44 47 42 36 39 41 41 44 49 50
17 15 14 15 15 15 15 15 14 12 12 13 14 14 13 12 12 12 12 13 14 14 14 12 13 16 31 43 66 59 57 52 45 43 37 32 34 36 38 42 43 43 39 39 42 42 45 50 57
16 17 19 17 16 15 14 14 12 14 15 15 17 19 18 20 23 23 20 18 21 22 20 15 12 13 21 35 52 63 59 61 49 42 39 33 32 38 38 41 42 40 38 38 40 42 43 48 51
18 21 19 14 12 14 15 14 14 15 16 20 25 25 26 26 25 24 24 24 19 20 22 22 16 12 13 26 39 66 71 64 55 46 38 37 34 37 38 37 43 37 37 37 38 40 44 49 47
22 19 14 13 13 14 16 13 13 17 22 28 29 31 32 34 35 35 32 29 28 25 20 20 20 18 14 16 29 40 68 76 69 51 39 39 35 35 36 38 43 37 39 37 39 40 42 44 43
17 13 15 15 18 19 18 14 14 18 31 35 33 36 38 39 38 39 42 40 34 33 31 23 19 19 22 16 24 39 45 81 77 61 45 37 35 32 36 38 40 40 41 39 39 41 41 44 43
16 18 19 20 21 18 16 13 20 32 50 43 39 40 42 40 41 45 49 46 44 40 39 38 33 24 20 26 26 45 52 66 85 72 53 44 37 32 34 39 37 35 37 37 37 40 42 43 42
20 19 23 24 17 17 22 20 25 52 54 56 49 50 47 48 48 51 52 51 48 47 44 44 43 39 30 21 27 37 49 66 90 84 63 50 41 39 35 36 39 34 33 36 37 38 41 41 43
22 23 22 20 24 25 27 40 35 51 64 52 62 53 54 53 55 58 58 57 58 54 53 47 42 44 43 26 25 27 44 66 85 92 69 56 48 41 39 37 41 38 36 36 38 40 41 43 42
25 21 21 21 27 32 33 53 65 67 71 68 62 58 57 59 61 64 66 66 65 61 56 51 48 42 50 43 23 22 38 58 76 94 81 63 55 45 43 41 45 44 38 35 38 43 44 45 46
21 23 27 29 33 48 48 67 84 87 79 67 63 61 60 63 67 72 71 69 67 66 64 62 64 54 56 50 27 21 31 48 71 85 85 67 56 49 45 45 47 47 46 42 43 46 49 50 52
31 40 42 36 42 42 46 56 71 60 65 67 66 66 67 69 74 76 74 71 73 72 75 74 75 70 55 56 46 27 27 53 65 92 89 74 61 54 49 54 54 50 52 52 52 54 52 57 59
37 37 40 45 48 42 31 51 75 72 73 73 68 69 74 75 81 79 76 77 78 78 79 83 83 83 64 61 58 33 31 51 69 83 99 84 72 70 61 68 59 53 60 61 66 63 68 66 69
41 36 45 50 44 53 47 82 86 83 77 73 71 73 78 82 82 82 83 86 82 88 95 94 94 84 73 69 59 43 37 57 78 90 72 98 87 72 84 85 69 69 76 76 77 77 80 82 78
30 35 47 57 73 58 49 83 86 84 82 75 72 76 80 83 85 86 89 90 83 92 94 90 97 93 88 83 73 46 45 70 90 83 88 92 93 69 97 85 85 90 86 83 83 81 79 78 78
51 54 63 58 61 70 78 90 91 88 82 77 76 80 84 85 88 89 87 93 91 97 96 97 96 97 99 90 68 45 61 79 89 91 92 96 97 86 87 88 92 85 96 80 85 81 81 79 80
36 41 43 56 53 64 81 86 81 82 82 78 79 83 86 90 91 90 86 91 97 91 94 97 97 98 99 92 76 63 64 85 99 99 96 98 89 90 92 87 91 91 84 85 81 78 84 85 85

GFSSGP_prec_cthk_129.txt.gz
RH
20 20 20 19 18 17 17 20 17 14 13 13 12 11 10 13 16 33 34 37 34 36 37 35 27 25 21 24 28 26 24 22 21 20 21 25 27 27 25 26 26 30 37 37 40 42 45 52 52
18 18 18 18 20 22 20 19 21 17 14 14 13 13 12 15 21 26 26 26 30 34 38 35 32 28 24 25 29 27 25 22 21 20 22 24 26 26 25 25 26 31 37 39 40 43 48 55 53
19 20 20 22 23 24 21 25 26 24 21 17 16 16 16 18 20 29 27 24 29 25 31 37 33 29 25 26 30 28 26 22 20 21 21 23 25 26 26 26 27 30 35 39 40 42 50 52 52
21 22 21 23 24 23 23 26 30 27 26 25 23 23 25 25 25 29 22 19 23 31 35 39 35 31 28 27 31 30 27 23 21 21 21 22 24 26 26 27 27 31 33 36 40 44 50 50 53
21 23 26 26 24 26 29 27 31 31 31 28 28 29 30 31 32 32 30 25 25 29 35 40 41 34 32 30 31 30 27 23 22 21 20 21 23 25 27 28 28 30 33 36 38 43 47 49 54
20 22 24 24 22 22 24 23 25 30 31 29 29 32 34 33 32 34 34 29 28 28 33 41 49 45 37 33 34 32 27 24 22 22 21 20 21 25 27 32 32 29 31 33 36 42 46 49 53
23 25 26 24 22 21 23 22 24 26 25 24 26 26 28 26 22 23 27 25 25 28 25 37 46 51 42 37 36 34 29 26 24 23 22 21 21 23 28 31 30 30 31 31 36 41 45 47 51
25 26 24 22 22 23 21 24 25 22 24 22 22 24 23 21 20 19 19 22 23 23 26 26 36 46 44 39 38 37 31 27 26 24 23 22 22 24 28 32 30 30 31 31 35 40 43 46 48
22 24 26 25 23 22 22 22 25 28 26 25 25 24 19 16 17 17 17 19 21 20 21 26 28 41 47 45 41 39 33 30 28 27 25 24 24 24 29 31 32 31 31 32 37 37 40 45 47
21 22 23 22 21 19 20 21 21 21 22 23 22 21 23 24 19 17 17 17 15 13 17 17 27 31 48 50 47 43 39 33 30 28 26 24 25 25 28 30 31 32 34 34 37 37 38 42 45
15 16 18 19 18 16 17 17 16 16 16 14 14 14 13 13 13 15 18 19 15 14 13 14 16 26 38 53 56 50 43 38 33 31 29 25 25 25 28 31 32 33 35 35 35 36 38 40 43
15 16 16 16 16 15 14 13 13 14 14 13 13 14 14 14 13 13 12 13 14 18 15 14 15 17 29 44 60 68 60 46 39 33 31 29 27 27 27 28 31 34 38 37 36 35 39 40 42
17 16 16 16 15 14 11 12 13 14 13 13 13 12 12 12 12 13 15 15 15 14 15 14 14 18 17 28 47 64 72 61 48 38 34 31 29 28 29 31 34 39 43 39 36 37 40 39 42
17 16 16 13 11 11 13 13 13 12 11 10 11 12 13 13 13 12 11 12 12 13 13 13 11 13 20 23 30 49 63 63 58 45 36 33 30 28 30 33 39 45 46 40 35 37 40 40 43
18 17 14 14 14 15 15 14 13 12 12 12 12 15 16 16 16 15 15 15 15 14 14 14 13 12 13 19 21 33 47 70 66 53 47 38 34 33 32 35 41 41 44 44 38 40 43 42 45
17 17 20 17 16 15 14 15 13 12 12 13 16 18 19 20 20 19 20 19 19 18 17 16 16 13 13 14 18 21 36 63 68 65 53 46 40 36 35 35 42 43 44 46 41 42 43 45 45
21 24 23 21 18 16 15 15 16 16 11 17 22 23 25 22 23 24 24 23 22 21 20 19 20 18 14 13 16 19 24 48 71 75 67 51 46 43 39 34 39 43 43 48 44 41 41 43 46
23 23 21 18 15 13 14 17 17 12 19 25 28 30 28 29 30 30 29 29 28 28 26 24 24 23 21 15 16 18 19 29 64 84 77 65 52 45 42 37 38 45 47 44 41 40 39 42 48
23 22 20 16 12 19 21 18 15 21 27 31 32 35 35 38 38 37 34 32 30 31 31 31 27 27 26 23 17 15 17 26 50 67 82 84 62 50 45 40 41 41 45 42 38 37 38 40 46
25 24 20 18 20 23 20 18 21 27 33 36 40 42 43 48 45 43 38 36 34 34 36 35 34 29 29 30 28 23 19 19 45 65 76 85 79 58 47 39 43 41 42 43 41 37 38 42 46
28 25 24 26 23 21 18 20 31 38 41 46 49 52 50 55 49 44 42 39 39 40 40 40 39 37 32 32 32 31 23 21 24 57 67 77 93 65 49 42 41 43 44 43 41 41 39 40 45
30 21 28 30 28 30 24 31 44 50 52 56 61 69 64 54 52 51 46 46 48 48 50 50 46 43 42 39 37 37 33 21 18 40 63 80 90 86 56 48 42 43 46 41 40 41 42 42 42
27 30 31 29 25 26 29 51 48 62 68 57 62 62 58 59 57 53 54 57 56 56 53 53 51 48 46 42 41 39 37 29 19 21 61 77 87 98 69 52 45 39 45 44 43 42 42 43 41
32 31 28 30 34 50 31 51 64 73 57 63 66 69 66 61 59 59 65 64 60 61 61 60 59 57 51 49 46 41 37 34 26 19 38 74 80 96 87 56 52 47 45 43 42 42 41 44 45
29 36 55 50 49 47 35 52 67 56 59 73 72 72 66 64 65 66 68 66 68 67 64 65 66 68 65 63 61 55 46 41 34 18 24 68 78 86 96 68 55 48 46 47 48 46 43 45 47
41 41 55 55 61 58 37 49 60 59 77 75 76 76 71 70 69 71 72 73 74 70 69 71 70 69 80 80 78 73 56 47 39 20 24 62 80 89 98 87 63 56 50 50 52 52 49 52 56
37 38 39 51 51 60 59 65 68 68 78 80 80 79 76 74 72 76 75 73 77 73 76 75 79 77 83 88 88 91 68 48 44 30 34 47 72 91 97 94 81 71 59 58 59 58 58 61 64
34 26 48 64 72 71 58 74 71 74 86 81 82 82 78 78 76 79 76 75 74 80 85 84 84 89 90 94 85 71 65 54 58 43 33 40 81 92 78 95 97 83 76 79 69 67 70 73 75
42 46 61 68 73 77 72 67 67 74 79 80 84 82 81 81 80 83 83 82 81 90 94 94 95 95 95 96 91 71 90 78 64 59 48 59 82 97 89 98 95 86 85 85 74 81 86 90 88
55 56 70 78 67 64 71 67 60 69 78 84 83 84 84 83 84 86 88 86 87 89 94 96 97 97 96 97 97 89 71 78 70 59 57 71 92 99 90 99 99 90 99 95 98 98 96 95 89